[[{"header":{"parameterUnit":"m.s-1","parameterCategory":1,"la1":31.0,"la2":29.5877,"lo1":-88.7671,"lo2":-86.6584,"dy":0.0162,"dx":0.0185,"nx":115,"ny":88,"refTime":"2026-03-09T12:00:00:Z","depth":0,"parameterNumber":2,"parameterNumberName":"U-component_of_WINDS"},"data":[0.0,0.0,0.0,0.0,0.0,0.0,0.0,0.0,0.0,0.0,0.0,0.0,0.0,0.0,0.0,0.0,0.0,0.0,0.0,0.0,0.0,0.0,0.0,0.0,0.0,0.0,0.0,0.0,0.0,0.0,0.0,0.0,0.0,0.0,0.0,0.0,0.0,0.0,0.0,0.0,0.0,0.0,0.0,0.0,0.0,0.0,0.0,0.0,0.0,0.0,0.0,0.0,0.0,0.0,0.0,0.0,0.0,0.0,0.0,0.0,0.0,0.0,0.0,0.0,0.0,0.0,0.0,0.0,0.0,0.0,0.0,0.0,0.0,0.0,0.0,0.0,0.0,0.0,0.0,0.0,0.0,0.0,0.0,0.0,0.0,0.0,0.0,0.0,0.0,0.0,0.0,0.0,0.0,0.0,0.0,0.0,0.0,0.0,0.0,0.0,0.0,0.0,0.0,0.0,0.0,0.0,0.0,0.0,0.0,0.0,0.0,0.0,0.0,0.0,0.0,0.0,0.0,0.0,0.0,0.0,0.0,0.0,0.0,0.0,0.0,0.0,0.0,0.0,0.0,0.0,0.0,0.0,0.0,0.0,0.0,0.0,0.0,0.0,0.0,0.0,0.0,0.0,0.0,0.0,0.0,0.0,0.0,0.0,0.0,0.0,0.0,0.0,0.0,0.0,0.0,0.0,0.0,0.0,0.0,0.0,0.0,0.0,0.0,0.0,0.0,0.0,0.0,0.0,0.0,0.0,0.0,0.0,0.0,0.0,0.0,0.0,0.0,0.0,0.0,0.0,0.0,0.0,0.0,0.0,0.0,0.0,0.0,0.0,0.0,0.0,0.0,0.0,0.0,0.0,0.0,0.0,0.0,0.0,0.0,0.0,0.0,0.0,0.0,0.0,0.0,0.0,0.0,0.0,0.0,0.0,0.0,0.0,0.0,0.0,0.0,0.0,0.0,0.0,0.0,0.0,0.0,0.0,0.0,0.0,0.0,0.0,0.0,0.0,0.0,0.0,0.0,0.0,0.0,0.0,0.0,0.0,0.0,0.0,0.0,0.0,0.0,0.0,0.0,0.0,0.0,0.0,0.0,0.0,0.0,0.0,0.0,0.0,0.0,0.0,0.0,0.0,0.0,0.0,0.0,0.0,0.0,0.0,0.0,0.0,0.0,0.0,0.0,0.0,0.0,0.0,0.0,0.0,0.0,0.0,0.0,0.0,0.0,0.0,0.0,0.0,0.0,0.0,0.0,0.0,0.0,0.0,0.0,0.0,0.0,0.0,0.0,0.0,0.0,0.0,0.0,0.0,0.0,0.0,0.0,0.0,0.0,0.0,0.0,0.0,0.0,0.0,0.0,0.0,0.0,0.0,0.0,0.0,0.0,0.0,0.0,0.0,0.0,0.0,0.0,0.0,0.0,0.0,0.0,0.0,0.0,0.0,0.0,0.0,0.0,0.0,0.0,0.0,0.0,0.0,0.0,0.0,0.0,0.0,0.0,0.0,0.0,0.0,0.0,0.0,0.0,0.0,0.0,0.0,0.0,0.0,0.0,0.0,0.0,0.0,0.0,0.0,0.0,0.0,0.0,0.0,0.0,0.0,0.0,0.0,0.0,0.0,0.0,0.0,0.0,0.0,0.0,0.0,0.0,0.0,0.0,0.0,0.0,0.0,0.0,0.0,0.0,0.0,0.0,0.0,0.0,0.0,0.0,0.0,0.0,0.0,0.0,0.0,0.0,0.0,0.0,0.0,0.0,0.0,0.0,0.0,0.0,0.0,0.0,0.0,0.0,0.0,0.0,0.0,0.0,0.0,0.0,0.0,0.0,0.0,0.0,0.0,0.0,0.0,0.0,0.0,0.0,0.0,0.0,0.0,0.0,0.0,0.0,0.0,0.0,0.0,0.0,0.0,0.0,0.0,0.0,0.0,0.0,0.0,0.0,0.0,0.0,0.0,0.0,0.0,0.0,0.0,0.0,0.0,0.0,0.0,0.0,0.0,0.0,0.0,0.0,0.0,0.0,0.0,0.0,0.0,0.0,0.0,0.0,0.0,0.0,0.0,0.0,0.0,0.0,0.0,0.0,0.0,0.0,0.0,0.0,0.0,0.0,0.0,0.0,0.0,0.0,0.0,0.0,0.0,0.0,0.0,0.0,0.0,0.0,0.0,0.0,0.0,0.0,0.0,0.0,0.0,0.0,0.0,0.0,0.0,0.0,0.0,0.0,0.0,0.0,0.0,0.0,0.0,0.0,0.0,0.0,0.0,0.0,0.0,0.0,0.0,0.0,0.0,0.0,0.0,0.0,0.0,0.0,0.0,0.0,0.0,0.0,0.0,0.0,0.0,0.0,0.0,0.0,0.0,0.0,0.0,0.0,0.0,0.0,0.0,0.0,0.0,0.0,0.0,0.0,0.0,0.0,0.0,0.0,0.0,0.0,0.0,0.0,0.0,0.0,0.0,0.0,0.0,0.0,0.0,0.0,0.0,0.0,0.0,0.0,0.0,0.0,0.0,0.0,0.0,0.0,0.0,0.0,0.0,0.0,0.0,0.0,0.0,0.0,0.0,0.0,0.0,0.0,0.0,0.0,0.0,0.0,0.0,0.0,0.0,0.0,0.0,0.0,0.0,0.0,0.0,0.0,0.0,0.0,0.0,0.0,0.0,0.0,0.0,0.0,0.0,0.0,0.0,0.0,0.0,0.0,0.0,0.0,0.0,0.0,0.0,0.0,0.0,0.0,0.0,0.0,0.0,0.0,0.0,0.0,0.0,0.0,0.0,0.0,0.0,0.0,0.0,0.0,0.0,0.0,0.0,0.0,0.0,0.0,0.0,0.0,0.0,0.0,0.0,0.0,0.0,0.0,0.0,0.0,0.0,0.0,0.0,0.0,0.0,0.0,0.0,0.0,0.0,0.0,0.0,0.0,0.0,0.0,0.0,0.0,0.0,0.0,0.0,0.0,0.0,0.0,0.0,0.0,0.0,0.0,0.0,0.0,0.0,0.0,0.0,0.0,0.0,0.0,0.0,0.0,0.0,0.0,0.0,0.0,0.0,0.0,0.0,0.0,0.0,0.0,0.0,0.0,0.0,0.0,0.0,0.0,0.0,0.0,0.0,0.0,0.0,0.0,0.0,0.0,0.0,0.0,0.0,0.0,0.0,0.0,0.0,0.0,0.0,0.0,0.0,0.0,0.0,0.0,0.0,0.0,0.0,0.0,0.0,0.0,0.0,0.0,0.0,0.0,0.0,0.0,0.0,0.0,0.0,0.0,0.0,0.0,0.0,0.0,0.0,0.0,0.0,0.0,0.0,0.0,0.0,0.0,0.0,0.0,0.0,0.0,0.0,0.0,0.0,0.0,0.0,0.0,0.0,0.0,0.0,0.0,0.0,0.0,0.0,0.0,0.0,0.0,0.0,0.0,0.0,0.0,0.0,0.0,0.0,0.0,0.0,0.0,0.0,0.0,0.0,0.0,0.0,0.0,0.0,0.0,0.0,0.0,0.0,0.0,0.0,0.0,0.0,0.0,0.0,0.0,0.0,0.0,0.0,0.0,0.0,0.0,0.0,0.0,0.0,0.0,0.0,0.0,0.0,0.0,0.0,0.0,0.0,0.0,0.0,0.0,0.0,0.0,0.0,0.0,0.0,0.0,0.0,0.0,0.0,0.0,0.0,0.0,0.0,0.0,0.0,0.0,0.0,0.0,0.0,0.0,0.0,0.0,0.0,0.0,0.0,0.0,0.0,0.0,0.0,0.0,0.0,0.0,0.0,0.0,0.0,0.0,0.0,0.0,0.0,0.0,0.0,0.0,0.0,0.0,0.0,0.0,0.0,0.0,0.0,0.0,0.0,0.0,0.0,0.0,0.0,0.0,0.0,0.0,0.0,0.0,0.0,0.0,0.0,0.0,0.0,0.0,0.0,0.0,0.0,0.0,0.0,0.0,0.0,0.0,0.0,0.0,0.0,0.0,0.0,0.0,0.0,0.0,0.0,0.0,0.0,0.0,0.0,0.0,0.0,0.0,0.0,0.0,0.0,0.0,0.0,0.0,0.0,0.0,0.0,0.0,0.0,0.0,0.0,0.0,0.0,0.0,0.0,0.0,0.0,0.0,0.0,0.0,0.0,0.0,0.0,0.0,0.0,0.0,0.0,0.0,0.0,0.0,0.0,0.0,0.0,0.0,0.0,0.0,0.0,0.0,0.0,0.0,0.0,0.0,0.0,0.0,0.0,0.0,0.0,0.0,0.0,0.0,0.0,0.0,0.0,0.0,0.0,-2.4149,0.0,0.0,0.0,0.0,0.0,0.0,0.0,0.0,0.0,0.0,0.0,0.0,0.0,0.0,0.0,0.0,0.0,0.0,0.0,0.0,0.0,0.0,0.0,0.0,0.0,0.0,0.0,0.0,0.0,0.0,0.0,0.0,0.0,0.0,0.0,0.0,0.0,0.0,0.0,0.0,0.0,0.0,0.0,0.0,0.0,0.0,0.0,0.0,0.0,0.0,0.0,0.0,0.0,0.0,0.0,0.0,0.0,0.0,0.0,0.0,0.0,0.0,0.0,0.0,0.0,0.0,0.0,0.0,0.0,0.0,0.0,0.0,0.0,0.0,0.0,0.0,0.0,0.0,0.0,0.0,0.0,0.0,0.0,0.0,0.0,0.0,0.0,0.0,0.0,0.0,0.0,0.0,0.0,0.0,0.0,0.0,0.0,0.0,0.0,0.0,0.0,0.0,0.0,0.0,0.0,0.0,0.0,0.0,0.0,0.0,-2.5308,-2.5308,-2.5308,-2.4928,-2.4149,0.0,0.0,0.0,0.0,0.0,0.0,0.0,0.0,0.0,0.0,0.0,0.0,0.0,0.0,0.0,0.0,0.0,0.0,0.0,0.0,0.0,0.0,0.0,0.0,0.0,0.0,0.0,0.0,0.0,0.0,0.0,0.0,0.0,0.0,0.0,0.0,0.0,0.0,0.0,0.0,0.0,0.0,0.0,0.0,0.0,0.0,0.0,0.0,0.0,0.0,0.0,0.0,0.0,0.0,0.0,0.0,0.0,0.0,0.0,0.0,0.0,0.0,0.0,0.0,0.0,0.0,0.0,0.0,0.0,0.0,0.0,0.0,0.0,0.0,0.0,0.0,0.0,0.0,0.0,0.0,0.0,0.0,0.0,0.0,0.0,0.0,0.0,0.0,0.0,0.0,0.0,0.0,0.0,0.0,0.0,0.0,0.0,0.0,0.0,0.0,0.0,0.0,0.0,0.0,0.0,0.0,0.0,0.0,0.0,0.0,0.0,0.0,-2.588,-2.5577,-2.501,0.0,0.0,0.0,0.0,0.0,0.0,0.0,0.0,0.0,0.0,0.0,0.0,0.0,0.0,0.0,0.0,0.0,0.0,0.0,0.0,0.0,0.0,0.0,0.0,0.0,0.0,0.0,0.0,0.0,0.0,0.0,0.0,0.0,0.0,0.0,0.0,0.0,0.0,0.0,0.0,0.0,0.0,0.0,0.0,0.0,0.0,0.0,0.0,0.0,0.0,0.0,0.0,0.0,0.0,0.0,0.0,0.0,0.0,0.0,0.0,0.0,0.0,0.0,0.0,0.0,0.0,0.0,0.0,0.0,0.0,0.0,0.0,0.0,0.0,0.0,0.0,0.0,0.0,0.0,0.0,0.0,0.0,0.0,0.0,0.0,0.0,0.0,0.0,0.0,0.0,0.0,0.0,0.0,0.0,0.0,0.0,0.0,0.0,0.0,0.0,0.0,0.0,0.0,0.0,0.0,0.0,0.0,0.0,0.0,0.0,-2.6056,-2.7601,-2.758,0.0,-2.7563,0.0,0.0,0.0,0.0,0.0,0.0,0.0,0.0,0.0,0.0,0.0,0.0,0.0,0.0,0.0,0.0,0.0,0.0,0.0,0.0,0.0,0.0,0.0,0.0,0.0,0.0,0.0,0.0,0.0,0.0,0.0,0.0,0.0,0.0,0.0,0.0,0.0,0.0,0.0,0.0,0.0,0.0,0.0,0.0,0.0,0.0,0.0,0.0,0.0,0.0,0.0,0.0,0.0,0.0,0.0,0.0,0.0,0.0,0.0,0.0,0.0,0.0,0.0,0.0,0.0,0.0,0.0,0.0,0.0,0.0,0.0,0.0,0.0,0.0,0.0,0.0,0.0,0.0,0.0,0.0,0.0,0.0,0.0,0.0,0.0,0.0,0.0,0.0,0.0,0.0,0.0,0.0,0.0,0.0,0.0,0.0,0.0,0.0,0.0,0.0,0.0,0.0,0.0,0.0,0.0,0.0,0.0,0.0,0.0,0.0,-2.7187,-2.789,-2.7379,-2.7023,0.0,0.0,0.0,0.0,0.0,0.0,0.0,0.0,0.0,0.0,0.0,0.0,0.0,0.0,0.0,0.0,0.0,0.0,0.0,0.0,0.0,0.0,0.0,0.0,0.0,0.0,0.0,0.0,0.0,0.0,0.0,0.0,0.0,0.0,0.0,0.0,0.0,0.0,0.0,0.0,0.0,0.0,0.0,0.0,0.0,0.0,0.0,0.0,0.0,0.0,0.0,0.0,0.0,0.0,0.0,0.0,0.0,0.0,0.0,0.0,0.0,0.0,0.0,0.0,0.0,0.0,0.0,0.0,0.0,0.0,0.0,0.0,0.0,0.0,0.0,0.0,0.0,0.0,0.0,0.0,0.0,0.0,0.0,0.0,0.0,0.0,0.0,0.0,0.0,0.0,0.0,0.0,0.0,0.0,0.0,0.0,0.0,0.0,0.0,0.0,0.0,0.0,0.0,0.0,0.0,0.0,0.0,0.0,0.0,0.0,-2.7231,-2.7827,-2.8437,-2.79,-2.7133,-2.6229,0.0,0.0,0.0,0.0,0.0,0.0,0.0,0.0,0.0,0.0,0.0,0.0,0.0,0.0,0.0,0.0,0.0,0.0,0.0,0.0,0.0,0.0,0.0,0.0,0.0,0.0,0.0,0.0,0.0,0.0,0.0,0.0,0.0,0.0,0.0,0.0,0.0,0.0,0.0,0.0,0.0,0.0,0.0,0.0,0.0,0.0,0.0,0.0,0.0,0.0,0.0,0.0,0.0,0.0,0.0,0.0,0.0,0.0,0.0,0.0,0.0,0.0,0.0,0.0,0.0,0.0,0.0,0.0,0.0,0.0,0.0,0.0,0.0,0.0,0.0,0.0,0.0,0.0,0.0,0.0,0.0,0.0,0.0,0.0,0.0,0.0,0.0,0.0,0.0,0.0,0.0,0.0,0.0,0.0,0.0,0.0,0.0,0.0,0.0,0.0,0.0,0.0,0.0,0.0,0.0,0.0,0.0,0.0,0.0,-2.7783,-2.7682,-2.9892,-2.9952,-2.876,0.0,0.0,0.0,0.0,0.0,0.0,0.0,0.0,0.0,0.0,0.0,0.0,0.0,0.0,0.0,0.0,0.0,0.0,0.0,0.0,0.0,0.0,0.0,0.0,0.0,0.0,0.0,0.0,0.0,0.0,0.0,0.0,0.0,0.0,0.0,0.0,0.0,0.0,0.0,0.0,0.0,0.0,0.0,0.0,0.0,0.0,0.0,0.0,0.0,0.0,0.0,0.0,0.0,0.0,0.0,0.0,0.0,0.0,0.0,0.0,0.0,0.0,0.0,0.0,0.0,0.0,0.0,0.0,0.0,0.0,0.0,0.0,0.0,0.0,0.0,0.0,0.0,0.0,0.0,0.0,0.0,0.0,0.0,0.0,0.0,0.0,0.0,0.0,0.0,0.0,0.0,0.0,0.0,0.0,0.0,0.0,0.0,0.0,0.0,0.0,0.0,0.0,0.0,0.0,0.0,0.0,0.0,0.0,0.0,-2.6835,-2.7178,-2.8387,-3.0442,-2.8714,-2.7094,0.0,0.0,0.0,0.0,0.0,0.0,0.0,0.0,0.0,0.0,0.0,0.0,0.0,0.0,0.0,0.0,0.0,0.0,0.0,0.0,0.0,0.0,0.0,0.0,0.0,0.0,0.0,0.0,0.0,0.0,0.0,0.0,0.0,0.0,0.0,0.0,0.0,0.0,0.0,0.0,0.0,0.0,0.0,0.0,0.0,0.0,0.0,0.0,0.0,0.0,0.0,0.0,0.0,0.0,0.0,0.0,0.0,0.0,0.0,0.0,0.0,0.0,0.0,0.0,0.0,0.0,0.0,0.0,0.0,0.0,0.0,0.0,0.0,0.0,0.0,0.0,0.0,0.0,0.0,0.0,0.0,0.0,0.0,0.0,0.0,0.0,0.0,0.0,0.0,0.0,0.0,0.0,0.0,0.0,0.0,0.0,0.0,0.0,0.0,0.0,0.0,0.0,0.0,0.0,0.0,0.0,0.0,0.0,0.0,-2.5808,0.0,-2.9064,0.0,-2.7622,-2.5755,0.0,0.0,0.0,0.0,0.0,0.0,0.0,0.0,0.0,0.0,0.0,0.0,0.0,0.0,0.0,0.0,0.0,0.0,0.0,0.0,0.0,0.0,0.0,0.0,0.0,0.0,0.0,0.0,0.0,0.0,0.0,0.0,0.0,0.0,0.0,0.0,0.0,0.0,0.0,0.0,0.0,0.0,0.0,0.0,0.0,0.0,0.0,0.0,0.0,0.0,0.0,0.0,0.0,0.0,0.0,0.0,0.0,0.0,0.0,0.0,0.0,0.0,0.0,0.0,0.0,0.0,0.0,0.0,0.0,0.0,0.0,0.0,0.0,0.0,0.0,0.0,0.0,0.0,0.0,0.0,0.0,0.0,0.0,0.0,0.0,0.0,0.0,0.0,0.0,0.0,0.0,0.0,0.0,0.0,0.0,0.0,0.0,0.0,0.0,0.0,0.0,0.0,0.0,0.0,0.0,0.0,0.0,0.0,-2.4964,-2.7297,-2.949,-2.9523,-2.7186,-2.7006,-2.5032,0.0,0.0,0.0,0.0,0.0,0.0,0.0,0.0,0.0,0.0,0.0,0.0,0.0,0.0,0.0,0.0,0.0,0.0,0.0,0.0,0.0,0.0,0.0,0.0,0.0,0.0,0.0,0.0,0.0,0.0,0.0,0.0,0.0,0.0,0.0,0.0,0.0,0.0,0.0,0.0,0.0,0.0,0.0,0.0,0.0,0.0,0.0,0.0,0.0,0.0,0.0,0.0,0.0,0.0,0.0,0.0,0.0,0.0,0.0,0.0,0.0,0.0,0.0,0.0,0.0,0.0,0.0,0.0,0.0,0.0,0.0,0.0,0.0,0.0,0.0,0.0,0.0,0.0,0.0,0.0,0.0,0.0,0.0,0.0,0.0,0.0,0.0,0.0,0.0,0.0,0.0,0.0,0.0,0.0,0.0,0.0,0.0,0.0,0.0,0.0,0.0,0.0,0.0,0.0,0.0,0.0,0.0,0.0,0.0,-2.6416,-2.8134,-2.9185,-2.9332,-2.6711,-2.541,0.0,0.0,0.0,0.0,0.0,0.0,0.0,0.0,0.0,0.0,0.0,0.0,0.0,0.0,0.0,0.0,0.0,0.0,0.0,0.0,0.0,0.0,0.0,0.0,0.0,0.0,0.0,0.0,0.0,0.0,0.0,0.0,0.0,0.0,0.0,0.0,0.0,0.0,0.0,0.0,0.0,0.0,0.0,0.0,0.0,0.0,0.0,0.0,0.0,0.0,0.0,0.0,0.0,0.0,0.0,0.0,0.0,0.0,0.0,0.0,0.0,0.0,0.0,0.0,0.0,0.0,0.0,0.0,0.0,0.0,0.0,0.0,0.0,0.0,0.0,0.0,0.0,0.0,0.0,0.0,0.0,0.0,0.0,0.0,0.0,0.0,0.0,0.0,0.0,0.0,0.0,0.0,0.0,0.0,0.0,0.0,0.0,0.0,0.0,0.0,0.0,0.0,0.0,0.0,0.0,0.0,0.0,0.0,0.0,-2.7632,-2.9081,-2.9908,-2.9946,-2.6902,-2.5523,-2.5976,0.0,0.0,0.0,0.0,0.0,0.0,0.0,0.0,0.0,0.0,0.0,0.0,0.0,0.0,0.0,0.0,0.0,0.0,0.0,0.0,0.0,0.0,0.0,0.0,0.0,0.0,0.0,0.0,0.0,0.0,0.0,0.0,0.0,0.0,0.0,0.0,0.0,0.0,0.0,0.0,0.0,0.0,0.0,0.0,0.0,0.0,0.0,0.0,0.0,0.0,0.0,0.0,0.0,0.0,0.0,0.0,0.0,0.0,0.0,0.0,0.0,0.0,0.0,0.0,0.0,0.0,0.0,0.0,0.0,0.0,0.0,0.0,0.0,0.0,0.0,0.0,0.0,0.0,0.0,0.0,0.0,0.0,0.0,0.0,0.0,0.0,0.0,0.0,0.0,0.0,0.0,0.0,0.0,0.0,0.0,0.0,0.0,0.0,0.0,0.0,0.0,0.0,0.0,0.0,0.0,0.0,0.0,0.0,-3.0393,-3.1977,-3.172,-2.9464,-2.7684,-2.568,0.0,0.0,0.0,0.0,0.0,0.0,0.0,0.0,0.0,0.0,0.0,0.0,0.0,0.0,0.0,0.0,0.0,0.0,0.0,0.0,0.0,0.0,0.0,0.0,0.0,0.0,0.0,0.0,0.0,0.0,0.0,0.0,0.0,0.0,0.0,0.0,0.0,0.0,0.0,0.0,0.0,0.0,0.0,0.0,0.0,0.0,0.0,0.0,0.0,0.0,0.0,0.0,0.0,0.0,0.0,0.0,0.0,0.0,0.0,0.0,0.0,0.0,0.0,0.0,0.0,0.0,0.0,0.0,0.0,0.0,0.0,0.0,0.0,0.0,0.0,0.0,0.0,0.0,0.0,0.0,0.0,0.0,0.0,0.0,0.0,0.0,0.0,0.0,0.0,0.0,0.0,0.0,0.0,0.0,0.0,0.0,0.0,0.0,0.0,0.0,0.0,0.0,0.0,0.0,0.0,0.0,0.0,0.0,0.0,-3.2779,-3.4468,-3.4711,-3.3426,-3.0202,-2.8393,0.0,0.0,0.0,0.0,0.0,0.0,0.0,0.0,0.0,0.0,0.0,0.0,0.0,0.0,0.0,0.0,0.0,0.0,0.0,0.0,0.0,0.0,0.0,0.0,0.0,0.0,0.0,0.0,0.0,0.0,0.0,0.0,0.0,0.0,0.0,0.0,0.0,0.0,0.0,0.0,0.0,0.0,0.0,0.0,0.0,0.0,0.0,0.0,0.0,0.0,0.0,0.0,0.0,0.0,0.0,0.0,0.0,0.0,0.0,0.0,0.0,0.0,0.0,0.0,0.0,0.0,0.0,0.0,0.0,0.0,0.0,0.0,0.0,0.0,0.0,0.0,0.0,0.0,0.0,0.0,0.0,0.0,0.0,0.0,0.0,0.0,0.0,0.0,0.0,0.0,0.0,0.0,0.0,0.0,0.0,0.0,0.0,0.0,0.0,0.0,0.0,0.0,0.0,0.0,0.0,0.0,0.0,0.0,-3.1408,-3.4266,-3.6285,-3.6909,-3.6083,-3.2836,-3.0466,0.0,0.0,0.0,0.0,0.0,0.0,0.0,0.0,0.0,0.0,0.0,0.0,0.0,0.0,0.0,0.0,0.0,0.0,0.0,0.0,0.0,0.0,0.0,0.0,0.0,0.0,0.0,0.0,0.0,0.0,0.0,0.0,0.0,0.0,0.0,0.0,0.0,0.0,0.0,0.0,0.0,0.0,0.0,0.0,0.0,0.0,0.0,0.0,0.0,0.0,0.0,0.0,0.0,0.0,0.0,0.0,0.0,0.0,0.0,0.0,0.0,0.0,0.0,0.0,0.0,0.0,0.0,0.0,0.0,0.0,0.0,0.0,0.0,0.0,0.0,0.0,0.0,0.0,0.0,0.0,0.0,0.0,0.0,0.0,0.0,0.0,0.0,0.0,0.0,0.0,0.0,0.0,0.0,0.0,0.0,0.0,0.0,0.0,0.0,0.0,0.0,0.0,0.0,0.0,0.0,0.0,0.0,0.0,-3.2614,-3.5096,-3.7481,-3.834,-3.7603,-3.5055,-3.1916,0.0,0.0,0.0,0.0,0.0,0.0,0.0,0.0,0.0,0.0,0.0,0.0,0.0,0.0,0.0,0.0,0.0,0.0,0.0,0.0,0.0,0.0,0.0,0.0,0.0,0.0,0.0,0.0,0.0,0.0,0.0,0.0,0.0,0.0,0.0,0.0,0.0,0.0,0.0,0.0,0.0,0.0,0.0,0.0,0.0,0.0,0.0,0.0,0.0,0.0,0.0,0.0,0.0,0.0,0.0,0.0,0.0,0.0,0.0,0.0,0.0,0.0,0.0,0.0,0.0,0.0,0.0,0.0,0.0,0.0,0.0,0.0,0.0,0.0,0.0,0.0,0.0,0.0,0.0,0.0,0.0,0.0,0.0,0.0,0.0,0.0,0.0,0.0,0.0,0.0,0.0,0.0,0.0,0.0,0.0,0.0,0.0,0.0,0.0,0.0,0.0,0.0,0.0,0.0,0.0,0.0,0.0,0.0,-3.2921,-3.5954,-3.7771,-3.8615,-3.8432,-3.4816,-3.1849,0.0,0.0,0.0,0.0,0.0,0.0,0.0,0.0,0.0,0.0,0.0,0.0,0.0,0.0,0.0,0.0,0.0,0.0,0.0,0.0,0.0,0.0,0.0,0.0,0.0,0.0,0.0,0.0,0.0,0.0,0.0,0.0,0.0,0.0,0.0,0.0,0.0,0.0,0.0,0.0,0.0,0.0,0.0,0.0,0.0,0.0,0.0,0.0,-1.5847,0.0,0.0,0.0,0.0,0.0,0.0,0.0,0.0,0.0,0.0,0.0,0.0,0.0,0.0,0.0,0.0,0.0,0.0,0.0,0.0,0.0,0.0,0.0,0.0,0.0,0.0,0.0,0.0,0.0,0.0,0.0,0.0,0.0,0.0,0.0,0.0,0.0,0.0,0.0,0.0,0.0,0.0,0.0,0.0,0.0,0.0,0.0,0.0,0.0,0.0,0.0,0.0,0.0,0.0,0.0,0.0,0.0,0.0,0.0,-3.355,-3.6776,-3.8065,-3.8707,-3.8579,-3.5463,-3.2601,0.0,0.0,0.0,0.0,0.0,0.0,0.0,0.0,0.0,0.0,0.0,0.0,0.0,0.0,0.0,0.0,0.0,0.0,0.0,0.0,0.0,0.0,0.0,0.0,0.0,0.0,0.0,0.0,0.0,0.0,0.0,0.0,0.0,0.0,0.0,0.0,0.0,0.0,0.0,0.0,0.0,0.0,0.0,0.0,0.0,0.0,0.0,0.0,0.0,0.0,0.0,0.0,0.0,0.0,0.0,0.0,0.0,0.0,0.0,0.0,0.0,0.0,0.0,0.0,0.0,0.0,0.0,0.0,0.0,0.0,0.0,0.0,0.0,0.0,0.0,0.0,0.0,0.0,0.0,0.0,0.0,0.0,0.0,0.0,0.0,0.0,0.0,0.0,0.0,0.0,0.0,0.0,0.0,0.0,0.0,0.0,0.0,0.0,0.0,0.0,0.0,0.0,0.0,0.0,0.0,0.0,0.0,-3.1555,-3.4192,-3.7364,-3.8267,-3.8634,-3.8487,-3.6362,-3.3628,-3.0356,0.0,0.0,0.0,0.0,0.0,0.0,0.0,0.0,0.0,0.0,0.0,0.0,0.0,0.0,0.0,0.0,0.0,0.0,0.0,0.0,0.0,0.0,0.0,0.0,0.0,0.0,0.0,0.0,0.0,0.0,0.0,0.0,0.0,0.0,0.0,0.0,0.0,0.0,-1.586,-1.8235,0.0,0.0,0.0,0.0,0.0,0.0,0.0,0.0,-1.7278,0.0,0.0,0.0,0.0,0.0,0.0,0.0,0.0,0.0,0.0,0.0,0.0,0.0,0.0,0.0,0.0,0.0,0.0,0.0,0.0,0.0,0.0,0.0,0.0,0.0,0.0,0.0,0.0,0.0,0.0,0.0,0.0,0.0,0.0,0.0,0.0,0.0,0.0,0.0,0.0,0.0,0.0,0.0,0.0,0.0,0.0,0.0,0.0,0.0,0.0,0.0,0.0,0.0,0.0,0.0,0.0,-3.1922,-3.2399,-3.4192,-3.7419,-3.8285,-3.8377,-3.7713,-3.6633,-3.4229,-3.0393,0.0,0.0,0.0,0.0,0.0,0.0,0.0,0.0,0.0,0.0,0.0,0.0,0.0,0.0,0.0,0.0,0.0,0.0,0.0,0.0,0.0,0.0,0.0,0.0,0.0,0.0,0.0,0.0,0.0,0.0,0.0,0.0,0.0,0.0,0.0,0.0,0.0,0.0,0.0,-2.0841,-2.1877,0.0,0.0,0.0,0.0,0.0,0.0,0.0,0.0,-1.7289,0.0,0.0,0.0,0.0,0.0,0.0,0.0,0.0,0.0,0.0,0.0,0.0,0.0,0.0,0.0,0.0,0.0,0.0,0.0,0.0,0.0,0.0,0.0,0.0,0.0,0.0,0.0,0.0,0.0,0.0,0.0,0.0,0.0,0.0,0.0,0.0,0.0,0.0,0.0,0.0,0.0,0.0,0.0,0.0,0.0,0.0,0.0,0.0,0.0,0.0,0.0,0.0,0.0,0.0,0.0,-3.1733,-3.3206,-3.5224,-3.801,-3.8505,-3.8322,-3.7492,-3.5895,-3.3495,0.0,0.0,0.0,0.0,0.0,0.0,0.0,0.0,0.0,0.0,0.0,0.0,0.0,0.0,0.0,0.0,0.0,0.0,0.0,0.0,0.0,0.0,0.0,0.0,0.0,0.0,0.0,0.0,0.0,0.0,0.0,0.0,0.0,0.0,0.0,0.0,0.0,0.0,0.0,0.0,-2.1988,-2.2635,-2.2969,0.0,0.0,0.0,0.0,0.0,0.0,-1.8978,-1.8133,0.0,0.0,0.0,0.0,0.0,0.0,0.0,0.0,0.0,0.0,0.0,0.0,0.0,0.0,0.0,0.0,0.0,0.0,0.0,0.0,0.0,0.0,0.0,0.0,0.0,0.0,0.0,0.0,0.0,0.0,0.0,0.0,0.0,0.0,0.0,0.0,0.0,0.0,0.0,0.0,0.0,0.0,0.0,0.0,0.0,0.0,0.0,0.0,0.0,0.0,0.0,0.0,0.0,0.0,0.0,-3.1323,-3.3623,-3.6032,-3.856,-3.8542,-3.8065,-3.7254,-3.5014,-3.2596,0.0,0.0,0.0,0.0,0.0,0.0,0.0,0.0,0.0,0.0,0.0,0.0,0.0,0.0,0.0,0.0,0.0,0.0,0.0,0.0,0.0,0.0,0.0,0.0,0.0,0.0,0.0,0.0,0.0,0.0,0.0,0.0,0.0,0.0,0.0,0.0,0.0,0.0,0.0,0.0,0.0,-2.3373,-2.3043,-2.2446,0.0,0.0,0.0,0.0,-2.126,-2.077,0.0,0.0,0.0,0.0,0.0,0.0,0.0,0.0,0.0,0.0,0.0,0.0,0.0,0.0,0.0,0.0,0.0,0.0,0.0,0.0,0.0,0.0,0.0,0.0,0.0,0.0,0.0,0.0,0.0,0.0,0.0,0.0,0.0,0.0,0.0,0.0,0.0,0.0,0.0,0.0,0.0,0.0,0.0,0.0,0.0,0.0,0.0,0.0,0.0,0.0,0.0,0.0,0.0,0.0,0.0,0.0,-3.125,-3.3073,-3.5477,-3.8469,-3.7991,-3.7254,-3.645,-3.4724,-3.2326,0.0,0.0,0.0,0.0,0.0,0.0,0.0,0.0,0.0,0.0,0.0,0.0,0.0,0.0,0.0,0.0,0.0,0.0,0.0,0.0,0.0,0.0,0.0,0.0,0.0,0.0,0.0,0.0,0.0,0.0,0.0,0.0,0.0,0.0,0.0,0.0,0.0,0.0,0.0,0.0,0.0,-2.4593,-2.3189,-2.2923,-2.2832,0.0,0.0,-2.285,-2.3676,-2.3704,0.0,0.0,0.0,0.0,0.0,0.0,0.0,0.0,0.0,0.0,0.0,0.0,0.0,0.0,0.0,0.0,0.0,0.0,0.0,0.0,0.0,0.0,0.0,0.0,0.0,0.0,0.0,0.0,0.0,0.0,0.0,0.0,0.0,0.0,0.0,0.0,0.0,0.0,0.0,0.0,0.0,0.0,0.0,0.0,0.0,0.0,0.0,0.0,0.0,0.0,0.0,0.0,0.0,0.0,0.0,-2.7255,-3.0687,-3.3697,-3.6119,-3.7918,-3.7694,-3.7107,-3.6303,-3.3788,-3.1146,0.0,0.0,0.0,0.0,0.0,0.0,0.0,0.0,0.0,0.0,0.0,0.0,0.0,0.0,0.0,0.0,0.0,0.0,0.0,0.0,0.0,0.0,0.0,0.0,0.0,0.0,0.0,0.0,0.0,0.0,0.0,0.0,0.0,0.0,0.0,0.0,0.0,0.0,0.0,0.0,0.0,0.0,-2.3768,-2.408,0.0,0.0,0.0,-2.3979,-2.4807,0.0,0.0,0.0,0.0,0.0,0.0,0.0,0.0,0.0,0.0,0.0,0.0,0.0,0.0,0.0,0.0,0.0,0.0,0.0,0.0,0.0,0.0,0.0,0.0,0.0,0.0,0.0,0.0,0.0,0.0,0.0,0.0,0.0,0.0,0.0,0.0,0.0,0.0,0.0,0.0,0.0,0.0,0.0,0.0,0.0,0.0,0.0,0.0,0.0,0.0,0.0,0.0,0.0,0.0,0.0,0.0,0.0,-3.021,-3.4229,-3.667,-3.7456,-3.7198,-3.6768,-3.6109,-3.2985,0.0,0.0,0.0,0.0,0.0,0.0,0.0,0.0,0.0,0.0,0.0,0.0,0.0,0.0,0.0,0.0,0.0,0.0,0.0,0.0,0.0,0.0,0.0,0.0,0.0,0.0,0.0,-1.0557,0.0,0.0,0.0,0.0,0.0,0.0,0.0,0.0,0.0,0.0,0.0,0.0,0.0,0.0,-2.4341,-2.4217,-2.5167,-2.5873,0.0,0.0,-2.5026,-2.5663,-2.5229,-2.3712,0.0,0.0,0.0,0.0,0.0,0.0,0.0,0.0,0.0,0.0,0.0,0.0,0.0,0.0,0.0,0.0,0.0,0.0,0.0,0.0,0.0,0.0,0.0,0.0,0.0,0.0,0.0,0.0,0.0,0.0,0.0,0.0,0.0,0.0,0.0,0.0,0.0,0.0,0.0,0.0,0.0,0.0,0.0,0.0,0.0,0.0,0.0,0.0,0.0,0.0,0.0,0.0,0.0,0.0,0.0,-3.0246,-3.4211,-3.6652,-3.7404,-3.6398,-3.5807,-3.568,-3.2611,-2.9715,0.0,0.0,0.0,0.0,0.0,0.0,0.0,0.0,0.0,0.0,0.0,0.0,0.0,0.0,0.0,0.0,0.0,0.0,0.0,0.0,0.0,0.0,0.0,0.0,0.0,0.0,0.0,0.0,0.0,0.0,0.0,0.0,0.0,0.0,0.0,0.0,0.0,0.0,0.0,0.0,0.0,-2.4693,-2.4271,-2.5962,-2.7077,0.0,0.0,-2.6465,-2.6521,-2.6455,-2.5336,-2.2143,0.0,0.0,0.0,0.0,0.0,0.0,0.0,0.0,0.0,0.0,0.0,0.0,0.0,0.0,0.0,0.0,0.0,0.0,0.0,0.0,0.0,0.0,0.0,0.0,0.0,0.0,0.0,0.0,0.0,0.0,0.0,0.0,0.0,0.0,0.0,0.0,0.0,0.0,0.0,0.0,0.0,0.0,0.0,0.0,0.0,0.0,0.0,0.0,0.0,0.0,0.0,0.0,0.0,-2.7053,-2.9464,-3.2944,-3.5062,-3.5599,-3.5205,-3.4855,-3.4666,-3.205,-2.9486,0.0,0.0,0.0,0.0,0.0,0.0,0.0,0.0,0.0,0.0,0.0,0.0,0.0,0.0,0.0,0.0,0.0,0.0,0.0,0.0,0.0,0.0,0.0,0.0,0.0,0.0,0.0,0.0,-1.4028,-1.4125,-1.3627,0.0,0.0,0.0,0.0,0.0,0.0,0.0,0.0,0.0,0.0,-2.465,-2.4482,-2.5979,0.0,0.0,-2.6483,-2.6688,-2.6402,-2.5892,-2.4704,-2.2217,-2.0647,0.0,0.0,0.0,0.0,0.0,0.0,0.0,0.0,0.0,0.0,0.0,0.0,0.0,0.0,0.0,0.0,0.0,0.0,0.0,0.0,0.0,0.0,0.0,0.0,0.0,0.0,0.0,0.0,0.0,0.0,0.0,0.0,0.0,0.0,0.0,0.0,0.0,0.0,0.0,0.0,0.0,0.0,0.0,0.0,0.0,0.0,0.0,0.0,0.0,0.0,0.0,0.0,-2.6771,-2.8821,-3.2263,-3.4113,-3.4339,-3.4247,-3.4087,-3.3786,-3.1568,-2.9184,0.0,0.0,0.0,0.0,0.0,0.0,0.0,0.0,0.0,0.0,0.0,0.0,0.0,0.0,0.0,0.0,0.0,0.0,0.0,0.0,0.0,0.0,0.0,0.0,0.0,0.0,0.0,0.0,-1.5509,-1.519,-1.3921,0.0,0.0,0.0,0.0,0.0,0.0,0.0,0.0,0.0,0.0,-2.4319,-2.4866,-2.6014,-2.6735,-2.6519,-2.672,-2.6731,-2.6165,-2.5541,-2.4421,-2.227,0.0,0.0,0.0,0.0,0.0,0.0,0.0,0.0,0.0,0.0,0.0,0.0,0.0,0.0,0.0,0.0,0.0,0.0,0.0,0.0,0.0,0.0,0.0,0.0,0.0,0.0,0.0,0.0,0.0,0.0,-2.2712,0.0,0.0,0.0,0.0,0.0,0.0,0.0,0.0,0.0,0.0,0.0,0.0,0.0,0.0,0.0,0.0,0.0,0.0,0.0,0.0,0.0,0.0,-2.7191,-2.8525,-3.2379,-3.4287,-3.3987,-3.3669,-3.3495,-3.3442,-3.1229,-2.8792,-2.6174,0.0,0.0,0.0,0.0,0.0,0.0,0.0,0.0,0.0,0.0,0.0,0.0,0.0,0.0,0.0,0.0,0.0,0.0,0.0,0.0,0.0,0.0,0.0,0.0,0.0,0.0,-1.6725,-1.6145,-1.4786,0.0,0.0,0.0,0.0,0.0,0.0,0.0,0.0,0.0,0.0,-2.2154,-2.3714,-2.5524,-2.6242,-2.695,-2.7834,-2.7366,-2.664,-2.5943,-2.5722,-2.4895,0.0,0.0,0.0,0.0,0.0,0.0,0.0,0.0,0.0,0.0,0.0,0.0,0.0,0.0,0.0,0.0,0.0,0.0,0.0,0.0,0.0,0.0,0.0,0.0,0.0,0.0,0.0,-2.6713,-2.5646,0.0,0.0,0.0,0.0,0.0,0.0,0.0,0.0,0.0,0.0,0.0,-2.9113,-2.918,0.0,0.0,0.0,0.0,0.0,0.0,0.0,0.0,0.0,0.0,0.0,0.0,-2.6243,-2.8273,-3.1091,-3.2654,-3.2858,-3.2756,-3.2599,-3.2366,-3.1133,-2.8846,-2.5454,0.0,0.0,0.0,0.0,0.0,0.0,0.0,0.0,0.0,0.0,0.0,0.0,0.0,0.0,0.0,0.0,0.0,0.0,0.0,0.0,0.0,0.0,0.0,0.0,0.0,-1.6041,0.0,0.0,0.0,0.0,0.0,0.0,0.0,0.0,0.0,0.0,0.0,-2.0799,-2.1986,-2.3827,-2.5285,-2.592,-2.6611,-2.6996,0.0,0.0,0.0,0.0,0.0,0.0,0.0,0.0,0.0,0.0,0.0,0.0,0.0,0.0,-2.2324,-1.9381,-1.8189,-1.771,-1.7874,0.0,0.0,0.0,0.0,0.0,0.0,0.0,0.0,0.0,0.0,0.0,0.0,0.0,0.0,-2.9585,0.0,-2.8425,0.0,0.0,0.0,0.0,0.0,0.0,0.0,0.0,-3.0249,-3.1324,-3.1635,-3.1934,-3.1655,0.0,-2.9546,-2.7493,0.0,0.0,0.0,0.0,0.0,0.0,0.0,0.0,-2.6383,-2.833,-3.0637,-3.1943,-3.2109,-3.2144,-3.202,-3.1784,-3.08,-2.8868,-2.5902,-2.3578,-2.1664,0.0,0.0,0.0,0.0,0.0,0.0,0.0,0.0,0.0,0.0,0.0,0.0,0.0,0.0,0.0,0.0,0.0,0.0,0.0,0.0,0.0,0.0,0.0,-1.694,0.0,0.0,0.0,0.0,0.0,0.0,0.0,0.0,0.0,-1.8064,-2.0215,-2.2066,-2.297,-2.4353,-2.5491,-2.604,0.0,0.0,0.0,0.0,0.0,0.0,0.0,-2.5268,-2.5438,-2.4633,-2.3857,-2.3523,-2.4171,-2.4645,-2.4327,0.0,0.0,-2.148,-2.0433,-2.0002,-2.0437,-2.0776,-2.1115,-2.1525,-2.2154,-2.2464,0.0,0.0,0.0,0.0,0.0,0.0,0.0,0.0,-3.174,-3.206,0.0,-3.1111,0.0,0.0,0.0,0.0,0.0,0.0,0.0,0.0,-3.4197,-3.5542,-3.4303,-3.4251,-3.4197,-3.4111,-3.3283,-3.1714,-2.9385,-2.4742,0.0,0.0,0.0,0.0,0.0,0.0,-2.7547,-2.8854,-3.1093,-3.2126,-3.1818,-3.18,-3.1801,-3.1765,-3.0334,-2.8885,-2.7368,-2.5146,-2.3216,-2.1699,-1.9527,0.0,0.0,0.0,0.0,0.0,0.0,0.0,0.0,0.0,0.0,0.0,0.0,0.0,0.0,0.0,0.0,0.0,0.0,0.0,0.0,-1.8794,0.0,0.0,0.0,0.0,0.0,0.0,0.0,0.0,0.0,0.0,-1.9843,-2.0916,-2.2268,-2.3698,0.0,0.0,0.0,0.0,-2.5626,-2.7057,-2.7282,-2.704,-2.6264,-2.673,-2.6745,-2.5348,0.0,0.0,-2.4301,-2.4557,-2.4399,-2.2246,-2.3118,-2.424,-2.5412,-2.3655,-2.2444,-2.3069,-2.2772,-2.2806,-2.3526,-2.3866,-2.4134,-3.927,0.0,0.0,0.0,0.0,-3.4854,-3.5898,-3.8319,-3.7835,-3.6858,-3.5547,-3.4618,0.0,0.0,0.0,0.0,0.0,0.0,-3.2524,-3.4369,-3.5714,-3.6663,-3.7301,-3.7214,-3.662,-3.5576,-3.4699,-3.3428,-3.1826,-2.9764,-2.6797,-2.3059,0.0,0.0,0.0,0.0,-2.7867,-2.9313,-3.1045,-3.1893,-3.18,-3.18,-3.18,-3.18,-3.0851,-2.9886,-2.8903,-2.7115,-2.524,-2.325,-2.1446,0.0,0.0,0.0,0.0,0.0,0.0,0.0,0.0,0.0,0.0,0.0,0.0,0.0,0.0,0.0,0.0,0.0,0.0,0.0,-1.7147,-1.7851,-1.8066,0.0,0.0,0.0,0.0,0.0,0.0,0.0,0.0,0.0,-2.2505,-2.3877,-2.4974,0.0,0.0,-2.6454,-2.6902,-2.6797,-2.6799,-2.7213,0.0,0.0,0.0,-2.6661,-2.6506,-2.6609,-2.7006,-2.7057,-2.6402,-2.6023,-2.5764,-2.5592,-2.5109,-2.4804,-2.5049,-2.4242,-2.3358,-2.3214,-2.3041,-2.3305,-2.4349,-2.4718,-2.4832,-4.3914,-4.0646,-3.8577,-3.8444,-3.9529,-3.8667,-3.9546,-4.1593,-4.0865,-4.013,-3.94,-3.8095,-3.6101,-3.3654,-3.1815,0.0,0.0,0.0,-3.4731,-3.6801,-3.7387,-3.8146,-3.9008,-3.8906,-3.8357,-3.7504,-3.6583,-3.5433,-3.4059,-3.3481,-3.1076,-2.7013,0.0,0.0,-2.568,-2.7627,-2.923,-3.0403,-3.161,-3.2231,-3.2231,-3.1955,-3.18,-3.18,-3.1369,-3.061,-2.9524,-2.8301,-2.6719,-2.4758,-2.3182,-2.1323,0.0,0.0,0.0,0.0,0.0,0.0,0.0,0.0,0.0,0.0,0.0,-1.3094,-1.1804,0.0,0.0,0.0,-1.6645,-1.7833,-1.8609,-1.9199,0.0,0.0,0.0,0.0,0.0,0.0,0.0,-2.2246,-2.3005,-2.3698,-2.4612,-2.5801,-2.6471,-2.6128,-2.6523,-2.6937,-2.7264,0.0,-2.6937,-2.7247,-2.7315,-2.7315,-2.7315,-2.6902,-2.6747,-2.7213,-2.7315,-2.7177,-2.6851,-2.6387,-2.6195,-2.6247,-2.5868,-2.5335,-2.5057,-2.4801,-2.4559,-2.4138,-2.435,-2.4828,-2.5407,-2.5546,-2.552,-4.7597,-4.6718,-4.3978,-4.2743,-4.2668,-4.2591,-4.2557,-4.2506,-4.1863,-4.2269,-4.3206,-4.1221,-3.9851,-3.8918,-3.5713,0.0,-3.5489,-3.6354,-3.7146,-3.7909,-3.9267,-3.9836,-3.9778,-3.9639,-3.9534,-3.9448,-3.8647,-3.7524,-3.6085,-3.6051,-3.463,-3.1871,-3.043,-2.9368,-2.8799,-3.0144,-3.1231,-3.1972,-3.2645,-3.2955,-3.2886,-3.2179,-3.18,-3.18,-3.1748,-3.1007,-2.9575,-2.8765,-2.7629,-2.6,-2.4672,-2.288,-2.0522,0.0,0.0,0.0,0.0,0.0,0.0,0.0,0.0,0.0,0.0,0.0,0.0,0.0,0.0,0.0,-1.8885,0.0,-2.1394,-2.1907,0.0,0.0,0.0,-2.09,-2.1022,-2.2076,-2.3095,-2.3888,0.0,0.0,-2.618,0.0,-2.7023,-2.6283,-2.6197,-2.6471,-2.7194,-2.6695,-2.6471,-2.7195,-2.7315,-2.7315,-2.7315,-2.7264,-2.7247,-2.7297,-2.7315,-2.7057,-2.6439,-2.6281,-2.5921,-2.5488,-2.5764,-2.5973,-2.5229,-2.5663,-2.6044,-2.555,-2.6038,-2.6529,-2.6177,-2.6259,-2.603,-4.8646,-4.8409,-4.7699,-4.6769,-4.5686,-4.5128,-4.4891,-4.4874,-4.4705,-4.4153,-4.3325,-4.2252,-4.1103,-3.9957,-3.9313,-3.9431,-4.0175,-4.049,-4.0733,-4.0963,-4.1285,-4.1099,-4.047,-4.0316,-3.9904,-3.9272,-3.8948,-3.8058,-3.6724,-3.6639,-3.5771,-3.4151,-3.3659,-3.2613,-3.111,-3.1903,-3.2748,-3.3542,-3.3714,-3.3507,-3.2904,-3.2179,-3.18,-3.18,-3.1266,-3.0489,-2.9524,-2.8749,-2.7373,-2.539,-2.5339,-2.4357,-2.2078,-2.0533,0.0,0.0,0.0,0.0,0.0,0.0,0.0,0.0,0.0,-1.7124,-1.392,0.0,-1.8137,0.0,-1.9767,-2.1133,-2.1936,-2.1969,0.0,0.0,-2.2576,-2.2695,-2.3836,-2.3726,-2.406,-2.5404,-2.587,-2.6333,-2.6954,-2.7178,-2.723,-2.704,-2.7006,-2.7092,-2.7264,-2.7159,-2.7075,-2.7247,-2.7315,-2.7315,-2.7315,-2.7315,-2.7315,-2.7315,-2.7315,-2.723,-2.704,-2.7023,-2.6937,-2.6799,-2.6868,-2.6695,-2.5988,-2.6488,-2.6766,-2.6384,-2.5869,-2.5547,-2.5811,-2.5967,-2.6014,-4.9018,-4.9018,-4.9018,-4.8528,-4.7716,-4.6989,-4.6684,-4.6667,-4.6329,-4.5534,-4.435,-4.3366,-4.237,-4.1443,-4.1652,-4.195,-4.2335,-4.246,-4.2551,-4.2516,-4.2171,-4.1719,-4.1177,-4.0712,-4.0214,-3.9693,-3.9553,-3.8918,-3.7865,-3.7455,-3.6763,-3.5786,-3.5397,-3.4682,-3.3711,-3.3748,-3.4026,-3.4499,-3.4499,-3.3985,-3.2938,-3.2507,-3.1972,-3.1335,-3.0921,-3.0144,-2.9058,-2.8593,-2.7579,-2.6031,-2.5939,-2.5178,-2.3514,-2.203,-2.0675,0.0,0.0,0.0,0.0,0.0,0.0,0.0,0.0,0.0,0.0,0.0,-1.9285,0.0,-2.1472,-2.2717,-2.3511,-2.3715,-2.3958,-2.4444,-2.4645,-2.4954,-2.5436,-2.5419,-2.568,-2.654,-2.6644,-2.6799,-2.7263,-2.7315,-2.742,-2.7746,-2.7799,-2.7661,-2.7351,-2.7315,-2.7315,-2.7315,-2.7315,-2.7315,-2.7315,-2.7315,-2.7315,-2.7315,-2.7315,-2.7315,-2.7315,-2.7315,-2.7315,-2.7315,-2.7315,-2.7194,-2.6747,-2.6971,-2.7187,-2.6929,-2.6452,-2.6136,-2.6246,-2.6675,-2.7031,-4.9086,-4.9018,-4.9103,-4.9086,-4.8951,-4.8325,-4.7973,-4.7855,-4.7225,-4.6464,-4.5647,-4.451,-4.3685,-4.3134,-4.3229,-4.3322,-4.3322,-4.3432,-4.3431,-4.3293,-4.2509,-4.2022,-4.1753,-4.0893,-4.0429,-4.028,-4.0163,-3.974,-3.8988,-3.8362,-3.7648,-3.6899,-3.6254,-3.5941,-3.5937,-3.5322,-3.5044,-3.5132,-3.505,-3.4335,-3.3074,-3.2955,-3.2196,-3.0782,-3.0714,-2.9972,-2.8472,-2.8386,-2.7991,-2.7137,-2.6469,-2.5723,-2.4902,-2.3551,-2.2381,0.0,-2.0098,0.0,0.0,0.0,0.0,0.0,0.0,0.0,0.0,-1.9981,-2.0633,-2.2018,-2.3409,-2.4549,-2.5313,-2.5813,-2.5902,-2.5419,-2.6506,-2.7006,-2.6385,-2.6885,-2.7315,-2.7315,-2.7315,-2.7332,-2.747,-2.742,-2.7713,-2.8385,-2.8541,-2.8334,-2.7747,-2.7558,-2.7506,-2.7435,-2.7351,-2.7315,-2.7315,-2.7315,-2.7315,-2.7315,-2.7315,-2.7315,-2.7315,-2.7315,-2.7315,-2.7315,-2.7315,-2.7297,-2.7282,-2.7297,-2.7315,-2.7279,-2.7211,-2.7154,-2.7128,-2.7655,-2.8012,-4.9543,-4.9069,-4.9644,-4.9543,-4.8984,-4.8849,-4.846,-4.7889,-4.7767,-4.7014,-4.5886,-4.5826,-4.5414,-4.4799,-4.4905,-4.494,-4.4957,-4.4983,-4.4665,-4.4052,-4.3201,-4.2371,-4.1612,-4.0728,-4.0263,-4.0138,-4.0096,-3.9698,-3.8988,-3.8853,-3.8115,-3.6835,-3.6666,-3.6356,-3.5856,0.0,0.0,0.0,-3.5282,-3.4586,-3.3751,-3.3193,-3.2196,-3.0783,-3.0714,0.0,-2.8423,-2.832,-2.7926,-2.7075,-2.6855,0.0,0.0,0.0,0.0,0.0,0.0,0.0,0.0,0.0,0.0,0.0,-2.2582,-2.2353,-2.2061,-2.3185,-2.3795,-2.3525,-2.4299,-2.5132,-2.5858,-2.6036,-2.6316,-2.6816,-2.7126,-2.7213,-2.7092,-2.723,-2.7315,-2.7315,-2.7332,-2.7556,-2.8092,-2.8196,-2.8472,-2.9179,-2.9282,-2.9248,-2.911,-2.8575,-2.8213,-2.8161,-2.7678,-2.7332,-2.7315,-2.7315,-2.7315,-2.7315,-2.7315,-2.7315,-2.7315,-2.7315,-2.7315,-2.7315,-2.7315,-2.7315,-2.7315,-2.7315,-2.7315,-2.7315,-2.7315,-2.7415,-2.7786,-2.7861,-2.798,-4.9661,0.0,-4.9779,-4.9678,0.0,-4.9018,-4.8798,-4.8443,-4.8521,-4.8056,-4.7199,-4.658,-4.6158,-4.5868,-4.5543,-4.5414,-4.5414,-4.5327,-4.5094,-4.4698,-4.3829,-4.3168,-4.2585,-4.141,-4.0773,-4.0637,-4.0299,-3.9926,-3.9529,-3.9174,-3.8616,-3.7895,-3.7168,-3.6632,-3.6288,-3.5831,-3.5734,-3.6014,-3.5664,-3.5183,-3.4547,-3.385,-3.2766,-3.13,0.0,0.0,0.0,0.0,0.0,0.0,0.0,0.0,0.0,0.0,0.0,-2.5032,-2.4323,-2.3746,-2.3422,-2.3742,-2.4316,-2.506,-2.5917,-2.5666,-2.3935,-2.4873,-2.5385,-2.5008,-2.5988,-2.6833,-2.7195,-2.7575,-2.7937,-2.8334,-2.8385,-2.8385,-2.8385,-2.8385,-2.8385,-2.8385,-2.8385,-2.8541,-2.8885,-2.8937,-2.9265,-2.9955,-3.0093,-3.0231,-3.0455,-2.9644,-2.8851,-2.8454,-2.7782,-2.7332,-2.7315,-2.7315,-2.7315,-2.7315,-2.7315,-2.7315,-2.7315,-2.7315,-2.7315,-2.7315,-2.7315,-2.7315,-2.7315,-2.7315,-2.7315,-2.7315,-2.7315,-2.7421,-2.7811,-2.7897,-2.8065,-4.9661,-4.9086,-4.9796,-4.9678,-4.9018,-4.9032,-4.9046,-4.9107,0.0,0.0,0.0,-4.7281,-4.6694,-4.6552,-4.5897,-4.5535,-4.5397,-4.5274,-4.523,-4.5169,-4.4306,-4.3849,-4.3603,-4.2098,-4.129,-4.1153,-4.0468,-4.0113,-4.0079,-3.9478,-3.9123,-3.8886,-3.7777,-3.7066,-3.6778,-3.6034,-3.5756,-3.5997,-3.6014,-3.5724,-3.5177,-3.4594,-3.3509,-3.1834,-3.0713,-2.9592,-2.8493,-2.7944,-2.7637,-2.7538,-2.6757,-2.6656,-2.7386,-2.6657,-2.6471,-2.7046,-2.7114,-2.6826,-2.6252,-2.6759,-2.7114,-2.7131,-2.8389,-2.822,-2.5939,-2.635,-2.6697,-2.6713,-2.7868,-2.8592,-2.8592,-2.911,-2.9506,-2.9506,-2.9506,-2.9489,-2.9489,-2.9506,-2.9437,-2.9506,-2.9437,-2.9558,-2.9696,-2.973,-3.0006,-3.0679,-3.0886,-3.1058,-3.1472,-3.0558,-2.9403,-2.8541,-2.792,-2.7489,-2.7332,-2.7315,-2.7315,-2.7315,-2.7315,-2.7315,-2.7315,-2.7315,-2.7315,-2.7315,-2.7315,-2.7315,-2.7315,-2.7315,-2.7315,-2.7315,-2.7315,-2.7359,-2.7624,-2.7894,-2.8183,-4.9678,-4.9069,-4.9779,-4.9678,-4.9001,-4.9107,-4.935,-4.9573,-4.95,-4.9149,-4.8592,-4.8512,-4.7775,-4.6613,-4.6493,-4.6079,-4.5414,-4.5371,-4.53,0.0,-4.4289,-4.3831,-4.3603,-4.1993,-4.123,-4.1153,-4.0451,-4.0113,-4.0096,-3.9994,-3.9639,-3.9039,-3.8785,-3.8065,-3.6829,-3.6118,-3.5844,-3.5997,-3.6014,-3.5685,-3.5036,-3.5036,-3.4027,-3.1955,-3.2196,-3.1329,-2.9178,-2.9605,-2.9857,-2.9655,-2.896,-2.8874,-2.9568,-2.8891,-2.857,-2.8654,-2.8671,-2.862,-2.8519,-2.862,-2.8724,-2.8761,-2.8966,-2.9022,-2.8904,-2.8972,-2.9023,-2.9024,-2.9179,-2.9351,-2.9351,-2.9472,-2.961,-2.9558,-2.9541,-2.9523,-2.9592,-2.9592,-2.961,-2.9627,-2.9506,-2.9834,-3.0403,-3.0541,-3.0765,-3.142,-3.1524,-3.1662,-3.1627,-3.1076,-2.9972,-2.8782,-2.8316,-2.7971,-2.7454,-2.7315,-2.7315,-2.7315,-2.7315,-2.7315,-2.7315,-2.7315,-2.7315,-2.7315,-2.7315,-2.7315,-2.7315,-2.7315,-2.7315,-2.7315,-2.7315,-2.7407,-2.7642,-2.794,-2.8228,-4.9661,-4.912,-4.9796,-4.9661,-4.9001,-4.9138,-4.9381,-4.9661,-4.9649,-4.9524,-4.9326,-4.8971,-4.8385,-4.7629,-4.6814,-4.621,-4.574,-4.5292,-4.5032,-4.4961,-4.449,-4.4255,-4.4088,-4.2956,-4.2185,-4.1762,-4.1052,-4.0493,-4.013,-4.0113,-3.9926,-3.9588,-3.9265,-3.856,-3.7539,-3.6797,-3.6519,-3.6683,-3.6246,-3.5895,-3.57,-3.5383,-3.4697,-3.3682,-3.2835,-3.1742,-3.0493,-2.9998,-2.9685,-2.9517,-2.9178,-2.9162,-2.9448,-2.9196,-2.8993,-2.8993,-2.8993,-2.8993,-2.8993,-2.9382,-2.9844,-3.0348,-3.0401,-3.0512,-3.073,-2.9954,-2.9455,-2.9524,-2.9886,-3.0144,-3.0162,-3.0506,-3.0765,-3.0748,-3.0748,-3.0748,-3.0748,-3.0748,-3.0731,-3.0748,-3.0748,-3.0903,-3.1266,-3.13,-3.1386,-3.1765,-3.18,-3.18,-3.18,-3.1507,-3.0748,-2.9317,-2.8661,-2.8109,-2.7454,-2.7315,-2.7315,-2.7315,-2.7315,-2.7315,-2.7315,-2.7315,-2.7315,-2.7315,-2.7315,-2.7315,-2.7315,-2.7315,-2.7315,-2.7315,-2.7315,-2.7405,-2.7657,-2.8037,-2.8404,-4.9526,-4.9069,-4.961,-4.954,-4.9141,-4.9229,-4.9441,-4.9755,-4.9767,-4.986,-4.9878,-4.9309,-4.8896,-4.8489,-4.7322,-4.6552,-4.6071,-4.5397,-4.5001,-4.482,-4.4682,-4.4643,-4.4513,-4.3775,-4.3115,-4.2472,-4.1644,-4.0916,-4.04,-4.0197,-4.0113,-4.0028,-3.9532,-3.8952,-3.8333,-3.7631,-3.7268,-3.7264,-3.661,-3.6277,-3.6262,-3.5732,-3.537,-3.5076,-3.3507,-3.2397,-3.2021,-3.0869,-3.0094,-2.981,-2.9756,-2.967,-2.9501,-2.9501,-2.9501,-2.9484,-2.9501,-2.9482,-2.9534,-3.0023,-3.0656,-3.1353,-3.1423,-3.15,-3.1585,-3.0621,-2.9917,-3.0058,-3.061,-3.0938,-3.0989,-3.1403,-3.18,-3.18,-3.18,-3.1714,-3.1783,-3.18,-3.18,-3.18,-3.18,-3.1765,-3.18,-3.18,-3.1783,-3.1783,-3.18,-3.18,-3.18,-3.18,-3.1214,-3.011,-2.9127,-2.8437,-2.7696,-2.7385,-2.7332,-2.7315,-2.7315,-2.7315,-2.7315,-2.7315,-2.7315,-2.7315,-2.7315,-2.7315,-2.7315,-2.736,-2.739,-2.7421,-2.7436,-2.7513,-2.7771,-2.8219,-2.8619,-4.9069,-4.9018,-4.9103,-4.9253,-4.9428,-4.9458,-4.9654,-4.9935,-4.9982,-4.9964,-4.9947,-4.9895,-4.9407,-4.8661,-4.8421,-4.7518,-4.6197,-4.6026,-4.555,-4.4871,-4.4776,-4.4709,-4.4547,-4.3809,-4.3358,-4.3088,-4.1931,-4.1255,-4.1001,-4.0392,-4.0113,-4.0053,-3.963,-3.9303,-3.9054,-3.8451,-3.7832,-3.732,-3.7119,-3.6769,-3.6314,-3.6232,-3.587,-3.5197,-3.499,-3.4502,-3.3676,-3.3439,-3.2929,-3.227,-3.2015,-3.1667,-3.1108,-3.1007,-3.1004,-3.0987,-3.1007,-3.1007,-3.1024,-3.1058,-3.1193,-3.121,-3.1314,-3.1412,-3.1585,-3.1416,-3.137,-3.1555,-3.1645,-3.1627,-3.1679,-3.1765,-3.18,-3.18,-3.18,-3.18,-3.18,-3.18,-3.18,-3.18,-3.18,-3.18,-3.18,-3.18,-3.18,-3.18,-3.18,-3.18,-3.18,-3.18,-3.1576,-3.0696,-2.9903,-2.9127,-2.8385,-2.7696,-2.7435,-2.7349,-2.7315,-2.7315,-2.7315,-2.7315,-2.7315,-2.7315,-2.7315,-2.7315,-2.736,-2.7481,-2.7612,-2.7615,-2.7642,-2.7745,-2.8024,-2.8308,-2.8601,-4.9063,-4.9001,-4.9018,-4.9185,-4.9488,-4.956,-4.9755,-4.9964,-5.0011,-4.9935,-4.9813,-4.9813,-4.9554,-4.9098,-4.8548,-4.7856,-4.7131,-4.6265,-4.5677,-4.5281,-4.4902,-4.4654,-4.4564,-4.4265,-4.3876,-4.3392,-4.275,-4.2066,-4.1204,-4.0443,-4.0138,-4.0221,-4.0105,-4.0065,-4.0014,-3.9313,-3.8813,-3.8563,-3.7592,-3.7033,-3.6861,-3.6453,-3.6117,-3.5835,-3.5359,-3.4957,-3.4586,-3.4055,-3.3523,-3.3169,-3.3012,-3.2814,-3.2527,-3.251,-3.2493,-3.251,-3.2493,-3.251,-3.2493,-3.251,-3.253,-3.2595,-3.2612,-3.2692,-3.2877,-3.2537,-3.2509,-3.2953,-3.2334,-3.18,-3.1817,-3.18,-3.18,-3.18,-3.18,-3.18,-3.18,-3.18,-3.18,-3.18,-3.18,-3.18,-3.18,-3.18,-3.18,-3.18,-3.18,-3.18,-3.18,-3.18,-3.1679,-3.1334,-3.0696,-2.973,-2.873,-2.8196,-2.7782,-2.7453,-2.7315,-2.7315,-2.7315,-2.7315,-2.7315,-2.7315,-2.7315,-2.7315,-2.7315,-2.7376,-2.7496,-2.7612,-2.784,-2.794,-2.7883,-2.8106,-2.8334,-4.9107,-4.9001,-4.9018,-4.9185,-4.9518,-4.959,-4.9784,-4.9964,-5.0011,-4.9889,-4.9708,-4.9679,-4.956,-4.9342,-4.8664,-4.8239,-4.7784,-4.6802,-4.6194,-4.594,-4.5229,-4.4891,-4.4874,-4.4682,-4.4299,-4.3792,-4.3477,-4.2743,-4.1577,-4.0832,-4.0552,-4.0635,-4.0588,-4.0607,-4.0621,-3.9994,-3.9658,-3.9444,-3.8294,-3.7672,-3.7556,-3.6825,-3.6371,-3.6241,-3.5662,-3.5362,-3.5404,-3.473,-3.4271,-3.4034,-3.3896,-3.3731,-3.3507,-3.3486,-3.3427,-3.3406,-3.3389,-3.3389,-3.3389,-3.3389,-3.3448,-3.3511,-3.3532,-3.3615,-3.3713,-3.3362,-3.337,-3.3852,-3.3095,-3.2421,-3.211,-3.1903,-3.18,-3.18,-3.18,-3.18,-3.18,-3.18,-3.1837,-3.1928,-3.1983,-3.1947,-3.1912,-3.1874,-3.18,-3.18,-3.18,-3.18,-3.18,-3.18,-3.18,-3.1783,-3.1317,-3.0524,-2.9299,-2.8834,-2.842,-2.7868,-2.7661,-2.7592,-2.7401,-2.7315,-2.7315,-2.7315,-2.7315,-2.7315,-2.7346,-2.7345,-2.7452,-2.7686,-2.7943,-2.8037,-2.7783,-2.7954,-2.802,-4.9107,-4.9001,-4.9018,-4.9216,-4.9518,-4.95,-4.9713,-5.0011,-4.9964,-4.9889,-4.9679,-4.9577,-4.9381,-4.9212,-4.9114,-4.8666,-4.7986,-4.7753,-4.7344,-4.6718,-4.6007,-4.5669,-4.5602,-4.4942,-4.4581,-4.4412,-4.3809,-4.3135,-4.243,-4.181,-4.1527,-4.1484,-4.1001,-4.0731,-4.0697,-4.0497,-4.0203,-3.9703,-3.9221,-3.8873,-3.8447,-3.7427,-3.6693,-3.6375,-3.6178,-3.6126,-3.6172,-3.6126,-3.5757,-3.505,-3.489,-3.4541,-3.3905,-3.3717,-3.3647,-3.3491,-3.3457,-3.3457,-3.3491,-3.3525,-3.3541,-3.3512,-3.363,-3.3579,-3.3926,-3.3813,-3.3894,-3.4128,-3.4027,-3.3542,-3.3007,-3.2438,-3.2024,-3.1972,-3.1903,-3.1921,-3.1852,-3.194,-3.1982,-3.2197,-3.2266,-3.2231,-3.2249,-3.1984,-3.1838,-3.1818,-3.18,-3.18,-3.18,-3.18,-3.18,-3.18,-3.1679,-3.1455,-3.0679,-2.992,-2.9179,-2.8454,-2.8058,-2.8058,-2.7627,-2.7315,-2.7332,-2.7315,-2.7315,-2.733,-2.7362,-2.7452,-2.76,-2.7832,-2.811,-2.8138,-2.7757,-2.7908,-2.794,-4.9246,-4.9001,-4.9077,-4.926,-4.95,-4.959,-4.9772,-4.9964,-4.9842,-4.9725,-4.956,-4.9381,-4.9229,-4.9063,-4.9063,-4.888,-4.8578,-4.8108,-4.7767,-4.7428,-4.6735,-4.6143,-4.5703,-4.5415,-4.501,-4.4615,-4.431,-4.3857,-4.3246,-4.2654,-4.2142,-4.1755,-4.1513,-4.1243,-4.0879,-4.0697,-4.0477,-4.0162,-3.9648,-3.9232,-3.8948,-3.8097,-3.7354,-3.682,-3.6319,-3.6105,-3.6212,-3.6225,-3.6066,-3.5809,-3.5668,-3.5484,-3.5224,-3.5083,-3.4953,-3.4827,-3.4805,-3.4805,-3.4805,-3.4788,-3.4849,-3.4914,-3.4936,-3.4972,-3.5151,-3.4871,-3.4792,-3.5194,-3.4562,-3.4111,-3.4231,-3.3697,-3.3285,-3.3285,-3.3248,-3.3007,-3.2684,-3.2677,-3.2721,-3.2441,-3.247,-3.2536,-3.2369,-3.2179,-3.2037,-3.1855,-3.18,-3.18,-3.18,-3.18,-3.18,-3.18,-3.1783,-3.1696,-3.1507,-3.0748,-2.9955,-2.892,-2.8316,-2.8006,-2.7644,-2.7453,-2.7418,-2.7332,-2.7315,-2.7315,-2.7362,-2.7511,-2.7657,-2.7774,-2.8055,-2.8041,-2.7745,-2.7757,-2.7642,-4.9246,-4.9032,-4.9138,-4.932,-4.9518,-4.9666,-4.9813,-4.9964,-4.986,-4.9696,-4.9518,-4.935,-4.9199,-4.9032,-4.9018,-4.9018,-4.8968,-4.8494,-4.8274,-4.8206,-4.7496,-4.6887,-4.6413,-4.5923,-4.5432,-4.4987,-4.4766,-4.4504,-4.4119,-4.3544,-4.304,-4.2643,-4.2162,-4.1677,-4.1261,-4.0865,-4.0607,-4.0456,-3.9924,-3.963,-3.9521,-3.8816,-3.8204,-3.7752,-3.7125,-3.6546,-3.6238,-3.6208,-3.6229,-3.6229,-3.6148,-3.6084,-3.6041,-3.5949,-3.58,-3.5706,-3.5605,-3.5616,-3.5616,-3.5616,-3.5627,-3.5778,-3.5795,-3.5905,-3.611,-3.5706,-3.5748,-3.5918,-3.5508,-3.5059,-3.5318,-3.5094,-3.4631,-3.4251,-3.4096,-3.3886,-3.3371,-3.3345,-3.3143,-3.2814,-3.2844,-3.2844,-3.2653,-3.242,-3.2214,-3.1983,-3.1874,-3.18,-3.18,-3.18,-3.18,-3.18,-3.18,-3.18,-3.1696,-3.1265,-3.0731,-2.9799,-2.923,-2.8661,-2.7971,-2.7763,-2.7556,-2.7418,-2.7315,-2.7315,-2.7392,-2.7539,-2.7627,-2.7686,-2.7789,-2.7832,-2.763,-2.7481,-2.7452,-4.9124,-4.9032,-4.9138,-4.932,-4.9518,-4.9649,-4.9813,-4.9964,-4.9964,-4.9742,-4.9518,-4.9471,-4.9229,-4.9063,-4.9018,-4.9018,-4.8984,-4.8917,-4.89,-4.8832,-4.824,-4.7838,-4.7635,-4.6413,-4.5669,-4.5478,-4.5182,-4.4978,-4.4868,-4.4457,-4.4216,-4.3923,-4.2802,-4.2122,-4.1957,-4.1084,-4.0651,-4.0558,-4.0228,-4.0178,-4.0351,-3.9589,-3.9108,-3.902,-3.8527,-3.7671,-3.6393,-3.6392,-3.6504,-3.6473,-3.6383,-3.6293,-3.6182,-3.6058,-3.5949,-3.5795,-3.5667,-3.5639,-3.5616,-3.5616,-3.5667,-3.5795,-3.5817,-3.5927,-3.6148,-3.6139,-3.6165,-3.6228,-3.6197,-3.6197,-3.6163,-3.6111,-3.5628,-3.4441,-3.4412,-3.4417,-3.4127,-3.3731,-3.3404,-3.3399,-3.3433,-3.3324,-3.3172,-3.2781,-3.242,-3.2301,-3.2055,-3.1892,-3.1873,-3.1855,-3.18,-3.18,-3.18,-3.18,-3.18,-3.1731,-3.1317,-3.0834,-3.0455,-2.9937,-2.8885,-2.8403,-2.8075,-2.7868,-2.7384,-2.7349,-2.733,-2.7465,-2.7615,-2.7674,-2.7686,-2.7733,-2.7627,-2.7539,-2.7483,-4.9032,-4.9032,-4.9138,-4.932,-4.95,-4.9649,-4.983,-4.9964,-4.9772,-4.9577,-4.9458,-4.9229,-4.9111,-4.9032,-4.9018,-4.9018,-4.9018,-4.9018,-4.9018,-4.8951,-4.8748,-4.8376,-4.7787,-4.6921,-4.5981,-4.5196,-4.5032,-4.5059,-4.5115,-4.5086,-4.4837,-4.4276,-4.3828,-4.2959,-4.1972,-4.153,-4.1148,-4.0463,-4.0305,-4.0238,-4.0221,-3.9951,-3.9587,-3.9095,-3.8969,-3.8497,-3.7644,-3.7777,-3.787,-3.7818,-3.7404,-3.6861,-3.6341,-3.6079,-3.5932,-3.58,-3.5667,-3.5616,-3.5616,-3.5622,-3.5711,-3.5866,-3.5932,-3.6041,-3.6233,-3.6276,-3.6259,-3.6284,-3.6284,-3.6284,-3.6284,-3.6284,-3.6025,-3.5663,-3.5841,-3.5704,-3.5278,-3.5084,-3.4812,-3.4543,-3.4461,-3.4156,-3.3513,-3.3034,-3.2914,-3.2651,-3.2352,-3.2161,-3.2109,-3.1947,-3.1783,-3.18,-3.18,-3.18,-3.18,-3.18,-3.1593,-3.1282,-3.1041,-3.0644,-2.9696,-2.9127,-2.8765,-2.8299,-2.7798,-2.7539,-2.7503,-2.7565,-2.7807,-2.7767,-2.7809,-2.7804,-2.7733,-2.7686,-2.7642,-4.9015,-4.9032,-4.9246,-4.9381,-4.9518,-4.9725,-4.986,-4.986,-4.9666,-4.95,-4.9367,-4.9185,-4.9032,-4.9001,-4.9018,-4.9018,-4.9018,-4.9018,-4.9018,-4.9018,-4.9018,-4.8731,-4.8257,-4.7564,-4.6518,-4.5439,-4.535,-4.5333,-4.522,-4.531,-4.5139,-4.4768,-4.4449,-4.3803,-4.2671,-4.2294,-4.1672,-4.084,-4.0679,-4.0476,-4.0189,-4.0163,-3.9943,-3.9511,-3.9608,-3.945,-3.9013,-3.9232,-3.9135,-3.8646,-3.8151,-3.7624,-3.7128,-3.6718,-3.6461,-3.6542,-3.6051,-3.5718,-3.596,-3.5847,-3.5756,-3.5954,-3.6058,-3.6127,-3.6259,-3.6284,-3.6284,-3.6284,-3.6284,-3.6284,-3.6284,-3.6284,-3.6284,-3.6301,-3.6422,-3.6468,-3.6071,-3.6089,-3.5945,-3.5601,-3.5463,-3.4942,-3.4247,-3.3785,-3.3533,-3.3093,-3.27,-3.2403,-3.2335,-3.2126,-3.2018,-3.1909,-3.18,-3.18,-3.18,-3.18,-3.18,-3.1627,-3.142,-3.092,-3.0213,-3.0006,-2.973,-2.9127,-2.8575,-2.8541,-2.8505,-2.8402,-2.8482,-2.8275,-2.8075,-2.7999,-2.7994,-2.7979,-2.7911,-4.9124,-4.9032,-4.9367,-4.9471,-4.9547,-4.983,-4.986,-4.9708,-4.9679,-4.95,-4.926,-4.9168,-4.9124,-4.9032,-4.9018,-4.9018,-4.9018,-4.9018,-4.9018,-4.9018,-4.9001,-4.8883,-4.8626,-4.8067,-4.7187,-4.6209,-4.6135,-4.5898,-4.5453,-4.5516,-4.5432,-4.5259,-4.4734,-4.4251,-4.3769,-4.3134,-4.2364,-4.1537,-4.1264,-4.084,-4.0265,-4.0188,-4.0196,-4.0045,-4.0228,-4.0251,-4.0158,-4.0302,-3.9943,-3.8905,-3.8658,-3.8532,-3.8355,-3.7643,-3.7416,-3.7871,-3.6565,-3.6372,-3.6581,-3.6503,-3.6202,-3.6334,-3.6461,-3.635,-3.6624,-3.6715,-3.6646,-3.6525,-3.6473,-3.6387,-3.6353,-3.6284,-3.6305,-3.6346,-3.6516,-3.6525,-3.6524,-3.6847,-3.6825,-3.6501,-3.6321,-3.6013,-3.5164,-3.4816,-3.4352,-3.3834,-3.344,-3.3192,-3.2995,-3.2948,-3.2389,-3.2247,-3.2243,-3.1959,-3.1994,-3.18,-3.18,-3.1748,-3.1627,-3.1282,-3.08,-3.0644,-3.0437,-2.9851,-2.942,-2.9437,-2.9334,-2.911,-2.8987,-2.8821,-2.8633,-2.8413,-2.8455,-2.8575,-2.8701,-4.9107,-4.9049,-4.9199,-4.935,-4.9518,-4.9696,-4.9737,-4.9679,-4.9607,-4.9411,-4.9199,-4.9094,-4.9032,-4.9018,-4.9018,-4.9018,-4.9018,-4.9018,-4.9018,-4.9018,-4.9018,-4.8707,-4.8391,-4.8167,-4.7753,-4.7119,-4.7055,-4.6835,-4.6266,-4.6207,-4.5949,-4.5397,-4.519,-4.4672,-4.4025,-4.3706,-4.3036,-4.2138,-4.1484,-4.117,-4.0899,-4.0426,-4.0138,-4.0138,-4.0205,-4.028,-4.033,-4.0551,-4.0315,-3.952,-3.9255,-3.8951,-3.8574,-3.8083,-3.7944,-3.8023,-3.7738,-3.7424,-3.7553,-3.7574,-3.761,-3.7632,-3.7614,-3.7863,-3.7991,-3.7974,-3.7715,-3.7374,-3.7163,-3.6943,-3.6473,-3.6353,-3.6461,-3.6739,-3.7009,-3.736,-3.783,-3.8138,-3.7989,-3.7349,-3.7199,-3.6762,-3.6182,-3.5864,-3.5663,-3.5363,-3.5021,-3.472,-3.4368,-3.4206,-3.3844,-3.3284,-3.3036,-3.2524,-3.2153,-3.1906,-3.18,-3.18,-3.1748,-3.1714,-3.13,-3.1041,-3.0782,-3.0386,-3.0024,-2.9937,-2.9679,-2.942,-2.9349,-2.9484,-2.9457,-2.9409,-2.9552,-2.9718,-2.9966,-4.9474,-4.9077,-4.9168,-4.926,-4.9381,-4.9547,-4.956,-4.95,-4.9411,-4.9307,-4.9124,-4.9032,-4.9001,-4.9018,-4.9018,-4.9018,-4.9018,-4.9018,-4.9032,-4.9124,-4.9168,-4.8961,-4.8668,-4.8643,-4.8429,-4.7997,-4.7974,-4.7629,-4.7059,-4.6786,-4.6328,-4.5914,-4.5499,-4.4971,-4.4458,-4.4275,-4.3766,-4.2898,-4.232,-4.2016,-4.1644,-4.1255,-4.0874,-4.0663,-4.057,-4.0536,-4.0373,-4.0404,-4.027,-4.0024,-3.9963,-3.9781,-3.9299,-3.8892,-3.8805,-3.8973,-3.8547,-3.825,-3.8442,-3.8429,-3.83,-3.8288,-3.8402,-3.851,-3.8543,-3.8594,-3.8341,-3.8065,-3.7978,-3.7737,-3.7404,-3.7267,-3.7377,-3.7617,-3.782,-3.8097,-3.8439,-3.8525,-3.8472,-3.8153,-3.797,-3.7698,-3.6923,-3.6831,-3.6615,-3.6311,-3.5952,-3.5736,-3.5564,-3.5497,-3.518,-3.4446,-3.3723,-3.314,-3.2571,-3.2251,-3.199,-3.1955,-3.18,-3.18,-3.1662,-3.1369,-3.1265,-3.1007,-3.0662,-3.042,-3.03,-3.0231,-3.0317,-3.0422,-3.0434,-3.0321,-3.0311,-3.0476,-3.0776,-4.9977,-4.927,-4.927,-4.9301,-4.9382,-4.9517,-4.9585,-4.9365,-4.9263,-4.9138,-4.9032,-4.9001,-4.9018,-4.9018,-4.9018,-4.9018,-4.9018,-4.9018,-4.9077,-4.9199,-4.935,-4.9372,-4.9248,-4.9304,-4.9145,-4.8827,-4.8741,-4.8369,-4.7851,-4.7189,-4.6828,-4.6525,-4.5797,-4.5302,-4.5036,-4.4875,-4.433,-4.3667,-4.3257,-4.2895,-4.2439,-4.2151,-4.1779,-4.139,-4.1322,-4.1002,-4.062,-4.0383,-4.0281,-4.0288,-4.0648,-4.0528,-4.0305,-3.9911,-3.9881,-4.0041,-3.9317,-3.8965,-3.9313,-3.9065,-3.8763,-3.8832,-3.8906,-3.8819,-3.9031,-3.9117,-3.8996,-3.8732,-3.8698,-3.855,-3.8338,-3.8446,-3.8412,-3.8428,-3.8562,-3.8452,-3.845,-3.8561,-3.8707,-3.8707,-3.8689,-3.8322,-3.7915,-3.7566,-3.7401,-3.7276,-3.6996,-3.6921,-3.6796,-3.6705,-3.6082,-3.5155,-3.4464,-3.3756,-3.3168,-3.2593,-3.2334,-3.2127,-3.1886,-3.18,-3.18,-3.1662,-3.1731,-3.1576,-3.1214,-3.1196,-3.1351,-3.1351,-3.1231,-3.1164,-3.1029,-3.0765,-3.0598,-3.0907,-3.1217,-5.0311,-4.9927,-4.991,-4.9989,-5.013,-5.0178,-5.0161,-5.0062,-4.9454,-4.9158,-4.9032,-4.9018,-4.9018,-4.9018,-4.9018,-4.9018,-4.9001,-4.9032,-4.9094,-4.9246,-4.953,-4.9619,-4.959,-4.9649,-4.9669,-4.9613,-4.9694,-4.9281,-4.8637,-4.8247,-4.7944,-4.7258,-4.6488,-4.5915,-4.5659,-4.5126,-4.4703,-4.4276,-4.3775,-4.3403,-4.3149,-4.2658,-4.2337,-4.2066,-4.2016,-4.166,-4.1188,-4.1078,-4.0807,-4.0358,-4.0289,-4.054,-4.0402,-4.0175,-4.0133,-4.0258,-4.0246,-4.0048,-4.0216,-4.0206,-4.0266,-4.0092,-4.0134,-4.0411,-4.0411,-4.0308,-4.0032,-3.9623,-3.9348,-3.9066,-3.8602,-3.8334,-3.8548,-3.881,-3.8835,-3.9035,-3.9445,-3.9097,-3.8758,-3.8747,-3.871,-3.8634,-3.8432,-3.831,-3.8215,-3.8123,-3.8086,-3.809,-3.7952,-3.7796,-3.7022,-3.6043,-3.5474,-3.4782,-3.3928,-3.3369,-3.3007,-3.2628,-3.2283,-3.2024,-3.2007,-3.18,-3.18,-3.18,-3.1731,-3.18,-3.18,-3.1783,-3.1541,-3.156,-3.158,-3.1446,-3.1392,-3.1564,-3.1659,-5.1344,-5.0752,-5.0657,-5.0706,-5.0769,-5.0769,-5.0583,-5.021,-4.9837,-4.9368,-4.9083,-4.9018,-4.9018,-4.9018,-4.9018,-4.9018,-4.9063,-4.9185,-4.9277,-4.9411,-4.9666,-4.983,-4.983,-4.983,-4.9889,-4.9964,-4.9964,-4.9642,-4.9258,-4.885,-4.8381,-4.7895,-4.705,-4.6357,-4.5949,-4.5405,-4.4993,-4.4598,-4.4215,-4.3961,-4.3859,-4.3606,-4.3098,-4.2777,-4.2506,-4.2066,-4.1788,-4.179,-4.1612,-4.1324,-4.1137,-4.0849,-4.0489,-4.0404,-4.0412,-4.0485,-4.0607,-4.068,-4.0752,-4.0799,-4.0813,-4.0793,-4.0864,-4.0888,-4.0894,-4.0894,-4.0739,-4.0347,-4.0115,-3.9843,-3.9347,-3.9289,-3.9387,-3.9257,-3.9298,-3.9526,-3.9698,-3.9281,-3.8962,-3.9004,-3.8771,-3.8653,-3.8596,-3.8499,-3.8541,-3.8303,-3.8365,-3.8386,-3.8435,-3.8232,-3.7842,-3.711,-3.6559,-3.5846,-3.4855,-3.4234,-3.3783,-3.3335,-3.2869,-3.2628,-3.2472,-3.2145,-3.18,-3.18,-3.18,-3.18,-3.18,-3.18,-3.18,-3.1732,-3.1771,-3.1984,-3.2074,-3.1934,-3.2117,-5.2296,-5.1611,-5.1332,-5.1236,-5.1386,-5.1386,-5.098,-5.0338,-5.0118,-4.9627,-4.9103,-4.9018,-4.9018,-4.9018,-4.9018,-4.9018,-4.9094,-4.9337,-4.9458,-4.9518,-4.9742,-4.9889,-4.9935,-4.9935,-4.9889,-4.9964,-4.9935,-4.9762,-4.9485,-4.9112,-4.8768,-4.8382,-4.7634,-4.6986,-4.6384,-4.5777,-4.5399,-4.4908,-4.4632,-4.4451,-4.4496,-4.4445,-4.4096,-4.3623,-4.3166,-4.2726,-4.254,-4.2482,-4.2424,-4.2462,-4.2339,-4.1688,-4.1019,-4.0666,-4.07,-4.07,-4.0745,-4.0817,-4.0847,-4.0871,-4.0894,-4.0894,-4.0894,-4.0894,-4.0894,-4.0894,-4.086,-4.0813,-4.0631,-4.0463,-4.0451,-4.0207,-4.0093,-4.0014,-3.9939,-3.9918,-3.9794,-3.945,-3.9428,-3.9304,-3.8839,-3.8518,-3.8313,-3.8152,-3.8334,-3.8483,-3.8546,-3.8611,-3.8611,-3.8465,-3.7977,-3.7524,-3.6861,-3.6442,-3.5558,-3.4835,-3.4438,-3.4111,-3.3593,-3.3283,-3.3076,-3.2921,-3.2593,-3.1903,-3.18,-3.1817,-3.1817,-3.18,-3.18,-3.18,-3.1837,-3.1929,-3.2055,-3.2197,-3.2369,-5.2045,-5.2096,-5.1471,-5.1555,-5.208,-5.2131,-5.1708,-5.0997,-5.0405,-4.9678,-4.9086,-4.9018,-4.9018,-4.9018,-4.9018,-4.9018,-4.9094,-4.9337,-4.9488,-4.9518,-4.9696,-4.9813,-4.9935,-4.986,-4.9755,-4.9737,-4.9755,-4.9666,-4.956,-4.9381,-4.9121,-4.8916,-4.8294,-4.7742,-4.7166,-4.6447,-4.5771,-4.5348,-4.4987,-4.4716,-4.4615,-4.4581,-4.4564,-4.4248,-4.4012,-4.3741,-4.3318,-4.3183,-4.2946,-4.2414,-4.233,-4.2264,-4.2004,-4.1614,-4.1204,-4.0859,-4.081,-4.093,-4.0985,-4.0929,-4.0912,-4.0894,-4.0894,-4.0894,-4.0894,-4.0894,-4.0871,-4.0799,-4.0655,-4.0461,-4.0213,-4.0238,-4.0229,-4.0173,-4.0233,-4.038,-4.0603,-4.0309,-3.9605,-3.9221,-3.8758,-3.8366,-3.8187,-3.7952,-3.7878,-3.8033,-3.8152,-3.8203,-3.8203,-3.8085,-3.779,-3.7378,-3.6927,-3.6599,-3.6198,-3.5549,-3.5025,-3.4869,-3.4456,-3.4044,-3.3869,-3.3852,-3.3473,-3.2714,-3.211,-3.1921,-3.1886,-3.1817,-3.18,-3.18,-3.1818,-3.1837,-3.1929,-3.202,-3.1965,-5.2932,-5.2875,-5.2536,-5.2604,-5.2892,-5.2909,-5.2486,-5.1725,-5.0997,-5.0253,-4.961,-4.9204,-4.9018,-4.9018,-4.9018,-4.9018,-4.9111,-4.9337,-4.9488,-4.9547,-4.9649,-4.9737,-4.986,-4.9755,-4.959,-4.95,-4.9441,-4.9411,-4.935,-4.935,-4.9277,-4.907,-4.8717,-4.8352,-4.7885,-4.7229,-4.6397,-4.5889,-4.5348,-4.4959,-4.4666,-4.4615,-4.4598,-4.4598,-4.4598,-4.4367,-4.4147,-4.4012,-4.3859,-4.3599,-4.3532,-4.3305,-4.2976,-4.2709,-4.2261,-4.1724,-4.1412,-4.1288,-4.124,-4.1116,-4.0894,-4.0894,-4.0929,-4.0894,-4.0894,-4.0871,-4.0858,-4.0721,-4.0697,-4.0478,-4.0163,-4.0163,-4.0238,-4.028,-4.033,-4.0541,-4.0774,-4.0574,-3.9996,-3.9217,-3.8695,-3.8378,-3.82,-3.7933,-3.7576,-3.7578,-3.7738,-3.7791,-3.7791,-3.7685,-3.7542,-3.7133,-3.6741,-3.6557,-3.6346,-3.5998,-3.5576,-3.5439,-3.5232,-3.4838,-3.4579,-3.449,-3.4096,-3.344,-3.2888,-3.249,-3.1903,-3.1817,-3.18,-3.18,-3.18,-3.1818,-3.18,-3.18,-3.18,-5.3631,-5.3501,-5.3331,-5.3348,-5.3501,-5.3501,-5.3027,-5.2283,-5.1674,-5.0913,-5.0067,-4.9509,-4.9171,-4.9066,-4.9063,-4.9094,-4.9049,-4.9337,-4.9458,-4.9458,-4.95,-4.9619,-4.9649,-4.959,-4.9471,-4.929,-4.9199,-4.9168,-4.9185,-4.9168,-4.9094,-4.9046,-4.8984,-4.8748,-4.8206,-4.7838,-4.706,-4.6532,-4.5923,-4.5551,-4.4976,-4.4682,-4.4598,-4.4598,-4.4598,-4.4598,-4.4513,-4.4496,-4.4496,-4.4445,-4.4429,-4.4276,-4.3802,-4.3749,-4.3569,-4.3089,-4.2381,-4.2071,-4.1856,-4.1631,-4.1439,-4.1474,-4.1333,-4.1299,-4.1247,-4.1309,-4.1068,-4.0813,-4.0658,-4.0551,-4.0263,-4.028,-4.0313,-4.0379,-4.0387,-4.0461,-4.0704,-4.0668,-4.0549,-3.9775,-3.8938,-3.8412,-3.8197,-3.7829,-3.7453,-3.7208,-3.7359,-3.7377,-3.7377,-3.7377,-3.7208,-3.6841,-3.6557,-3.6392,-3.6305,-3.6305,-3.6042,-3.5956,-3.5783,-3.5473,-3.5249,-3.5076,-3.4631,-3.4268,-3.3958,-3.349,-3.2662,-3.1869,-3.18,-3.18,-3.18,-3.18,-3.18,-3.18,-3.18,-5.3057,-5.3416,-5.2756,-5.2841,-5.3433,-5.3484,-5.3061,-5.2367,-5.2198,-5.1352,-5.0185,-4.9965,-4.956,-4.9182,-4.9307,-4.9246,-4.9185,-4.9307,-4.9381,-4.9307,-4.932,-4.9381,-4.9471,-4.9303,-4.929,-4.9168,-4.9077,-4.9032,-4.9063,-4.9063,-4.9032,-4.9001,-4.9001,-4.8917,-4.8714,-4.8277,-4.7804,-4.753,-4.6955,-4.6278,-4.5602,-4.5021,-4.4733,-4.4666,-4.4615,-4.4598,-4.4598,-4.4598,-4.4598,-4.4598,-4.4598,-4.4547,-4.4479,-4.4462,-4.449,-4.4065,-4.3384,-4.2603,-4.2569,-4.2372,-4.2253,-4.2244,-4.2321,-4.245,-4.2227,-4.1908,-4.1675,-4.1641,-4.1136,-4.0712,-4.0474,-4.0421,-4.0478,-4.0502,-4.0534,-4.0655,-4.0817,-4.0799,-4.0675,-4.0526,-3.9753,-3.8755,-3.8148,-3.7745,-3.7363,-3.7146,-3.6958,-3.7013,-3.696,-3.6978,-3.6939,-3.6597,-3.6471,-3.6326,-3.6284,-3.6284,-3.6284,-3.6284,-3.6163,-3.6008,-3.5818,-3.5594,-3.5559,-3.5197,-3.4869,-3.4335,-3.3473,-3.2714,-3.211,-3.1972,-3.2214,-3.2059,-3.18,-3.18,-3.1817,-5.1976,-5.2198,-5.2283,-5.2503,-5.2875,-5.3298,-5.3315,-5.2942,-5.2469,-5.1708,-5.076,-5.0236,-4.9709,-4.9274,-4.929,-4.9229,-4.9168,-4.926,-4.929,-4.9199,-4.9199,-4.926,-4.929,-4.9229,-4.9168,-4.9077,-4.9032,-4.9001,-4.9018,-4.9018,-4.9018,-4.9018,-4.9018,-4.9001,-4.9018,-4.8697,-4.8291,-4.78,-4.7192,-4.6667,-4.621,-4.5652,-4.5229,-4.5196,-4.4823,-4.4666,-4.4632,-4.4598,-4.4598,-4.4598,-4.4598,-4.4598,-4.4598,-4.4581,-4.4581,-4.4547,-4.4122,-4.362,-4.3257,-4.2944,-4.2834,-4.2731,-4.2731,-4.2655,-4.2638,-4.2492,-4.2304,-4.2304,-4.1637,-4.1186,-4.0898,-4.0658,-4.0536,-4.0551,-4.0803,-4.0838,-4.0933,-4.0888,-4.0825,-4.0722,-4.0549,-3.96,-3.8789,-3.8489,-3.8044,-3.748,-3.7265,-3.714,-3.6876,-3.6557,-3.6512,-3.6426,-3.6343,-3.6305,-3.6284,-3.6284,-3.6284,-3.6284,-3.6284,-3.618,-3.6215,-3.6111,-3.5973,-3.5766,-3.5352,-3.4766,-3.4145,-3.3628,-3.3059,-3.2869,-3.2731,-3.2576,-3.2386,-3.1903,-3.1903,-5.0676,-5.076,-5.164,-5.2131,-5.235,-5.2976,-5.3298,-5.3399,-5.2875,-5.2198,-5.1369,-5.0541,-4.9825,-4.946,-4.9287,-4.9168,-4.9138,-4.9168,-4.9168,-4.9168,-4.9138,-4.9155,-4.9155,-4.9138,-4.9094,-4.9018,-4.9001,-4.9018,-4.9018,-4.9018,-4.9018,-4.9018,-4.9018,-4.9018,-4.9018,-4.8917,-4.868,-4.8257,-4.753,-4.7158,-4.6938,-4.6363,-4.6058,-4.5754,-4.5314,-4.4874,-4.4869,-4.4632,-4.4598,-4.4598,-4.4598,-4.4598,-4.4598,-4.4598,-4.4598,-4.4598,-4.4406,-4.4281,-4.3888,-4.3562,-4.3223,-4.3182,-4.3182,-4.3377,-4.331,-4.3132,-4.2996,-4.3074,-4.239,-4.1997,-4.1758,-4.1423,-4.1456,-4.1351,-4.1212,-4.1154,-4.1112,-4.1043,-4.0963,-4.0825,-4.0722,-4.0601,-3.9911,-3.9514,-3.8876,-3.8047,-3.7616,-3.7374,-3.6995,-3.6581,-3.6374,-3.637,-3.6301,-3.6301,-3.6284,-3.6284,-3.6284,-3.6284,-3.6284,-3.6284,-3.6284,-3.6284,-3.6197,-3.5956,-3.5714,-3.5559,-3.5163,-3.4611,-3.4079,-3.3699,-3.3352,-3.3283,-3.3024,-3.2472,-3.2162,-4.9154,-4.9272,-5.0693,-5.1657,-5.2283,-5.2367,-5.2824,-5.3484,-5.3416,-5.2875,-5.1995,-5.0828,-5.0183,-4.9944,-4.9562,-4.9226,-4.9083,-4.9155,-4.9124,-4.9063,-4.9001,-4.9032,-4.9063,-4.9032,-4.9032,-4.9001,-4.9018,-4.9018,-4.9018,-4.9018,-4.9018,-4.9018,-4.9018,-4.9018,-4.9018,-4.8984,-4.8968,-4.8646,-4.8139,-4.7851,-4.7631,-4.7175,-4.6735,-4.6566,-4.6058,-4.5618,-4.5585,-4.5128,-4.4784,-4.4784,-4.4767,-4.4632,-4.4632,-4.4598,-4.4598,-4.4598,-4.4598,-4.4496,-4.4315,-4.4264,-4.4389,-4.4423,-4.4349,-4.4217,-4.4215,-4.3807,-4.3727,-4.3819,-4.3134,-4.2852,-4.2834,-4.2867,-4.2498,-4.2309,-4.1965,-4.1788,-4.1595,-4.1216,-4.1136,-4.0963,-4.0825,-4.0698,-4.0664,-4.0198,-3.956,-3.8732,-3.818,-3.7922,-3.7456,-3.7025,-3.6628,-3.6456,-3.6353,-3.6301,-3.6284,-3.6284,-3.6284,-3.6284,-3.6284,-3.6284,-3.6284,-3.6284,-3.6284,-3.6232,-3.6025,-3.6128,-3.6077,-3.5352,-3.4714,-3.4286,-3.399,-3.3921,-3.368,-3.3197,-3.2955,-4.9018,-4.9069,-4.9627,-5.0541,-5.1674,-5.2114,-5.2756,-5.3433,-5.3501,-5.3061,-5.2266,-5.1268,-5.0841,-5.0701,-5.0144,-4.9803,-4.9752,-4.9246,-4.9165,-4.9032,-4.9018,-4.9018,-4.9018,-4.9035,-4.9001,-4.9018,-4.9018,-4.9018,-4.9018,-4.9018,-4.9018,-4.9018,-4.9018,-4.9018,-4.9018,-4.9018,-4.9018,-4.8968,-4.8765,-4.8595,-4.8443,-4.7902,-4.7479,-4.7411,-4.6752,-4.6413,-4.6329,-4.6109,-4.572,-4.5382,-4.528,-4.5043,-4.475,-4.4682,-4.4632,-4.4598,-4.4598,-4.4598,-4.4598,-4.4598,-4.4598,-4.4598,-4.4581,-4.4643,-4.4682,-4.4359,-4.434,-4.4221,-4.3858,-4.3501,-4.3528,-4.3254,-4.291,-4.2953,-4.2831,-4.2561,-4.2199,-4.1812,-4.1264,-4.112,-4.0961,-4.0813,-4.0813,-4.0754,-4.0123,-3.9457,-3.8957,-3.8474,-3.8043,-3.7594,-3.7215,-3.6939,-3.6835,-3.6646,-3.6628,-3.649,-3.6335,-3.6387,-3.6439,-3.6439,-3.649,-3.6284,-3.6284,-3.6284,-3.6284,-3.6249,-3.6094,-3.5783,-3.5439,-3.5163,-3.4838,-3.4562,-3.4251,-3.3921,-3.3749,-4.9018,-4.9018,-4.9018,-4.9847,-5.1168,-5.1758,-5.2553,-5.3416,-5.3518,-5.323,-5.2604,-5.1911,-5.162,-5.1464,-5.0841,-5.0503,-5.0432,-5.0096,-4.9796,-4.9661,-4.956,-4.9373,-4.9272,-4.9137,-4.9018,-4.9018,-4.9018,-4.9018,-4.9018,-4.9018,-4.9018,-4.9018,-4.9018,-4.9018,-4.9018,-4.9018,-4.9018,-4.9018,-4.9018,-4.9018,-4.8883,-4.8545,-4.824,-4.8122,-4.753,-4.7175,-4.7022,-4.6786,-4.643,-4.616,-4.594,-4.5602,-4.5213,-4.4874,-4.479,-4.4682,-4.4598,-4.4615,-4.4598,-4.4598,-4.4598,-4.4598,-4.4598,-4.4598,-4.4598,-4.4598,-4.4591,-4.4701,-4.4276,-4.4048,-4.4158,-4.4009,-4.3898,-4.3993,-4.3648,-4.3362,-4.2959,-4.2548,-4.182,-4.1266,-4.1143,-4.1064,-4.0738,-4.0738,-4.0569,-3.9979,-3.9526,-3.9129,-3.887,-3.8405,-3.7922,-3.7663,-3.7508,-3.7284,-3.7042,-3.7215,-3.7353,-3.7301,-3.7249,-3.687,-3.6784,-3.6594,-3.6353,-3.6284,-3.6284,-3.6284,-3.618,-3.599,-3.6059,-3.6163,-3.5732,-3.5249,-3.5128,-3.4835,-3.4542,-4.9018,-4.9018,-4.9018,-4.9864,-5.1166,-5.1234,-5.2114,-5.3416,-5.3501,-5.3467,-5.3264,-5.2587,-5.23,-5.2146,-5.1522,-5.1217,-5.1182,-5.1048,-5.093,-5.071,-5.0287,-5.0101,-4.983,-4.956,-4.9238,-4.9052,-4.9018,-4.9018,-4.9018,-4.9018,-4.9018,-4.9018,-4.9018,-4.9018,-4.9018,-4.9018,-4.9018,-4.9018,-4.9018,-4.9018,-4.8984,-4.8883,-4.8815,-4.8646,-4.824,-4.7902,-4.78,-4.7462,-4.7124,-4.6836,-4.6786,-4.6397,-4.5788,-4.5686,-4.5382,-4.4818,-4.4705,-4.4682,-4.4615,-4.4598,-4.4598,-4.4598,-4.4598,-4.4598,-4.4598,-4.4598,-4.4626,-4.472,-4.464,-4.4722,-4.4892,-4.4976,-4.4858,-4.4722,-4.4337,-4.3984,-4.3563,-4.322,-4.2509,-4.1792,-4.1579,-4.1374,-4.0886,-4.061,-4.0748,-4.0459,-4.0037,-3.9767,-3.9572,-3.9163,-3.8629,-3.8387,-3.8198,-3.7974,-3.7853,-3.8215,-3.8353,-3.8267,-3.8025,-3.7629,-3.7318,-3.7146,-3.6853,-3.649,-3.6456,-3.6611,-3.6456,-3.6249,-3.6284,-3.6284,-3.6284,-3.599,-3.5904,-3.5714,-3.5352,-4.9018,-4.9018,-4.9018,-4.9864,-5.1083,-5.1202,-5.2097,-5.3348,-5.3518,-5.3518,-5.3467,-5.3162,-5.3095,-5.2858,-5.235,-5.1944,-5.1877,-5.1319,-5.1234,-5.1185,-5.0947,-5.0879,-5.0608,-5.0152,-4.9746,-4.9576,-4.9357,-4.9069,-4.9018,-4.9018,-4.9018,-4.9018,-4.9018,-4.9018,-4.9018,-4.9018,-4.9018,-4.9018,-4.9018,-4.9018,-4.9018,-4.9018,-4.9001,-4.8984,-4.8714,-4.8578,-4.8562,-4.8156,-4.7919,-4.7597,-4.7547,-4.7175,-4.6583,-4.643,-4.6075,-4.5517,-4.5314,-4.506,-4.4784,-4.4598,-4.4598,-4.4632,-4.4598,-4.4598,-4.4598,-4.4598,-4.4626,-4.4682,-4.4748,-4.4803,-4.4852,-4.4944,-4.4939,-4.4957,-4.4685,-4.4342,-4.3981,-4.3742,-4.3245,-4.2603,-4.221,-4.1861,-4.1426,-4.1094,-4.1125,-4.0874,-4.045,-4.035,-4.0195,-3.9772,-3.9301,-3.9077,-3.887,-3.8663,-3.8629,-3.8957,-3.9008,-3.8836,-3.8629,-3.8318,-3.8043,-3.7784,-3.7525,-3.7249,-3.7094,-3.6956,-3.6577,-3.628,-3.6284,-3.6284,-3.6284,-3.6284,-3.6128,-3.6077,-3.6025,-4.9018,-4.9018,-4.9018,-4.9864,-5.1099,-5.1234,-5.2097,-5.3331,-5.3518,-5.3518,-5.3501,-5.3501,-5.3484,-5.3315,-5.301,-5.2723,-5.2655,-5.23,-5.2046,-5.1961,-5.1674,-5.1623,-5.1352,-5.0879,-5.0541,-5.027,-4.9796,-4.9407,-4.9424,-4.9137,-4.9035,-4.9018,-4.9018,-4.9018,-4.9018,-4.9018,-4.9018,-4.9018,-4.9018,-4.9018,-4.9018,-4.9018,-4.9018,-4.9001,-4.8968,-4.8968,-4.9001,-4.8934,-4.8815,-4.8409,-4.8173,-4.7919,-4.7411,-4.709,-4.6802,-4.6329,-4.6041,-4.5821,-4.5551,-4.5461,-4.5444,-4.5106,-4.4818,-4.4615,-4.4598,-4.4598,-4.4598,-4.4626,-4.4692,-4.4692,-4.4748,-4.4886,-4.494,-4.494,-4.4865,-4.4551,-4.4412,-4.4156,-4.3829,-4.3204,-4.2828,-4.2456,-4.2048,-4.1801,-4.1605,-4.1239,-4.087,-4.0808,-4.071,-4.0257,-3.9921,-3.9749,-3.9686,-3.96,-3.9554,-3.9687,-3.9669,-3.9422,-3.9215,-3.8986,-3.8784,-3.8525,-3.8267,-3.7939,-3.7594,-3.7163,-3.6551,-3.6276,-3.6362,-3.6366,-3.628,-3.6301,-3.6284,-3.6284,-3.6284,-4.9018,-4.9018,-4.9018,-4.983,-5.0999,-5.1251,-5.2147,-5.3467,-5.3518,-5.3518,-5.3518,-5.3518,-5.3518,-5.3518,-5.345,-5.3399,-5.3365,-5.3315,-5.3264,-5.3129,-5.2587,-5.2435,-5.2114,-5.164,-5.1319,-5.098,-5.0541,-5.0033,-4.9999,-4.9323,-4.9018,-4.9018,-4.9018,-4.9018,-4.9018,-4.9018,-4.9018,-4.9018,-4.9018,-4.9018,-4.9018,-4.9018,-4.9018,-4.9018,-4.9018,-4.9018,-4.9018,-4.8984,-4.8968,-4.89,-4.89,-4.8511,-4.8159,-4.7953,-4.7479,-4.7056,-4.6836,-4.6616,-4.6532,-4.643,-4.6244,-4.5737,-4.5213,-4.4869,-4.4649,-4.4699,-4.4784,-4.4666,-4.4626,-4.4626,-4.4626,-4.4709,-4.4793,-4.4848,-4.4886,-4.4773,-4.4718,-4.4521,-4.4183,-4.3823,-4.3593,-4.3186,-4.262,-4.2332,-4.2215,-4.1715,-4.1359,-4.1086,-4.0923,-4.0568,-4.0316,-4.0371,-4.0377,-4.0556,-4.0517,-4.0266,-4.0208,-3.9954,-3.9829,-3.964,-3.9445,-3.9279,-3.9032,-3.8636,-3.7991,-3.7508,-3.7193,-3.684,-3.6582,-3.653,-3.656,-3.6362,-3.6379,-3.6318,-3.6301,-4.9018,-4.9018,-4.9018,-4.956,-5.049,-5.1539,-5.2587,-5.3433,-5.3518,-5.3518,-5.3518,-5.3518,-5.3518,-5.3518,-5.3501,-5.3518,-5.3518,-5.3501,-5.3484,-5.3348,-5.3179,-5.3162,-5.2875,-5.2384,-5.208,-5.1742,-5.1285,-5.0659,-5.0067,-4.9407,-4.9052,-4.9018,-4.9018,-4.9018,-4.9018,-4.9018,-4.9018,-4.9018,-4.9018,-4.9018,-4.9018,-4.9018,-4.9018,-4.9018,-4.9018,-4.9018,-4.9018,-4.9018,-4.9018,-4.9018,-4.9018,-4.8798,-4.8781,-4.8663,-4.8359,-4.7648,-4.7175,-4.6769,-4.6786,-4.6802,-4.6718,-4.6583,-4.6261,-4.5483,-4.5156,-4.5004,-4.5094,-4.4891,-4.4649,-4.4598,-4.4598,-4.4654,-4.4682,-4.4737,-4.4765,-4.4737,-4.4709,-4.4614,-4.4338,-4.4287,-4.4045,-4.3809,-4.325,-4.3098,-4.2932,-4.233,-4.1882,-4.1595,-4.1189,-4.0856,-4.0512,-4.0568,-4.0558,-4.0607,-4.0607,-4.0384,-4.0487,-4.0487,-4.0312,-4.0158,-4.0089,-3.9924,-3.9725,-3.929,-3.859,-3.8291,-3.8129,-3.774,-3.7274,-3.7041,-3.7002,-3.6689,-3.6461,-3.6392,-3.6272,-4.9018,-4.9018,-4.9018,-4.9424,-5.0236,-5.1369,-5.2317,-5.2993,-5.3365,-5.3518,-5.3518,-5.3518,-5.3518,-5.3518,-5.3518,-5.3518,-5.3518,-5.3518,-5.3518,-5.3518,-5.3518,-5.3467,-5.3247,-5.3044,-5.2858,-5.2503,-5.2063,-5.1454,-5.0727,-4.9881,-4.9407,-4.9018,-4.9018,-4.9018,-4.9018,-4.9018,-4.9018,-4.9018,-4.9018,-4.9018,-4.9018,-4.9018,-4.9018,-4.9018,-4.9018,-4.9018,-4.9018,-4.9018,-4.9018,-4.9018,-4.9018,-4.9001,-4.9001,-4.8968,-4.8917,-4.8291,-4.8071,-4.7834,-4.7834,-4.7784,-4.7547,-4.7394,-4.7445,-4.6853,-4.6041,-4.5635,-4.5432,-4.5179,-4.4852,-4.4598,-4.4598,-4.4598,-4.4598,-4.4598,-4.4598,-4.4598,-4.4598,-4.4598,-4.4581,-4.4564,-4.4462,-4.4282,-4.4079,-4.3944,-4.3656,-4.3047,-4.2608,-4.2313,-4.1807,-4.1231,-4.0738,-4.0455,-4.047,-4.0461,-4.0461,-4.0461,-4.0485,-4.051,-4.049,-4.0404,-4.051,-4.0363,-4.0018,-3.962,-3.9146,-3.8883,-3.8637,-3.8408,-3.8048,-3.7814,-3.7615,-3.7494,-3.7075,-3.6552,-3.6393,-4.9018,-4.9018,-4.9018,-4.9424,-5.0118,-5.0862,-5.1539,-5.2266,-5.301,-5.345,-5.3484,-5.3518,-5.3518,-5.3518,-5.3518,-5.3518,-5.3518,-5.3518,-5.3518,-5.3518,-5.3518,-5.3518,-5.3518,-5.3484,-5.3281,-5.3145,-5.2824,-5.2215,-5.1809,-5.0777,-4.961,-4.9103,-4.9018,-4.9018,-4.9018,-4.9018,-4.9018,-4.9018,-4.9018,-4.9018,-4.9018,-4.9018,-4.9018,-4.9018,-4.9018,-4.9018,-4.9018,-4.9018,-4.9018,-4.9018,-4.9018,-4.9018,-4.9018,-4.9001,-4.8951,-4.8917,-4.8714,-4.868,-4.8629,-4.8612,-4.8409,-4.8376,-4.8545,-4.8037,-4.7276,-4.6532,-4.6261,-4.5551,-4.5145,-4.4801,-4.4699,-4.4632,-4.4598,-4.4598,-4.4598,-4.4598,-4.4598,-4.4598,-4.4598,-4.4598,-4.4564,-4.4445,-4.4429,-4.4231,-4.4147,-4.3673,-4.3436,-4.3149,-4.2574,-4.1873,-4.1273,-4.0722,-4.0645,-4.0619,-4.0345,-4.037,-4.0412,-4.0436,-4.0436,-4.0436,-4.0362,-4.0309,-4.0246,-3.9935,-3.9658,-3.9275,-3.9007,-3.8973,-3.887,-3.8482,-3.8322,-3.8311,-3.7837,-3.7124,-3.6718,-4.9018,-4.9018,-4.9018,-4.9424,-5.0067,-5.027,-5.0794,-5.1522,-5.2266,-5.2892,-5.3416,-5.3484,-5.3518,-5.3518,-5.3518,-5.3518,-5.3518,-5.3518,-5.3518,-5.3518,-5.3518,-5.3518,-5.3518,-5.3518,-5.3518,-5.3467,-5.3213,-5.2807,-5.2097,-5.098,-5.0067,-4.9779,-4.9441,-4.912,-4.9103,-4.9086,-4.9018,-4.8877,-4.9001,-4.894,-4.8861,-4.897,-4.9018,-4.9018,-4.9018,-4.9018,-4.9018,-4.9018,-4.9018,-4.9018,-4.9018,-4.9018,-4.9018,-4.9018,-4.9018,-4.9018,-4.9018,-4.9018,-4.9018,-4.9018,-4.8832,-4.8815,-4.8849,-4.8748,-4.8376,-4.775,-4.7005,-4.616,-4.55,-4.5128,-4.4902,-4.4801,-4.4682,-4.4682,-4.4649,-4.4649,-4.4632,-4.4598,-4.4598,-4.4598,-4.4598,-4.4598,-4.4598,-4.4564,-4.4496,-4.4384,-4.4333,-4.4062,-4.3504,-4.2844,-4.2178,-4.162,-4.112,-4.0942,-4.0595,-4.0365,-4.0458,-4.0314,-4.0263,-4.0221,-4.0213,-4.022,-4.0226,-4.0341,-4.0185,-3.9802,-3.9699,-4.0021,-3.9833,-3.9289,-3.9003,-3.8969,-3.8523,-3.7819,-3.7376,-4.9018,-4.9018,-4.9018,-4.9221,-4.956,-4.961,-5.0033,-5.071,-5.1166,-5.1758,-5.257,-5.3145,-5.3501,-5.3501,-5.3518,-5.3518,-5.3518,-5.3518,-5.3518,-5.3518,-5.3518,-5.3518,-5.3518,-5.3518,-5.3518,-5.3501,-5.345,-5.3044,-5.23,-5.1725,-5.1048,-5.0541,-4.9915,-4.9475,-4.9424,-4.9207,-4.8832,-4.853,-4.8798,-4.8781,-4.8688,-4.8798,-4.897,-4.9018,-4.9018,-4.9018,-4.9018,-4.9018,-4.9018,-4.9018,-4.9018,-4.9018,-4.9018,-4.9018,-4.9018,-4.9018,-4.9018,-4.9018,-4.9018,-4.9018,-4.9018,-4.9018,-4.9001,-4.8866,-4.8866,-4.8274,-4.7936,-4.7124,-4.6397,-4.5974,-4.5923,-4.5855,-4.55,-4.5348,-4.5196,-4.5094,-4.4852,-4.4598,-4.4598,-4.4598,-4.4598,-4.4598,-4.4598,-4.4598,-4.4547,-4.4547,-4.4581,-4.4581,-4.4096,-4.3758,-4.3098,-4.2557,-4.21,-4.1441,-4.0951,-4.0705,-4.0604,-4.0383,-4.0197,-4.0138,-4.018,-4.0188,-4.0221,-4.0279,-4.0328,-4.0277,-4.0319,-4.0485,-4.041,-3.9876,-3.9698,-3.9647,-3.9091,-3.8587,-3.8309,-4.9018,-4.9018,-4.9018,-4.9018,-4.9018,-4.9018,-4.9373,-4.9915,-5.0101,-5.0574,-5.1454,-5.2756,-5.3281,-5.3348,-5.3501,-5.3518,-5.3518,-5.3518,-5.3518,-5.3518,-5.3518,-5.3518,-5.3518,-5.3518,-5.3518,-5.3518,-5.3484,-5.3129,-5.2604,-5.2131,-5.1691,-5.1268,-5.0744,-5.0168,-4.9915,-4.9369,-4.8714,-4.8373,-4.8338,-4.8401,-4.845,-4.8593,-4.8909,-4.9018,-4.9018,-4.9018,-4.9018,-4.9018,-4.9018,-4.9018,-4.9018,-4.9018,-4.9018,-4.9018,-4.9018,-4.9018,-4.9018,-4.9018,-4.9018,-4.9018,-4.9018,-4.9018,-4.9018,-4.9001,-4.8984,-4.8832,-4.8477,-4.8054,-4.7327,-4.6853,-4.6819,-4.6667,-4.6278,-4.5788,-4.5602,-4.5365,-4.4987,-4.4632,-4.4598,-4.4598,-4.4615,-4.4615,-4.4598,-4.4598,-4.4598,-4.4598,-4.4598,-4.4598,-4.4513,-4.4282,-4.3859,-4.3504,-4.3193,-4.2422,-4.1542,-4.1271,-4.1179,-4.0696,-4.0527,-4.029,-4.013,-4.0138,-4.0146,-4.0146,-4.0171,-4.0263,-4.0362,-4.0461,-4.036,-4.0252,-4.0199,-4.0029,-3.9789,-3.9359,-3.9265,-4.9018,-4.9018,-4.9018,-4.9018,-4.9018,-4.9018,-4.9086,-4.9306,-4.9864,-5.0507,-5.1234,-5.1995,-5.2536,-5.2587,-5.3264,-5.3484,-5.3518,-5.3518,-5.3518,-5.3518,-5.3518,-5.3518,-5.3518,-5.3518,-5.3518,-5.3518,-5.3518,-5.3399,-5.301,-5.257,-5.2266,-5.2063,-5.1369,-5.0695,-4.9974,-4.9365,-4.8645,-4.8166,-4.7967,-4.8096,-4.8274,-4.8498,-4.8909,-4.9018,-4.9018,-4.9018,-4.9018,-4.9018,-4.9018,-4.9018,-4.9018,-4.9018,-4.9018,-4.9018,-4.9018,-4.9018,-4.9018,-4.9018,-4.9018,-4.9018,-4.9018,-4.9018,-4.9018,-4.9001,-4.9001,-4.9001,-4.8765,-4.8697,-4.8054,-4.7428,-4.7259,-4.709,-4.6735,-4.5991,-4.5551,-4.5246,-4.4919,-4.4733,-4.4632,-4.4649,-4.4666,-4.4632,-4.4598,-4.4598,-4.4598,-4.4598,-4.4598,-4.4598,-4.4598,-4.4564,-4.4547,-4.4293,-4.4022,-4.3311,-4.2354,-4.2117,-4.1897,-4.1356,-4.0882,-4.0646,-4.0409,-4.0146,-4.0096,-4.0096,-4.0171,-4.0288,-4.0362,-4.0436,-4.0412,-4.0328,-4.0419,-4.0368,-4.017,-3.9977,-3.9748]},{"header":{"parameterUnit":"m.s-1","parameterCategory":1,"la1":31.0,"la2":29.5877,"lo1":-88.7671,"lo2":-86.6584,"dy":0.0162,"dx":0.0185,"nx":115,"ny":88,"refTime":"2026-03-09T12:00:00:Z","depth":0,"parameterNumber":3,"parameterNumberName":"V-component_of_WINDS"},"data":[0.0,0.0,0.0,0.0,0.0,0.0,0.0,0.0,0.0,0.0,0.0,0.0,0.0,0.0,0.0,0.0,0.0,0.0,0.0,0.0,0.0,0.0,0.0,0.0,0.0,0.0,0.0,0.0,0.0,0.0,0.0,0.0,0.0,0.0,0.0,0.0,0.0,0.0,0.0,0.0,0.0,0.0,0.0,0.0,0.0,0.0,0.0,0.0,0.0,0.0,0.0,0.0,0.0,0.0,0.0,0.0,0.0,0.0,0.0,0.0,0.0,0.0,0.0,0.0,0.0,0.0,0.0,0.0,0.0,0.0,0.0,0.0,0.0,0.0,0.0,0.0,0.0,0.0,0.0,0.0,0.0,0.0,0.0,0.0,0.0,0.0,0.0,0.0,0.0,0.0,0.0,0.0,0.0,0.0,0.0,0.0,0.0,0.0,0.0,0.0,0.0,0.0,0.0,0.0,0.0,0.0,0.0,0.0,0.0,0.0,0.0,0.0,0.0,0.0,0.0,0.0,0.0,0.0,0.0,0.0,0.0,0.0,0.0,0.0,0.0,0.0,0.0,0.0,0.0,0.0,0.0,0.0,0.0,0.0,0.0,0.0,0.0,0.0,0.0,0.0,0.0,0.0,0.0,0.0,0.0,0.0,0.0,0.0,0.0,0.0,0.0,0.0,0.0,0.0,0.0,0.0,0.0,0.0,0.0,0.0,0.0,0.0,0.0,0.0,0.0,0.0,0.0,0.0,0.0,0.0,0.0,0.0,0.0,0.0,0.0,0.0,0.0,0.0,0.0,0.0,0.0,0.0,0.0,0.0,0.0,0.0,0.0,0.0,0.0,0.0,0.0,0.0,0.0,0.0,0.0,0.0,0.0,0.0,0.0,0.0,0.0,0.0,0.0,0.0,0.0,0.0,0.0,0.0,0.0,0.0,0.0,0.0,0.0,0.0,0.0,0.0,0.0,0.0,0.0,0.0,0.0,0.0,0.0,0.0,0.0,0.0,0.0,0.0,0.0,0.0,0.0,0.0,0.0,0.0,0.0,0.0,0.0,0.0,0.0,0.0,0.0,0.0,0.0,0.0,0.0,0.0,0.0,0.0,0.0,0.0,0.0,0.0,0.0,0.0,0.0,0.0,0.0,0.0,0.0,0.0,0.0,0.0,0.0,0.0,0.0,0.0,0.0,0.0,0.0,0.0,0.0,0.0,0.0,0.0,0.0,0.0,0.0,0.0,0.0,0.0,0.0,0.0,0.0,0.0,0.0,0.0,0.0,0.0,0.0,0.0,0.0,0.0,0.0,0.0,0.0,0.0,0.0,0.0,0.0,0.0,0.0,0.0,0.0,0.0,0.0,0.0,0.0,0.0,0.0,0.0,0.0,0.0,0.0,0.0,0.0,0.0,0.0,0.0,0.0,0.0,0.0,0.0,0.0,0.0,0.0,0.0,0.0,0.0,0.0,0.0,0.0,0.0,0.0,0.0,0.0,0.0,0.0,0.0,0.0,0.0,0.0,0.0,0.0,0.0,0.0,0.0,0.0,0.0,0.0,0.0,0.0,0.0,0.0,0.0,0.0,0.0,0.0,0.0,0.0,0.0,0.0,0.0,0.0,0.0,0.0,0.0,0.0,0.0,0.0,0.0,0.0,0.0,0.0,0.0,0.0,0.0,0.0,0.0,0.0,0.0,0.0,0.0,0.0,0.0,0.0,0.0,0.0,0.0,0.0,0.0,0.0,0.0,0.0,0.0,0.0,0.0,0.0,0.0,0.0,0.0,0.0,0.0,0.0,0.0,0.0,0.0,0.0,0.0,0.0,0.0,0.0,0.0,0.0,0.0,0.0,0.0,0.0,0.0,0.0,0.0,0.0,0.0,0.0,0.0,0.0,0.0,0.0,0.0,0.0,0.0,0.0,0.0,0.0,0.0,0.0,0.0,0.0,0.0,0.0,0.0,0.0,0.0,0.0,0.0,0.0,0.0,0.0,0.0,0.0,0.0,0.0,0.0,0.0,0.0,0.0,0.0,0.0,0.0,0.0,0.0,0.0,0.0,0.0,0.0,0.0,0.0,0.0,0.0,0.0,0.0,0.0,0.0,0.0,0.0,0.0,0.0,0.0,0.0,0.0,0.0,0.0,0.0,0.0,0.0,0.0,0.0,0.0,0.0,0.0,0.0,0.0,0.0,0.0,0.0,0.0,0.0,0.0,0.0,0.0,0.0,0.0,0.0,0.0,0.0,0.0,0.0,0.0,0.0,0.0,0.0,0.0,0.0,0.0,0.0,0.0,0.0,0.0,0.0,0.0,0.0,0.0,0.0,0.0,0.0,0.0,0.0,0.0,0.0,0.0,0.0,0.0,0.0,0.0,0.0,0.0,0.0,0.0,0.0,0.0,0.0,0.0,0.0,0.0,0.0,0.0,0.0,0.0,0.0,0.0,0.0,0.0,0.0,0.0,0.0,0.0,0.0,0.0,0.0,0.0,0.0,0.0,0.0,0.0,0.0,0.0,0.0,0.0,0.0,0.0,0.0,0.0,0.0,0.0,0.0,0.0,0.0,0.0,0.0,0.0,0.0,0.0,0.0,0.0,0.0,0.0,0.0,0.0,0.0,0.0,0.0,0.0,0.0,0.0,0.0,0.0,0.0,0.0,0.0,0.0,0.0,0.0,0.0,0.0,0.0,0.0,0.0,0.0,0.0,0.0,0.0,0.0,0.0,0.0,0.0,0.0,0.0,0.0,0.0,0.0,0.0,0.0,0.0,0.0,0.0,0.0,0.0,0.0,0.0,0.0,0.0,0.0,0.0,0.0,0.0,0.0,0.0,0.0,0.0,0.0,0.0,0.0,0.0,0.0,0.0,0.0,0.0,0.0,0.0,0.0,0.0,0.0,0.0,0.0,0.0,0.0,0.0,0.0,0.0,0.0,0.0,0.0,0.0,0.0,0.0,0.0,0.0,0.0,0.0,0.0,0.0,0.0,0.0,0.0,0.0,0.0,0.0,0.0,0.0,0.0,0.0,0.0,0.0,0.0,0.0,0.0,0.0,0.0,0.0,0.0,0.0,0.0,0.0,0.0,0.0,0.0,0.0,0.0,0.0,0.0,0.0,0.0,0.0,0.0,0.0,0.0,0.0,0.0,0.0,0.0,0.0,0.0,0.0,0.0,0.0,0.0,0.0,0.0,0.0,0.0,0.0,0.0,0.0,0.0,0.0,0.0,0.0,0.0,0.0,0.0,0.0,0.0,0.0,0.0,0.0,0.0,0.0,0.0,0.0,0.0,0.0,0.0,0.0,0.0,0.0,0.0,0.0,0.0,0.0,0.0,0.0,0.0,0.0,0.0,0.0,0.0,0.0,0.0,0.0,0.0,0.0,0.0,0.0,0.0,0.0,0.0,0.0,0.0,0.0,0.0,0.0,0.0,0.0,0.0,0.0,0.0,0.0,0.0,0.0,0.0,0.0,0.0,0.0,0.0,0.0,0.0,0.0,0.0,0.0,0.0,0.0,0.0,0.0,0.0,0.0,0.0,0.0,0.0,0.0,0.0,0.0,0.0,0.0,0.0,0.0,0.0,0.0,0.0,0.0,0.0,0.0,0.0,0.0,0.0,0.0,0.0,0.0,0.0,0.0,0.0,0.0,0.0,0.0,0.0,0.0,0.0,0.0,0.0,0.0,0.0,0.0,0.0,0.0,0.0,0.0,0.0,0.0,0.0,0.0,0.0,0.0,0.0,0.0,0.0,0.0,0.0,0.0,0.0,0.0,0.0,0.0,0.0,0.0,0.0,0.0,0.0,0.0,0.0,0.0,0.0,0.0,0.0,0.0,0.0,0.0,0.0,0.0,0.0,0.0,0.0,0.0,0.0,0.0,0.0,0.0,0.0,0.0,0.0,0.0,0.0,0.0,0.0,0.0,0.0,0.0,0.0,0.0,0.0,0.0,0.0,0.0,0.0,0.0,0.0,0.0,0.0,0.0,0.0,0.0,0.0,0.0,0.0,0.0,0.0,0.0,0.0,0.0,0.0,0.0,0.0,0.0,0.0,0.0,0.0,0.0,0.0,0.0,0.0,0.0,0.0,0.0,0.0,0.0,0.0,0.0,0.0,0.0,0.0,0.0,0.0,0.0,0.0,0.0,0.0,0.0,0.0,0.0,0.0,0.0,0.0,0.0,0.0,0.0,0.0,0.0,0.0,0.0,0.0,0.0,0.0,0.0,0.0,0.0,0.0,0.0,0.0,0.0,0.0,0.0,0.0,0.0,0.0,0.0,0.0,0.0,0.0,0.0,0.4204,0.0,0.0,0.0,0.0,0.0,0.0,0.0,0.0,0.0,0.0,0.0,0.0,0.0,0.0,0.0,0.0,0.0,0.0,0.0,0.0,0.0,0.0,0.0,0.0,0.0,0.0,0.0,0.0,0.0,0.0,0.0,0.0,0.0,0.0,0.0,0.0,0.0,0.0,0.0,0.0,0.0,0.0,0.0,0.0,0.0,0.0,0.0,0.0,0.0,0.0,0.0,0.0,0.0,0.0,0.0,0.0,0.0,0.0,0.0,0.0,0.0,0.0,0.0,0.0,0.0,0.0,0.0,0.0,0.0,0.0,0.0,0.0,0.0,0.0,0.0,0.0,0.0,0.0,0.0,0.0,0.0,0.0,0.0,0.0,0.0,0.0,0.0,0.0,0.0,0.0,0.0,0.0,0.0,0.0,0.0,0.0,0.0,0.0,0.0,0.0,0.0,0.0,0.0,0.0,0.0,0.0,0.0,0.0,0.0,0.0,0.4491,0.4491,0.4491,0.4395,0.4204,0.0,0.0,0.0,0.0,0.0,0.0,0.0,0.0,0.0,0.0,0.0,0.0,0.0,0.0,0.0,0.0,0.0,0.0,0.0,0.0,0.0,0.0,0.0,0.0,0.0,0.0,0.0,0.0,0.0,0.0,0.0,0.0,0.0,0.0,0.0,0.0,0.0,0.0,0.0,0.0,0.0,0.0,0.0,0.0,0.0,0.0,0.0,0.0,0.0,0.0,0.0,0.0,0.0,0.0,0.0,0.0,0.0,0.0,0.0,0.0,0.0,0.0,0.0,0.0,0.0,0.0,0.0,0.0,0.0,0.0,0.0,0.0,0.0,0.0,0.0,0.0,0.0,0.0,0.0,0.0,0.0,0.0,0.0,0.0,0.0,0.0,0.0,0.0,0.0,0.0,0.0,0.0,0.0,0.0,0.0,0.0,0.0,0.0,0.0,0.0,0.0,0.0,0.0,0.0,0.0,0.0,0.0,0.0,0.0,0.0,0.0,0.0,0.4622,0.4539,0.4382,0.0,0.0,0.0,0.0,0.0,0.0,0.0,0.0,0.0,0.0,0.0,0.0,0.0,0.0,0.0,0.0,0.0,0.0,0.0,0.0,0.0,0.0,0.0,0.0,0.0,0.0,0.0,0.0,0.0,0.0,0.0,0.0,0.0,0.0,0.0,0.0,0.0,0.0,0.0,0.0,0.0,0.0,0.0,0.0,0.0,0.0,0.0,0.0,0.0,0.0,0.0,0.0,0.0,0.0,0.0,0.0,0.0,0.0,0.0,0.0,0.0,0.0,0.0,0.0,0.0,0.0,0.0,0.0,0.0,0.0,0.0,0.0,0.0,0.0,0.0,0.0,0.0,0.0,0.0,0.0,0.0,0.0,0.0,0.0,0.0,0.0,0.0,0.0,0.0,0.0,0.0,0.0,0.0,0.0,0.0,0.0,0.0,0.0,0.0,0.0,0.0,0.0,0.0,0.0,0.0,0.0,0.0,0.0,0.0,0.0,0.4741,0.4867,0.4987,0.0,0.486,0.0,0.0,0.0,0.0,0.0,0.0,0.0,0.0,0.0,0.0,0.0,0.0,0.0,0.0,0.0,0.0,0.0,0.0,0.0,0.0,0.0,0.0,0.0,0.0,0.0,0.0,0.0,0.0,0.0,0.0,0.0,0.0,0.0,0.0,0.0,0.0,0.0,0.0,0.0,0.0,0.0,0.0,0.0,0.0,0.0,0.0,0.0,0.0,0.0,0.0,0.0,0.0,0.0,0.0,0.0,0.0,0.0,0.0,0.0,0.0,0.0,0.0,0.0,0.0,0.0,0.0,0.0,0.0,0.0,0.0,0.0,0.0,0.0,0.0,0.0,0.0,0.0,0.0,0.0,0.0,0.0,0.0,0.0,0.0,0.0,0.0,0.0,0.0,0.0,0.0,0.0,0.0,0.0,0.0,0.0,0.0,0.0,0.0,0.0,0.0,0.0,0.0,0.0,0.0,0.0,0.0,0.0,0.0,0.0,0.0,0.4855,0.4918,0.4889,0.51,0.0,0.0,0.0,0.0,0.0,0.0,0.0,0.0,0.0,0.0,0.0,0.0,0.0,0.0,0.0,0.0,0.0,0.0,0.0,0.0,0.0,0.0,0.0,0.0,0.0,0.0,0.0,0.0,0.0,0.0,0.0,0.0,0.0,0.0,0.0,0.0,0.0,0.0,0.0,0.0,0.0,0.0,0.0,0.0,0.0,0.0,0.0,0.0,0.0,0.0,0.0,0.0,0.0,0.0,0.0,0.0,0.0,0.0,0.0,0.0,0.0,0.0,0.0,0.0,0.0,0.0,0.0,0.0,0.0,0.0,0.0,0.0,0.0,0.0,0.0,0.0,0.0,0.0,0.0,0.0,0.0,0.0,0.0,0.0,0.0,0.0,0.0,0.0,0.0,0.0,0.0,0.0,0.0,0.0,0.0,0.0,0.0,0.0,0.0,0.0,0.0,0.0,0.0,0.0,0.0,0.0,0.0,0.0,0.0,0.0,0.5047,0.5157,0.5399,0.5297,0.5551,0.6206,0.0,0.0,0.0,0.0,0.0,0.0,0.0,0.0,0.0,0.0,0.0,0.0,0.0,0.0,0.0,0.0,0.0,0.0,0.0,0.0,0.0,0.0,0.0,0.0,0.0,0.0,0.0,0.0,0.0,0.0,0.0,0.0,0.0,0.0,0.0,0.0,0.0,0.0,0.0,0.0,0.0,0.0,0.0,0.0,0.0,0.0,0.0,0.0,0.0,0.0,0.0,0.0,0.0,0.0,0.0,0.0,0.0,0.0,0.0,0.0,0.0,0.0,0.0,0.0,0.0,0.0,0.0,0.0,0.0,0.0,0.0,0.0,0.0,0.0,0.0,0.0,0.0,0.0,0.0,0.0,0.0,0.0,0.0,0.0,0.0,0.0,0.0,0.0,0.0,0.0,0.0,0.0,0.0,0.0,0.0,0.0,0.0,0.0,0.0,0.0,0.0,0.0,0.0,0.0,0.0,0.0,0.0,0.0,0.0,0.5589,0.5789,0.6661,0.6572,0.6442,0.0,0.0,0.0,0.0,0.0,0.0,0.0,0.0,0.0,0.0,0.0,0.0,0.0,0.0,0.0,0.0,0.0,0.0,0.0,0.0,0.0,0.0,0.0,0.0,0.0,0.0,0.0,0.0,0.0,0.0,0.0,0.0,0.0,0.0,0.0,0.0,0.0,0.0,0.0,0.0,0.0,0.0,0.0,0.0,0.0,0.0,0.0,0.0,0.0,0.0,0.0,0.0,0.0,0.0,0.0,0.0,0.0,0.0,0.0,0.0,0.0,0.0,0.0,0.0,0.0,0.0,0.0,0.0,0.0,0.0,0.0,0.0,0.0,0.0,0.0,0.0,0.0,0.0,0.0,0.0,0.0,0.0,0.0,0.0,0.0,0.0,0.0,0.0,0.0,0.0,0.0,0.0,0.0,0.0,0.0,0.0,0.0,0.0,0.0,0.0,0.0,0.0,0.0,0.0,0.0,0.0,0.0,0.0,0.0,0.6011,0.5622,0.6228,0.7802,0.6728,0.6536,0.0,0.0,0.0,0.0,0.0,0.0,0.0,0.0,0.0,0.0,0.0,0.0,0.0,0.0,0.0,0.0,0.0,0.0,0.0,0.0,0.0,0.0,0.0,0.0,0.0,0.0,0.0,0.0,0.0,0.0,0.0,0.0,0.0,0.0,0.0,0.0,0.0,0.0,0.0,0.0,0.0,0.0,0.0,0.0,0.0,0.0,0.0,0.0,0.0,0.0,0.0,0.0,0.0,0.0,0.0,0.0,0.0,0.0,0.0,0.0,0.0,0.0,0.0,0.0,0.0,0.0,0.0,0.0,0.0,0.0,0.0,0.0,0.0,0.0,0.0,0.0,0.0,0.0,0.0,0.0,0.0,0.0,0.0,0.0,0.0,0.0,0.0,0.0,0.0,0.0,0.0,0.0,0.0,0.0,0.0,0.0,0.0,0.0,0.0,0.0,0.0,0.0,0.0,0.0,0.0,0.0,0.0,0.0,0.0,0.6285,0.0,0.7112,0.0,0.724,0.6961,0.0,0.0,0.0,0.0,0.0,0.0,0.0,0.0,0.0,0.0,0.0,0.0,0.0,0.0,0.0,0.0,0.0,0.0,0.0,0.0,0.0,0.0,0.0,0.0,0.0,0.0,0.0,0.0,0.0,0.0,0.0,0.0,0.0,0.0,0.0,0.0,0.0,0.0,0.0,0.0,0.0,0.0,0.0,0.0,0.0,0.0,0.0,0.0,0.0,0.0,0.0,0.0,0.0,0.0,0.0,0.0,0.0,0.0,0.0,0.0,0.0,0.0,0.0,0.0,0.0,0.0,0.0,0.0,0.0,0.0,0.0,0.0,0.0,0.0,0.0,0.0,0.0,0.0,0.0,0.0,0.0,0.0,0.0,0.0,0.0,0.0,0.0,0.0,0.0,0.0,0.0,0.0,0.0,0.0,0.0,0.0,0.0,0.0,0.0,0.0,0.0,0.0,0.0,0.0,0.0,0.0,0.0,0.0,0.6282,0.6933,0.804,0.8501,0.8344,0.8128,0.7773,0.0,0.0,0.0,0.0,0.0,0.0,0.0,0.0,0.0,0.0,0.0,0.0,0.0,0.0,0.0,0.0,0.0,0.0,0.0,0.0,0.0,0.0,0.0,0.0,0.0,0.0,0.0,0.0,0.0,0.0,0.0,0.0,0.0,0.0,0.0,0.0,0.0,0.0,0.0,0.0,0.0,0.0,0.0,0.0,0.0,0.0,0.0,0.0,0.0,0.0,0.0,0.0,0.0,0.0,0.0,0.0,0.0,0.0,0.0,0.0,0.0,0.0,0.0,0.0,0.0,0.0,0.0,0.0,0.0,0.0,0.0,0.0,0.0,0.0,0.0,0.0,0.0,0.0,0.0,0.0,0.0,0.0,0.0,0.0,0.0,0.0,0.0,0.0,0.0,0.0,0.0,0.0,0.0,0.0,0.0,0.0,0.0,0.0,0.0,0.0,0.0,0.0,0.0,0.0,0.0,0.0,0.0,0.0,0.0,0.7357,0.8101,0.8818,0.946,0.8422,0.8195,0.0,0.0,0.0,0.0,0.0,0.0,0.0,0.0,0.0,0.0,0.0,0.0,0.0,0.0,0.0,0.0,0.0,0.0,0.0,0.0,0.0,0.0,0.0,0.0,0.0,0.0,0.0,0.0,0.0,0.0,0.0,0.0,0.0,0.0,0.0,0.0,0.0,0.0,0.0,0.0,0.0,0.0,0.0,0.0,0.0,0.0,0.0,0.0,0.0,0.0,0.0,0.0,0.0,0.0,0.0,0.0,0.0,0.0,0.0,0.0,0.0,0.0,0.0,0.0,0.0,0.0,0.0,0.0,0.0,0.0,0.0,0.0,0.0,0.0,0.0,0.0,0.0,0.0,0.0,0.0,0.0,0.0,0.0,0.0,0.0,0.0,0.0,0.0,0.0,0.0,0.0,0.0,0.0,0.0,0.0,0.0,0.0,0.0,0.0,0.0,0.0,0.0,0.0,0.0,0.0,0.0,0.0,0.0,0.0,0.8878,0.9414,0.9898,1.0275,0.9034,0.8664,0.9262,0.0,0.0,0.0,0.0,0.0,0.0,0.0,0.0,0.0,0.0,0.0,0.0,0.0,0.0,0.0,0.0,0.0,0.0,0.0,0.0,0.0,0.0,0.0,0.0,0.0,0.0,0.0,0.0,0.0,0.0,0.0,0.0,0.0,0.0,0.0,0.0,0.0,0.0,0.0,0.0,0.0,0.0,0.0,0.0,0.0,0.0,0.0,0.0,0.0,0.0,0.0,0.0,0.0,0.0,0.0,0.0,0.0,0.0,0.0,0.0,0.0,0.0,0.0,0.0,0.0,0.0,0.0,0.0,0.0,0.0,0.0,0.0,0.0,0.0,0.0,0.0,0.0,0.0,0.0,0.0,0.0,0.0,0.0,0.0,0.0,0.0,0.0,0.0,0.0,0.0,0.0,0.0,0.0,0.0,0.0,0.0,0.0,0.0,0.0,0.0,0.0,0.0,0.0,0.0,0.0,0.0,0.0,0.0,1.1062,1.1678,1.1584,1.076,0.9939,0.922,0.0,0.0,0.0,0.0,0.0,0.0,0.0,0.0,0.0,0.0,0.0,0.0,0.0,0.0,0.0,0.0,0.0,0.0,0.0,0.0,0.0,0.0,0.0,0.0,0.0,0.0,0.0,0.0,0.0,0.0,0.0,0.0,0.0,0.0,0.0,0.0,0.0,0.0,0.0,0.0,0.0,0.0,0.0,0.0,0.0,0.0,0.0,0.0,0.0,0.0,0.0,0.0,0.0,0.0,0.0,0.0,0.0,0.0,0.0,0.0,0.0,0.0,0.0,0.0,0.0,0.0,0.0,0.0,0.0,0.0,0.0,0.0,0.0,0.0,0.0,0.0,0.0,0.0,0.0,0.0,0.0,0.0,0.0,0.0,0.0,0.0,0.0,0.0,0.0,0.0,0.0,0.0,0.0,0.0,0.0,0.0,0.0,0.0,0.0,0.0,0.0,0.0,0.0,0.0,0.0,0.0,0.0,0.0,0.0,1.1931,1.2545,1.2677,1.2208,1.0844,1.0159,0.0,0.0,0.0,0.0,0.0,0.0,0.0,0.0,0.0,0.0,0.0,0.0,0.0,0.0,0.0,0.0,0.0,0.0,0.0,0.0,0.0,0.0,0.0,0.0,0.0,0.0,0.0,0.0,0.0,0.0,0.0,0.0,0.0,0.0,0.0,0.0,0.0,0.0,0.0,0.0,0.0,0.0,0.0,0.0,0.0,0.0,0.0,0.0,0.0,0.0,0.0,0.0,0.0,0.0,0.0,0.0,0.0,0.0,0.0,0.0,0.0,0.0,0.0,0.0,0.0,0.0,0.0,0.0,0.0,0.0,0.0,0.0,0.0,0.0,0.0,0.0,0.0,0.0,0.0,0.0,0.0,0.0,0.0,0.0,0.0,0.0,0.0,0.0,0.0,0.0,0.0,0.0,0.0,0.0,0.0,0.0,0.0,0.0,0.0,0.0,0.0,0.0,0.0,0.0,0.0,0.0,0.0,0.0,1.1471,1.2472,1.3206,1.3434,1.3133,1.183,1.0976,0.0,0.0,0.0,0.0,0.0,0.0,0.0,0.0,0.0,0.0,0.0,0.0,0.0,0.0,0.0,0.0,0.0,0.0,0.0,0.0,0.0,0.0,0.0,0.0,0.0,0.0,0.0,0.0,0.0,0.0,0.0,0.0,0.0,0.0,0.0,0.0,0.0,0.0,0.0,0.0,0.0,0.0,0.0,0.0,0.0,0.0,0.0,0.0,0.0,0.0,0.0,0.0,0.0,0.0,0.0,0.0,0.0,0.0,0.0,0.0,0.0,0.0,0.0,0.0,0.0,0.0,0.0,0.0,0.0,0.0,0.0,0.0,0.0,0.0,0.0,0.0,0.0,0.0,0.0,0.0,0.0,0.0,0.0,0.0,0.0,0.0,0.0,0.0,0.0,0.0,0.0,0.0,0.0,0.0,0.0,0.0,0.0,0.0,0.0,0.0,0.0,0.0,0.0,0.0,0.0,0.0,0.0,0.0,1.187,1.2817,1.3688,1.3955,1.364,1.2759,1.1617,0.0,0.0,0.0,0.0,0.0,0.0,0.0,0.0,0.0,0.0,0.0,0.0,0.0,0.0,0.0,0.0,0.0,0.0,0.0,0.0,0.0,0.0,0.0,0.0,0.0,0.0,0.0,0.0,0.0,0.0,0.0,0.0,0.0,0.0,0.0,0.0,0.0,0.0,0.0,0.0,0.0,0.0,0.0,0.0,0.0,0.0,0.0,0.0,0.0,0.0,0.0,0.0,0.0,0.0,0.0,0.0,0.0,0.0,0.0,0.0,0.0,0.0,0.0,0.0,0.0,0.0,0.0,0.0,0.0,0.0,0.0,0.0,0.0,0.0,0.0,0.0,0.0,0.0,0.0,0.0,0.0,0.0,0.0,0.0,0.0,0.0,0.0,0.0,0.0,0.0,0.0,0.0,0.0,0.0,0.0,0.0,0.0,0.0,0.0,0.0,0.0,0.0,0.0,0.0,0.0,0.0,0.0,0.0,1.1941,1.3086,1.3748,1.4055,1.3988,1.2672,1.1631,0.0,0.0,0.0,0.0,0.0,0.0,0.0,0.0,0.0,0.0,0.0,0.0,0.0,0.0,0.0,0.0,0.0,0.0,0.0,0.0,0.0,0.0,0.0,0.0,0.0,0.0,0.0,0.0,0.0,0.0,0.0,0.0,0.0,0.0,0.0,0.0,0.0,0.0,0.0,0.0,0.0,0.0,0.0,0.0,0.0,0.0,0.0,0.0,0.4395,0.0,0.0,0.0,0.0,0.0,0.0,0.0,0.0,0.0,0.0,0.0,0.0,0.0,0.0,0.0,0.0,0.0,0.0,0.0,0.0,0.0,0.0,0.0,0.0,0.0,0.0,0.0,0.0,0.0,0.0,0.0,0.0,0.0,0.0,0.0,0.0,0.0,0.0,0.0,0.0,0.0,0.0,0.0,0.0,0.0,0.0,0.0,0.0,0.0,0.0,0.0,0.0,0.0,0.0,0.0,0.0,0.0,0.0,0.0,1.2211,1.334,1.3854,1.4088,1.4041,1.2951,1.1906,0.0,0.0,0.0,0.0,0.0,0.0,0.0,0.0,0.0,0.0,0.0,0.0,0.0,0.0,0.0,0.0,0.0,0.0,0.0,0.0,0.0,0.0,0.0,0.0,0.0,0.0,0.0,0.0,0.0,0.0,0.0,0.0,0.0,0.0,0.0,0.0,0.0,0.0,0.0,0.0,0.0,0.0,0.0,0.0,0.0,0.0,0.0,0.0,0.0,0.0,0.0,0.0,0.0,0.0,0.0,0.0,0.0,0.0,0.0,0.0,0.0,0.0,0.0,0.0,0.0,0.0,0.0,0.0,0.0,0.0,0.0,0.0,0.0,0.0,0.0,0.0,0.0,0.0,0.0,0.0,0.0,0.0,0.0,0.0,0.0,0.0,0.0,0.0,0.0,0.0,0.0,0.0,0.0,0.0,0.0,0.0,0.0,0.0,0.0,0.0,0.0,0.0,0.0,0.0,0.0,0.0,0.0,1.1524,1.2445,1.3553,1.3928,1.4062,1.4008,1.328,1.2281,1.1049,0.0,0.0,0.0,0.0,0.0,0.0,0.0,0.0,0.0,0.0,0.0,0.0,0.0,0.0,0.0,0.0,0.0,0.0,0.0,0.0,0.0,0.0,0.0,0.0,0.0,0.0,0.0,0.0,0.0,0.0,0.0,0.0,0.0,0.0,0.0,0.0,0.0,0.0,0.4773,0.5488,0.0,0.0,0.0,0.0,0.0,0.0,0.0,0.0,0.6034,0.0,0.0,0.0,0.0,0.0,0.0,0.0,0.0,0.0,0.0,0.0,0.0,0.0,0.0,0.0,0.0,0.0,0.0,0.0,0.0,0.0,0.0,0.0,0.0,0.0,0.0,0.0,0.0,0.0,0.0,0.0,0.0,0.0,0.0,0.0,0.0,0.0,0.0,0.0,0.0,0.0,0.0,0.0,0.0,0.0,0.0,0.0,0.0,0.0,0.0,0.0,0.0,0.0,0.0,0.0,0.0,1.1658,1.1832,1.2445,1.3573,1.3935,1.3968,1.368,1.3333,1.2458,1.1062,0.0,0.0,0.0,0.0,0.0,0.0,0.0,0.0,0.0,0.0,0.0,0.0,0.0,0.0,0.0,0.0,0.0,0.0,0.0,0.0,0.0,0.0,0.0,0.0,0.0,0.0,0.0,0.0,0.0,0.0,0.0,0.0,0.0,0.0,0.0,0.0,0.0,0.0,0.0,0.6772,0.7187,0.0,0.0,0.0,0.0,0.0,0.0,0.0,0.0,0.6293,0.0,0.0,0.0,0.0,0.0,0.0,0.0,0.0,0.0,0.0,0.0,0.0,0.0,0.0,0.0,0.0,0.0,0.0,0.0,0.0,0.0,0.0,0.0,0.0,0.0,0.0,0.0,0.0,0.0,0.0,0.0,0.0,0.0,0.0,0.0,0.0,0.0,0.0,0.0,0.0,0.0,0.0,0.0,0.0,0.0,0.0,0.0,0.0,0.0,0.0,0.0,0.0,0.0,0.0,0.0,1.155,1.2127,1.2864,1.3834,1.4015,1.3948,1.36,1.302,1.2191,0.0,0.0,0.0,0.0,0.0,0.0,0.0,0.0,0.0,0.0,0.0,0.0,0.0,0.0,0.0,0.0,0.0,0.0,0.0,0.0,0.0,0.0,0.0,0.0,0.0,0.0,0.0,0.0,0.0,0.0,0.0,0.0,0.0,0.0,0.0,0.0,0.0,0.0,0.0,0.0,0.7652,0.7932,0.8332,0.0,0.0,0.0,0.0,0.0,0.0,0.679,0.66,0.0,0.0,0.0,0.0,0.0,0.0,0.0,0.0,0.0,0.0,0.0,0.0,0.0,0.0,0.0,0.0,0.0,0.0,0.0,0.0,0.0,0.0,0.0,0.0,0.0,0.0,0.0,0.0,0.0,0.0,0.0,0.0,0.0,0.0,0.0,0.0,0.0,0.0,0.0,0.0,0.0,0.0,0.0,0.0,0.0,0.0,0.0,0.0,0.0,0.0,0.0,0.0,0.0,0.0,0.0,1.1362,1.2238,1.3159,1.4035,1.4028,1.3854,1.3513,1.2701,1.1864,0.0,0.0,0.0,0.0,0.0,0.0,0.0,0.0,0.0,0.0,0.0,0.0,0.0,0.0,0.0,0.0,0.0,0.0,0.0,0.0,0.0,0.0,0.0,0.0,0.0,0.0,0.0,0.0,0.0,0.0,0.0,0.0,0.0,0.0,0.0,0.0,0.0,0.0,0.0,0.0,0.0,0.8536,0.8415,0.817,0.0,0.0,0.0,0.0,0.7424,0.7406,0.0,0.0,0.0,0.0,0.0,0.0,0.0,0.0,0.0,0.0,0.0,0.0,0.0,0.0,0.0,0.0,0.0,0.0,0.0,0.0,0.0,0.0,0.0,0.0,0.0,0.0,0.0,0.0,0.0,0.0,0.0,0.0,0.0,0.0,0.0,0.0,0.0,0.0,0.0,0.0,0.0,0.0,0.0,0.0,0.0,0.0,0.0,0.0,0.0,0.0,0.0,0.0,0.0,0.0,0.0,0.0,1.1335,1.2037,1.2913,1.4001,1.3828,1.3513,1.3267,1.2639,1.1806,0.0,0.0,0.0,0.0,0.0,0.0,0.0,0.0,0.0,0.0,0.0,0.0,0.0,0.0,0.0,0.0,0.0,0.0,0.0,0.0,0.0,0.0,0.0,0.0,0.0,0.0,0.0,0.0,0.0,0.0,0.0,0.0,0.0,0.0,0.0,0.0,0.0,0.0,0.0,0.0,0.0,0.8951,0.8469,0.8343,0.831,0.0,0.0,0.8317,0.8559,0.8598,0.0,0.0,0.0,0.0,0.0,0.0,0.0,0.0,0.0,0.0,0.0,0.0,0.0,0.0,0.0,0.0,0.0,0.0,0.0,0.0,0.0,0.0,0.0,0.0,0.0,0.0,0.0,0.0,0.0,0.0,0.0,0.0,0.0,0.0,0.0,0.0,0.0,0.0,0.0,0.0,0.0,0.0,0.0,0.0,0.0,0.0,0.0,0.0,0.0,0.0,0.0,0.0,0.0,0.0,0.0,0.992,1.1169,1.2265,1.3146,1.3801,1.3673,1.346,1.3213,1.2298,1.1336,0.0,0.0,0.0,0.0,0.0,0.0,0.0,0.0,0.0,0.0,0.0,0.0,0.0,0.0,0.0,0.0,0.0,0.0,0.0,0.0,0.0,0.0,0.0,0.0,0.0,0.0,0.0,0.0,0.0,0.0,0.0,0.0,0.0,0.0,0.0,0.0,0.0,0.0,0.0,0.0,0.0,0.0,0.8651,0.8764,0.0,0.0,0.0,0.8698,0.8876,0.0,0.0,0.0,0.0,0.0,0.0,0.0,0.0,0.0,0.0,0.0,0.0,0.0,0.0,0.0,0.0,0.0,0.0,0.0,0.0,0.0,0.0,0.0,0.0,0.0,0.0,0.0,0.0,0.0,0.0,0.0,0.0,0.0,0.0,0.0,0.0,0.0,0.0,0.0,0.0,0.0,0.0,0.0,0.0,0.0,0.0,0.0,0.0,0.0,0.0,0.0,0.0,0.0,0.0,0.0,0.0,0.0,1.0995,1.2458,1.3347,1.3586,1.3723,1.3701,1.3456,1.2332,0.0,0.0,0.0,0.0,0.0,0.0,0.0,0.0,0.0,0.0,0.0,0.0,0.0,0.0,0.0,0.0,0.0,0.0,0.0,0.0,0.0,0.0,0.0,0.0,0.0,0.0,0.0,0.383,0.0,0.0,0.0,0.0,0.0,0.0,0.0,0.0,0.0,0.0,0.0,0.0,0.0,0.0,0.9071,0.8844,0.9316,0.9545,0.0,0.0,0.9078,0.9151,0.9089,0.8631,0.0,0.0,0.0,0.0,0.0,0.0,0.0,0.0,0.0,0.0,0.0,0.0,0.0,0.0,0.0,0.0,0.0,0.0,0.0,0.0,0.0,0.0,0.0,0.0,0.0,0.0,0.0,0.0,0.0,0.0,0.0,0.0,0.0,0.0,0.0,0.0,0.0,0.0,0.0,0.0,0.0,0.0,0.0,0.0,0.0,0.0,0.0,0.0,0.0,0.0,0.0,0.0,0.0,0.0,0.0,1.1009,1.2452,1.334,1.3614,1.4017,1.424,1.419,1.3134,1.227,0.0,0.0,0.0,0.0,0.0,0.0,0.0,0.0,0.0,0.0,0.0,0.0,0.0,0.0,0.0,0.0,0.0,0.0,0.0,0.0,0.0,0.0,0.0,0.0,0.0,0.0,0.0,0.0,0.0,0.0,0.0,0.0,0.0,0.0,0.0,0.0,0.0,0.0,0.0,0.0,0.0,0.9789,0.8924,1.0031,1.0666,0.0,0.0,0.9633,0.9653,0.9662,0.9253,0.8032,0.0,0.0,0.0,0.0,0.0,0.0,0.0,0.0,0.0,0.0,0.0,0.0,0.0,0.0,0.0,0.0,0.0,0.0,0.0,0.0,0.0,0.0,0.0,0.0,0.0,0.0,0.0,0.0,0.0,0.0,0.0,0.0,0.0,0.0,0.0,0.0,0.0,0.0,0.0,0.0,0.0,0.0,0.0,0.0,0.0,0.0,0.0,0.0,0.0,0.0,0.0,0.0,0.0,0.9846,1.076,1.1991,1.3022,1.3754,1.3957,1.4304,1.4804,1.377,1.2859,0.0,0.0,0.0,0.0,0.0,0.0,0.0,0.0,0.0,0.0,0.0,0.0,0.0,0.0,0.0,0.0,0.0,0.0,0.0,0.0,0.0,0.0,0.0,0.0,0.0,0.0,0.0,0.0,0.5088,0.5106,0.4876,0.0,0.0,0.0,0.0,0.0,0.0,0.0,0.0,0.0,0.0,1.0559,1.0203,1.1027,0.0,0.0,1.1038,1.0952,1.03,1.0101,0.9545,0.8114,0.7515,0.0,0.0,0.0,0.0,0.0,0.0,0.0,0.0,0.0,0.0,0.0,0.0,0.0,0.0,0.0,0.0,0.0,0.0,0.0,0.0,0.0,0.0,0.0,0.0,0.0,0.0,0.0,0.0,0.0,0.0,0.0,0.0,0.0,0.0,0.0,0.0,0.0,0.0,0.0,0.0,0.0,0.0,0.0,0.0,0.0,0.0,0.0,0.0,0.0,0.0,0.0,0.0,0.9876,1.0919,1.2143,1.3266,1.4224,1.4493,1.4866,1.5397,1.447,1.3531,0.0,0.0,0.0,0.0,0.0,0.0,0.0,0.0,0.0,0.0,0.0,0.0,0.0,0.0,0.0,0.0,0.0,0.0,0.0,0.0,0.0,0.0,0.0,0.0,0.0,0.0,0.0,0.0,0.5645,0.5491,0.4981,0.0,0.0,0.0,0.0,0.0,0.0,0.0,0.0,0.0,0.0,1.1115,1.1136,1.1821,1.2219,1.1842,1.1966,1.1797,1.0938,1.071,1.0147,0.8745,0.0,0.0,0.0,0.0,0.0,0.0,0.0,0.0,0.0,0.0,0.0,0.0,0.0,0.0,0.0,0.0,0.0,0.0,0.0,0.0,0.0,0.0,0.0,0.0,0.0,0.0,0.0,0.0,0.0,0.0,1.2076,0.0,0.0,0.0,0.0,0.0,0.0,0.0,0.0,0.0,0.0,0.0,0.0,0.0,0.0,0.0,0.0,0.0,0.0,0.0,0.0,0.0,0.0,1.037,1.167,1.3082,1.4246,1.5043,1.579,1.6111,1.6175,1.5189,1.4434,1.3844,0.0,0.0,0.0,0.0,0.0,0.0,0.0,0.0,0.0,0.0,0.0,0.0,0.0,0.0,0.0,0.0,0.0,0.0,0.0,0.0,0.0,0.0,0.0,0.0,0.0,0.0,0.6129,0.5896,0.5345,0.0,0.0,0.0,0.0,0.0,0.0,0.0,0.0,0.0,0.0,1.0626,1.1438,1.1531,1.2307,1.2819,1.2538,1.2292,1.2001,1.1551,1.1519,1.1215,0.0,0.0,0.0,0.0,0.0,0.0,0.0,0.0,0.0,0.0,0.0,0.0,0.0,0.0,0.0,0.0,0.0,0.0,0.0,0.0,0.0,0.0,0.0,0.0,0.0,0.0,0.0,1.4655,1.3961,0.0,0.0,0.0,0.0,0.0,0.0,0.0,0.0,0.0,0.0,0.0,1.3498,1.3996,0.0,0.0,0.0,0.0,0.0,0.0,0.0,0.0,0.0,0.0,0.0,0.0,1.1106,1.222,1.3478,1.4581,1.5541,1.58,1.6165,1.6669,1.6077,1.5056,1.3534,0.0,0.0,0.0,0.0,0.0,0.0,0.0,0.0,0.0,0.0,0.0,0.0,0.0,0.0,0.0,0.0,0.0,0.0,0.0,0.0,0.0,0.0,0.0,0.0,0.0,0.5838,0.0,0.0,0.0,0.0,0.0,0.0,0.0,0.0,0.0,0.0,0.0,1.0285,1.1142,1.2305,1.3057,1.31,1.3596,1.3829,0.0,0.0,0.0,0.0,0.0,0.0,0.0,0.0,0.0,0.0,0.0,0.0,0.0,0.0,0.939,0.8327,0.7885,0.7563,0.7221,0.0,0.0,0.0,0.0,0.0,0.0,0.0,0.0,0.0,0.0,0.0,0.0,0.0,0.0,1.6484,0.0,1.5716,0.0,0.0,0.0,0.0,0.0,0.0,0.0,0.0,1.5915,1.6176,1.5515,1.614,1.5956,0.0,1.4451,1.3447,0.0,0.0,0.0,0.0,0.0,0.0,0.0,0.0,1.1954,1.3098,1.4205,1.5236,1.614,1.6158,1.6403,1.6855,1.6376,1.5349,1.3772,1.2569,1.155,0.0,0.0,0.0,0.0,0.0,0.0,0.0,0.0,0.0,0.0,0.0,0.0,0.0,0.0,0.0,0.0,0.0,0.0,0.0,0.0,0.0,0.0,0.0,0.6166,0.0,0.0,0.0,0.0,0.0,0.0,0.0,0.0,0.0,0.9031,1.0273,1.1456,1.2214,1.2983,1.3589,1.3846,0.0,0.0,0.0,0.0,0.0,0.0,0.0,1.2702,1.227,1.1915,1.1636,1.1473,1.1659,1.1755,1.1604,0.0,0.0,0.9902,0.942,0.9142,0.8886,0.8739,0.8584,0.8344,0.8228,0.8176,0.0,0.0,0.0,0.0,0.0,0.0,0.0,0.0,1.7912,1.8139,0.0,1.7557,0.0,0.0,0.0,0.0,0.0,0.0,0.0,0.0,1.8183,1.8898,1.8191,1.8164,1.8183,1.8137,1.7697,1.6862,1.5583,1.2269,0.0,0.0,0.0,0.0,0.0,0.0,1.2882,1.4308,1.5333,1.6193,1.6874,1.6908,1.6864,1.689,1.6129,1.5359,1.4552,1.3406,1.2376,1.1568,1.041,0.0,0.0,0.0,0.0,0.0,0.0,0.0,0.0,0.0,0.0,0.0,0.0,0.0,0.0,0.0,0.0,0.0,0.0,0.0,0.0,0.684,0.0,0.0,0.0,0.0,0.0,0.0,0.0,0.0,0.0,0.0,1.0056,1.0917,1.1871,1.2634,0.0,0.0,0.0,0.0,1.3626,1.4387,1.4506,1.4378,1.3965,1.4212,1.4183,1.3442,0.0,0.0,1.2955,1.3057,1.2939,1.1828,1.2227,1.2484,1.1682,1.0874,1.0376,1.0513,0.9931,0.9505,0.9655,0.9221,0.8844,2.2331,0.0,0.0,0.0,0.0,2.0022,2.0674,2.2068,2.1734,2.112,2.0265,1.9686,0.0,0.0,0.0,0.0,0.0,0.0,1.7293,1.8275,1.899,1.9494,1.9833,1.9996,1.978,1.9166,1.8938,1.8292,1.719,1.5993,1.4211,1.1876,0.0,0.0,0.0,0.0,1.4314,1.5259,1.6161,1.6691,1.6908,1.6908,1.6908,1.6908,1.6404,1.589,1.5368,1.4569,1.3562,1.2395,1.1584,0.0,0.0,0.0,0.0,0.0,0.0,0.0,0.0,0.0,0.0,0.0,0.0,0.0,0.0,0.0,0.0,0.0,0.0,0.0,0.6283,0.6852,0.7162,0.0,0.0,0.0,0.0,0.0,0.0,0.0,0.0,0.0,1.184,1.2629,1.3314,0.0,0.0,1.4066,1.4304,1.4211,1.4249,1.4469,0.0,0.0,0.0,1.4176,1.4093,1.4148,1.4359,1.4387,1.4038,1.3837,1.3699,1.3607,1.3351,1.305,1.2832,1.2352,1.1805,1.126,1.0898,1.0559,1.0117,0.983,0.9594,2.5226,2.3231,2.2049,2.2084,2.2822,2.2324,2.2832,2.4014,2.3594,2.311,2.2576,2.1829,2.0634,1.9089,1.7817,0.0,0.0,0.0,1.8467,1.9567,1.9879,2.0283,2.0741,2.1014,2.088,2.0363,2.0174,1.959,1.8685,1.8559,1.7137,1.4553,0.0,0.0,1.369,1.4689,1.5542,1.6166,1.6807,1.7138,1.7138,1.6991,1.6908,1.6908,1.6679,1.6276,1.5739,1.5167,1.4357,1.3303,1.2521,1.1607,0.0,0.0,0.0,0.0,0.0,0.0,0.0,0.0,0.0,0.0,0.0,0.5075,0.4724,0.0,0.0,0.0,0.6452,0.6845,0.7167,0.7953,0.0,0.0,0.0,0.0,0.0,0.0,0.0,1.1828,1.2232,1.2634,1.3121,1.3755,1.4075,1.3929,1.4102,1.4323,1.4497,0.0,1.4323,1.4488,1.4485,1.4485,1.4485,1.4304,1.4222,1.4469,1.4485,1.4412,1.4277,1.4067,1.3928,1.3956,1.3754,1.3507,1.3323,1.3222,1.2887,1.1904,1.1647,1.1315,1.0524,1.0127,0.9764,2.748,2.6973,2.5391,2.4678,2.4573,2.459,2.457,2.4541,2.417,2.4404,2.5008,2.3799,2.3008,2.2357,2.0051,0.0,1.9571,1.9534,1.9751,2.0104,2.0879,2.1181,2.1206,2.1466,2.1577,2.153,2.1367,2.0854,2.0106,2.0087,1.9146,1.7394,1.6651,1.5946,1.5313,1.6028,1.6606,1.7,1.7358,1.7523,1.7486,1.711,1.6908,1.6908,1.6881,1.6486,1.5725,1.5335,1.4768,1.4044,1.3257,1.2423,1.1522,0.0,0.0,0.0,0.0,0.0,0.0,0.0,0.0,0.0,0.0,0.0,0.0,0.0,0.0,0.0,0.7895,0.0,0.878,0.9668,0.0,0.0,0.0,1.0563,1.0625,1.1523,1.2312,1.2735,0.0,0.0,1.3957,0.0,1.4368,1.4012,1.3966,1.4075,1.4421,1.4194,1.4075,1.446,1.4485,1.4485,1.4485,1.4497,1.4488,1.4476,1.4485,1.4387,1.4095,1.3974,1.3819,1.3552,1.3699,1.3847,1.3415,1.3681,1.363,1.253,1.228,1.1916,1.1011,1.0344,0.9797,2.8086,2.7949,2.7539,2.7002,2.6377,2.6055,2.5918,2.5908,2.581,2.5556,2.5077,2.4394,2.3611,2.2664,2.1736,2.1521,2.187,2.1699,2.1658,2.1723,2.1951,2.1968,2.1859,2.2061,2.2119,2.205,2.2148,2.1697,2.0724,2.0835,2.0187,1.8882,1.8802,1.8031,1.6541,1.6963,1.7413,1.7834,1.7926,1.7816,1.7495,1.711,1.6908,1.6908,1.6581,1.6211,1.5739,1.5407,1.4708,1.3571,1.383,1.3467,1.2301,1.1382,0.0,0.0,0.0,0.0,0.0,0.0,0.0,0.0,0.0,0.7781,0.6473,0.0,0.8242,0.0,0.8904,0.9437,0.9795,1.0332,0.0,0.0,1.1534,1.194,1.2541,1.2582,1.2827,1.3543,1.3791,1.4002,1.4332,1.4451,1.4478,1.4378,1.4359,1.4405,1.4497,1.4403,1.4396,1.4488,1.4485,1.4485,1.4485,1.4485,1.4485,1.4485,1.4485,1.4478,1.4378,1.4368,1.4323,1.4249,1.4286,1.4194,1.3818,1.4084,1.3934,1.3047,1.2898,1.2668,1.1559,1.1156,1.0742,2.8301,2.8301,2.8301,2.8018,2.7549,2.7129,2.6953,2.6943,2.6748,2.6289,2.5605,2.4848,2.4033,2.3209,2.2792,2.2777,2.2926,2.2695,2.2565,2.2547,2.2364,2.2299,2.2357,2.2393,2.2406,2.2457,2.2664,2.2357,2.1642,2.157,2.1012,2.0041,1.9976,1.9373,1.8303,1.8276,1.8378,1.8488,1.8488,1.8165,1.7513,1.7284,1.7,1.6617,1.6398,1.6028,1.545,1.5284,1.4819,1.3987,1.4157,1.392,1.3135,1.2306,1.1608,0.0,0.0,0.0,0.0,0.0,0.0,0.0,0.0,0.0,0.0,0.0,0.938,0.0,1.0241,1.0805,1.1183,1.1791,1.2306,1.2556,1.2932,1.3268,1.3525,1.3516,1.369,1.4112,1.4167,1.4249,1.4458,1.4485,1.4579,1.4714,1.4781,1.4708,1.4543,1.4485,1.4485,1.4485,1.4485,1.4485,1.4485,1.4485,1.4485,1.4485,1.4485,1.4485,1.4485,1.4485,1.4485,1.4485,1.4485,1.4421,1.4222,1.4341,1.4266,1.3832,1.3733,1.3281,1.2065,1.1633,1.1196,2.834,2.8301,2.835,2.834,2.8262,2.79,2.7767,2.7699,2.7266,2.6826,2.6288,2.5247,2.4402,2.3787,2.3532,2.34,2.34,2.3154,2.3032,2.2959,2.2602,2.252,2.2729,2.2551,2.2583,2.2847,2.3013,2.2886,2.251,2.2148,2.1627,2.093,2.0564,2.0283,1.9971,1.963,1.9325,1.9125,1.903,1.8545,1.7632,1.7523,1.7119,1.6367,1.6288,1.5936,1.5179,1.5133,1.5001,1.4734,1.4409,1.4185,1.4053,1.3189,1.2598,0.0,1.14,0.0,0.0,0.0,0.0,0.0,0.0,0.0,0.0,1.0513,1.0741,1.0948,1.1703,1.2307,1.2655,1.3438,1.3772,1.3516,1.4093,1.4359,1.4029,1.4295,1.4485,1.4485,1.4485,1.4494,1.4568,1.4579,1.4735,1.5093,1.5175,1.5065,1.4753,1.4653,1.4625,1.4549,1.4543,1.4485,1.4485,1.4485,1.4485,1.4485,1.4485,1.4485,1.4485,1.4485,1.4485,1.4485,1.4485,1.4476,1.4506,1.4476,1.4485,1.4428,1.443,1.3948,1.2578,1.2025,1.1532,2.8603,2.833,2.8662,2.8603,2.8281,2.8203,2.7978,2.7718,2.7578,2.7007,2.6027,2.5336,2.4786,2.4324,2.4128,2.4021,2.403,2.3981,2.3749,2.3361,2.3213,2.3065,2.2947,2.2809,2.2838,2.3057,2.3091,2.292,2.251,2.2432,2.1951,2.116,2.1063,2.0779,2.0235,0.0,0.0,0.0,1.9257,1.8779,1.823,1.7742,1.7119,1.6325,1.6288,0.0,1.5312,1.5257,1.5163,1.4969,1.4963,0.0,0.0,0.0,0.0,0.0,0.0,0.0,0.0,0.0,0.0,0.0,1.2357,1.2042,1.1885,1.2393,1.2619,1.2377,1.2751,1.3223,1.3605,1.3771,1.3992,1.4258,1.4423,1.4469,1.4405,1.4478,1.4485,1.4485,1.4494,1.4613,1.4937,1.4992,1.5139,1.5515,1.5611,1.5551,1.5478,1.5194,1.5001,1.4974,1.4717,1.4494,1.4485,1.4485,1.4485,1.4485,1.4485,1.4485,1.4485,1.4485,1.4485,1.4485,1.4485,1.4485,1.4485,1.4485,1.4485,1.4485,1.4485,1.4082,1.2736,1.2807,1.2641,2.8672,0.0,2.874,2.8682,0.0,2.8301,2.8174,2.7969,2.7873,2.7189,2.6163,2.5423,2.4931,2.4646,2.4343,2.4211,2.4211,2.4291,2.423,2.4017,2.3859,2.3805,2.3849,2.3309,2.3245,2.3403,2.3208,2.2994,2.2822,2.2617,2.2295,2.1824,2.1405,2.1043,2.074,2.0635,2.0372,1.9912,1.9617,1.9153,1.8563,1.8046,1.7422,1.6642,0.0,0.0,0.0,0.0,0.0,0.0,0.0,0.0,0.0,0.0,0.0,1.4416,1.4043,1.3675,1.3455,1.3604,1.3898,1.425,1.444,1.4045,1.2894,1.3295,1.3497,1.3332,1.3818,1.4268,1.446,1.4662,1.4854,1.5065,1.5093,1.5093,1.5093,1.5093,1.5093,1.5093,1.5093,1.5175,1.5359,1.5386,1.556,1.5927,1.6001,1.6074,1.6193,1.5762,1.534,1.5129,1.4772,1.4494,1.4485,1.4485,1.4485,1.4485,1.4485,1.4485,1.4485,1.4485,1.4485,1.4485,1.4485,1.4485,1.4485,1.4485,1.4485,1.4485,1.4485,1.4198,1.3191,1.3009,1.2642,2.8672,2.834,2.875,2.8682,2.8301,2.8237,2.8174,2.8067,0.0,0.0,0.0,2.5605,2.509,2.4817,2.4468,2.4275,2.4202,2.439,2.443,2.4461,2.437,2.4431,2.4669,2.3878,2.3599,2.376,2.3305,2.3101,2.3081,2.2793,2.2588,2.2451,2.1756,2.1346,2.1181,2.0752,2.0333,1.9902,1.9912,1.9548,1.8753,1.8394,1.777,1.6927,1.6331,1.5859,1.547,1.5212,1.5162,1.5422,1.5138,1.5158,1.5533,1.5313,1.5283,1.5615,1.5615,1.5488,1.5195,1.5449,1.5615,1.5585,1.6021,1.5522,1.3828,1.4011,1.4232,1.4203,1.4818,1.5203,1.5203,1.5478,1.5689,1.5689,1.5689,1.568,1.568,1.5689,1.5652,1.5689,1.5652,1.5716,1.579,1.5808,1.5955,1.6312,1.6422,1.6514,1.6734,1.6248,1.5634,1.5175,1.4845,1.4616,1.4494,1.4485,1.4485,1.4485,1.4485,1.4485,1.4485,1.4485,1.4485,1.4485,1.4485,1.4485,1.4485,1.4485,1.4485,1.4485,1.4485,1.4318,1.3623,1.297,1.2328,2.8682,2.833,2.874,2.8682,2.8291,2.8067,2.7638,2.7196,2.7368,2.7034,2.6383,2.5998,2.547,2.4785,2.4721,2.45,2.4211,2.4251,2.4341,0.0,2.4361,2.4421,2.4669,2.4062,2.3744,2.376,2.3296,2.3101,2.3091,2.3033,2.2828,2.2539,2.2393,2.1921,2.121,2.0643,2.0177,1.9902,1.9912,1.9578,1.8974,1.8727,1.8045,1.6991,1.7119,1.6878,1.609,1.6326,1.6678,1.7035,1.6636,1.6629,1.7028,1.6638,1.6453,1.6502,1.6512,1.6482,1.6424,1.6482,1.6459,1.6355,1.643,1.6129,1.5449,1.5404,1.5432,1.5473,1.5556,1.5606,1.5606,1.567,1.5744,1.5716,1.5707,1.5698,1.5735,1.5735,1.5744,1.5753,1.5689,1.5863,1.6166,1.6196,1.6358,1.6707,1.6762,1.6835,1.6817,1.6523,1.5936,1.5304,1.5056,1.4873,1.4598,1.4485,1.4485,1.4485,1.4485,1.4485,1.4485,1.4485,1.4485,1.4485,1.4485,1.4485,1.4485,1.4485,1.4485,1.4485,1.4485,1.4267,1.3631,1.2917,1.2274,2.8672,2.8359,2.875,2.8672,2.8291,2.8014,2.7584,2.7034,2.7098,2.6959,2.6504,2.6175,2.5862,2.5659,2.5154,2.4959,2.4964,2.4848,2.4833,2.4922,2.5043,2.5102,2.5198,2.4738,2.4355,2.4111,2.3701,2.3379,2.311,2.3101,2.2994,2.2799,2.2499,2.2039,2.1347,2.0872,2.0451,2.0073,1.9937,1.9642,1.9182,1.8863,1.8449,1.7862,1.7458,1.71,1.6859,1.6585,1.6625,1.6999,1.6846,1.6794,1.7002,1.6814,1.6697,1.6697,1.6697,1.6697,1.6697,1.6921,1.7057,1.7039,1.7025,1.6826,1.6382,1.6053,1.5827,1.5739,1.589,1.6028,1.6037,1.6221,1.6358,1.6349,1.6349,1.6349,1.6349,1.6349,1.634,1.6349,1.6349,1.6431,1.6581,1.6642,1.6688,1.689,1.6908,1.6908,1.6908,1.6752,1.6349,1.5588,1.5239,1.4946,1.4598,1.4485,1.4485,1.4485,1.4485,1.4485,1.4485,1.4485,1.4485,1.4485,1.4485,1.4485,1.4485,1.4485,1.4485,1.4485,1.4485,1.4228,1.3601,1.2704,1.1911,2.8594,2.833,2.8643,2.853,2.8087,2.7853,2.7476,2.6944,2.6881,2.6791,2.6591,2.6287,2.6273,2.6328,2.5694,2.5474,2.5538,2.5424,2.5331,2.5294,2.5538,2.5645,2.5635,2.5273,2.4893,2.4521,2.4043,2.3623,2.3266,2.3149,2.3101,2.3052,2.2423,2.1982,2.1688,2.1183,2.0711,2.0233,2.0085,1.9799,1.9332,1.8999,1.8806,1.865,1.7816,1.7407,1.7567,1.7067,1.6854,1.7038,1.7093,1.7087,1.6989,1.6989,1.6989,1.698,1.6989,1.7021,1.7009,1.7334,1.7566,1.7604,1.7598,1.7461,1.706,1.6626,1.6244,1.6066,1.6276,1.645,1.6477,1.6697,1.6908,1.6908,1.6908,1.6862,1.6899,1.6908,1.6908,1.6908,1.6908,1.689,1.6908,1.6908,1.6899,1.6899,1.6908,1.6908,1.6908,1.6908,1.6597,1.601,1.5487,1.512,1.4726,1.4561,1.4494,1.4485,1.4485,1.4485,1.4485,1.4485,1.4485,1.4485,1.4485,1.4485,1.4485,1.4357,1.4258,1.4198,1.4169,1.4019,1.3321,1.2343,1.149,2.833,2.8301,2.835,2.8008,2.7539,2.7485,2.7171,2.6691,2.6646,2.6636,2.6627,2.66,2.6478,2.6421,2.629,2.6069,2.5673,2.5578,2.5509,2.5322,2.5333,2.5489,2.5654,2.5293,2.5096,2.494,2.4209,2.3818,2.3672,2.332,2.3101,2.3008,2.2251,2.1955,2.2039,2.1478,2.0863,2.0211,2.0417,2.012,1.9359,1.9265,1.9072,1.8715,1.8605,1.8442,1.8285,1.8393,1.8347,1.8165,1.8298,1.8237,1.7915,1.7857,1.79,1.7891,1.7857,1.7857,1.7867,1.7886,1.7964,1.7974,1.7988,1.7817,1.7508,1.737,1.721,1.6911,1.6826,1.6817,1.6844,1.689,1.6908,1.6908,1.6908,1.6908,1.6908,1.6908,1.6908,1.6908,1.6908,1.6908,1.6908,1.6908,1.6908,1.6908,1.6908,1.6908,1.6908,1.6908,1.6789,1.6321,1.59,1.5487,1.5093,1.4726,1.4549,1.4504,1.4485,1.4485,1.4485,1.4485,1.4485,1.4485,1.4485,1.4485,1.4357,1.404,1.3692,1.3731,1.3631,1.342,1.2734,1.2089,1.1483,2.8184,2.8291,2.8301,2.797,2.7431,2.726,2.6944,2.6636,2.6591,2.6691,2.6836,2.6836,2.6905,2.7006,2.6911,2.6869,2.6801,2.6309,2.604,2.5946,2.5664,2.5586,2.5664,2.5557,2.5332,2.5116,2.4744,2.4287,2.3789,2.335,2.3057,2.2872,2.2402,2.2151,2.2123,2.1736,2.1349,2.0992,2.0731,2.037,1.991,1.9638,1.9356,1.9054,1.895,1.8832,1.8779,1.8732,1.8726,1.8718,1.8915,1.8945,1.8779,1.8769,1.876,1.8769,1.876,1.8769,1.876,1.8769,1.8734,1.8582,1.8592,1.8449,1.8037,1.7804,1.7651,1.7568,1.7193,1.6908,1.6917,1.6908,1.6908,1.6908,1.6908,1.6908,1.6908,1.6908,1.6908,1.6908,1.6908,1.6908,1.6908,1.6908,1.6908,1.6908,1.6908,1.6908,1.6908,1.6908,1.6844,1.6661,1.6321,1.5808,1.5276,1.4992,1.4772,1.4558,1.4485,1.4485,1.4485,1.4485,1.4485,1.4485,1.4485,1.4485,1.4485,1.4327,1.401,1.3692,1.313,1.2917,1.3039,1.2551,1.2027,2.8067,2.8291,2.8301,2.797,2.7377,2.7206,2.689,2.6636,2.6591,2.6736,2.6989,2.7043,2.726,2.7492,2.7463,2.7501,2.7588,2.7021,2.667,2.6523,2.6113,2.5918,2.5908,2.5732,2.5576,2.5283,2.5165,2.4678,2.3884,2.3338,2.3002,2.2815,2.2498,2.222,2.2113,2.1998,2.1757,2.1416,2.1117,2.0828,2.0391,2.0099,1.9748,1.9371,1.9212,1.915,1.9073,1.9004,1.8948,1.9011,1.9178,1.923,1.9151,1.9187,1.9251,1.9287,1.9277,1.9277,1.9277,1.9277,1.9214,1.9105,1.9068,1.8922,1.8544,1.8209,1.8071,1.7999,1.7551,1.7238,1.7073,1.6963,1.6908,1.6908,1.6908,1.6908,1.6908,1.6908,1.6839,1.6665,1.6517,1.6586,1.6612,1.6726,1.6908,1.6908,1.6908,1.6908,1.6908,1.6908,1.6908,1.6899,1.6652,1.623,1.5579,1.5331,1.5111,1.4818,1.4708,1.4671,1.4531,1.4485,1.4485,1.4485,1.4485,1.4485,1.4426,1.4387,1.4139,1.3541,1.2956,1.2704,1.3252,1.2887,1.2696,2.8067,2.8291,2.8301,2.7916,2.7377,2.7368,2.7062,2.6591,2.6636,2.6736,2.7043,2.7269,2.7584,2.7843,2.7858,2.7815,2.7705,2.764,2.7334,2.6973,2.6562,2.6367,2.6328,2.5947,2.5674,2.5577,2.5293,2.4779,2.4006,2.3355,2.3019,2.2936,2.2436,2.2115,2.2097,2.2217,2.1942,2.1389,2.1741,2.1603,2.0713,2.0746,2.0339,1.9494,1.949,1.9462,1.9335,1.9462,1.9364,1.903,1.9241,1.9146,1.8842,1.8979,1.9182,1.9336,1.9316,1.9316,1.9336,1.9355,1.9365,1.9299,1.9368,1.9143,1.8805,1.8646,1.8499,1.8146,1.8045,1.7834,1.755,1.7248,1.7027,1.7,1.6963,1.6972,1.6936,1.6894,1.656,1.6053,1.5868,1.5895,1.5903,1.6473,1.6795,1.6874,1.6908,1.6908,1.6908,1.6908,1.6908,1.6908,1.6844,1.6725,1.6312,1.5909,1.5515,1.5129,1.4919,1.4919,1.4689,1.4485,1.4494,1.4485,1.4485,1.4455,1.4396,1.4139,1.3761,1.3238,1.2589,1.2528,1.3351,1.294,1.2917,2.7862,2.8291,2.8121,2.7799,2.7368,2.7206,2.6954,2.6636,2.6781,2.6999,2.726,2.7584,2.7853,2.8184,2.8184,2.815,2.8047,2.7845,2.7578,2.7383,2.6982,2.6641,2.6387,2.6221,2.5986,2.5693,2.5518,2.513,2.4467,2.3765,2.324,2.2848,2.2598,2.2277,2.1965,2.2097,2.2092,2.1976,2.1977,2.1802,2.1589,2.139,2.0919,2.0148,1.9925,1.9706,1.9508,1.9566,1.9532,1.9392,1.9568,1.9619,1.9525,1.9698,1.9927,2.0107,2.0145,2.0145,2.0145,2.0136,2.0069,1.9955,1.9917,1.9736,1.9334,1.9032,1.8891,1.8762,1.8329,1.8137,1.8201,1.7917,1.7651,1.7651,1.7678,1.755,1.7242,1.6875,1.6358,1.5866,1.5401,1.5215,1.5613,1.6044,1.6368,1.6804,1.6908,1.6908,1.6908,1.6908,1.6908,1.6908,1.6899,1.6853,1.6752,1.6349,1.5885,1.5377,1.5056,1.4891,1.4698,1.4558,1.454,1.4494,1.4485,1.4485,1.4396,1.398,1.3601,1.3359,1.2712,1.2742,1.342,1.3351,1.3631,2.7862,2.8237,2.8014,2.7691,2.7377,2.7107,2.6836,2.6636,2.6791,2.7053,2.7377,2.7638,2.7906,2.8237,2.8301,2.8301,2.8271,2.7998,2.7871,2.7832,2.7422,2.707,2.6797,2.6514,2.623,2.5908,2.5586,2.5179,2.4708,2.4013,2.343,2.2973,2.2714,2.2335,2.1996,2.2073,2.222,2.2252,2.2244,2.2251,2.2246,2.1905,2.156,2.1088,2.0526,1.9998,1.9625,1.9557,1.9518,1.9518,1.9627,1.9745,1.9824,2.0029,2.0255,2.0459,2.0557,2.0615,2.0615,2.0615,2.0518,2.0294,2.0303,2.0108,1.9657,1.9336,1.9258,1.9148,1.888,1.8641,1.8779,1.866,1.8365,1.8164,1.8081,1.8018,1.7697,1.6899,1.6031,1.5127,1.4537,1.4537,1.501,1.5507,1.5974,1.6517,1.6726,1.6908,1.6908,1.6908,1.6908,1.6908,1.6908,1.6908,1.6853,1.6624,1.634,1.5845,1.5542,1.5239,1.4873,1.4723,1.4613,1.454,1.4485,1.4485,1.4297,1.3881,1.3662,1.3541,1.3329,1.3238,1.37,1.404,1.4139,2.8077,2.8237,2.8014,2.7691,2.7377,2.7098,2.6836,2.6636,2.6636,2.7008,2.7377,2.7422,2.7853,2.8184,2.8301,2.8301,2.8281,2.8242,2.8232,2.8193,2.7851,2.7689,2.7571,2.6797,2.6367,2.6191,2.5368,2.4932,2.4807,2.4013,2.351,2.3354,2.2758,2.2456,2.2309,2.2365,2.2302,2.2309,2.2702,2.279,2.2482,2.2284,2.2182,2.202,2.1301,2.0507,1.9708,1.9503,1.9461,1.9393,1.9396,1.9399,1.9645,1.9833,2.0029,2.0303,2.0489,2.0576,2.0615,2.0615,2.0489,2.0303,2.0264,2.0069,1.9627,1.952,1.9432,1.9313,1.9246,1.9246,1.9228,1.9201,1.8944,1.8264,1.8153,1.806,1.7813,1.7002,1.5665,1.4091,1.355,1.3506,1.3825,1.4681,1.5507,1.5798,1.6333,1.6735,1.6769,1.6804,1.6908,1.6908,1.6908,1.6908,1.6908,1.6872,1.6652,1.6395,1.6193,1.5918,1.5359,1.5102,1.4928,1.4818,1.4522,1.4504,1.4455,1.407,1.3731,1.361,1.3541,1.3489,1.3662,1.3881,1.4079,2.8237,2.8237,2.8014,2.7691,2.7368,2.7098,2.6845,2.6636,2.6954,2.7269,2.7485,2.7853,2.814,2.8237,2.8301,2.8301,2.8301,2.8301,2.8301,2.8262,2.8144,2.793,2.766,2.709,2.6413,2.5701,2.5155,2.4784,2.4559,2.4162,2.384,2.348,2.3242,2.2962,2.2612,2.2608,2.2574,2.2602,2.2803,2.2882,2.2872,2.2834,2.2683,2.2401,2.1991,2.1394,2.0759,2.0351,2.0136,2.0108,1.9888,1.9703,1.968,1.9794,2.002,2.0255,2.0489,2.0615,2.0615,2.0566,2.0411,2.0137,2.002,1.9824,1.9469,1.939,1.9381,1.9292,1.9292,1.9292,1.9292,1.9292,1.9155,1.8962,1.841,1.7947,1.7445,1.6081,1.4509,1.3346,1.3013,1.3154,1.3455,1.415,1.4525,1.4966,1.5648,1.6123,1.6228,1.6586,1.6899,1.6908,1.6908,1.6908,1.6908,1.6908,1.6798,1.6633,1.6505,1.6294,1.579,1.5487,1.5294,1.5047,1.4741,1.4604,1.4547,1.4388,1.413,1.3731,1.3601,1.3523,1.3489,1.3541,1.3631,2.8228,2.8237,2.7862,2.7584,2.7377,2.6999,2.6791,2.6791,2.7107,2.7368,2.7647,2.797,2.8237,2.8291,2.8301,2.8301,2.8301,2.8301,2.8301,2.8301,2.8301,2.8135,2.7861,2.7461,2.6654,2.5708,2.5267,2.4935,2.4489,2.4282,2.4064,2.3804,2.3572,2.3413,2.3168,2.3083,2.304,2.3047,2.3133,2.3134,2.3086,2.3013,2.2887,2.2697,2.2409,2.2093,2.1793,2.1356,2.0918,2.0549,2.0232,2.0058,1.995,2.0092,2.0315,2.0569,2.0605,2.0674,2.0762,2.0644,2.0333,1.9981,1.9833,1.9666,1.9381,1.9292,1.9292,1.9292,1.9292,1.9292,1.9292,1.9292,1.9292,1.9301,1.8859,1.8034,1.706,1.5552,1.4159,1.3311,1.2951,1.3064,1.3189,1.3564,1.3719,1.4261,1.4859,1.5542,1.5727,1.6193,1.6491,1.6744,1.6908,1.6908,1.6908,1.6908,1.6908,1.6817,1.6707,1.6441,1.6065,1.5955,1.5808,1.5487,1.5194,1.5175,1.5117,1.5062,1.4867,1.4329,1.3769,1.3656,1.3578,1.2972,1.2978,2.8077,2.8237,2.7647,2.7422,2.7323,2.6845,2.6791,2.6989,2.7043,2.7368,2.7799,2.796,2.8077,2.8237,2.8301,2.8301,2.8301,2.8301,2.8301,2.8301,2.8291,2.8223,2.8004,2.7682,2.6901,2.6011,2.5705,2.5246,2.4551,2.4393,2.422,2.4128,2.3785,2.3653,2.3765,2.3787,2.3604,2.356,2.3644,2.352,2.3188,2.2969,2.2916,2.3062,2.2702,2.2541,2.2547,2.2168,2.1519,2.0686,2.0609,2.0596,2.0555,2.0598,2.0847,2.1155,2.0846,2.0947,2.1014,2.0758,2.0378,2.014,1.9951,1.9583,1.9525,1.9522,1.9485,1.9421,1.9393,1.9347,1.9329,1.9292,1.9253,1.9173,1.8807,1.7963,1.6405,1.5262,1.4321,1.3466,1.322,1.3152,1.2973,1.3452,1.3618,1.3756,1.4194,1.4908,1.5386,1.5715,1.6148,1.6431,1.6695,1.6859,1.6833,1.6908,1.6908,1.6881,1.6817,1.6633,1.6376,1.6294,1.6184,1.5872,1.5643,1.5652,1.5597,1.5478,1.5251,1.4764,1.4315,1.4012,1.3611,1.3173,1.2704,2.8067,2.8247,2.7906,2.7638,2.7377,2.7053,2.6935,2.7043,2.7215,2.753,2.7906,2.813,2.8237,2.8301,2.8301,2.8301,2.8301,2.8301,2.8301,2.8301,2.8301,2.798,2.7588,2.739,2.6812,2.5984,2.5816,2.5363,2.473,2.4633,2.4496,2.4202,2.4091,2.4066,2.4153,2.4164,2.4163,2.4084,2.389,2.3769,2.3613,2.3222,2.3057,2.3057,2.2979,2.2847,2.2759,2.2362,2.1776,2.1068,2.1314,2.1259,2.089,2.1055,2.1304,2.1403,2.1351,2.139,2.1518,2.1204,2.0901,2.086,2.0529,2.0398,2.02,2.0191,2.0053,1.982,1.976,1.9591,1.9393,1.9329,1.9082,1.8367,1.7951,1.6879,1.5284,1.4497,1.4062,1.3594,1.3493,1.338,1.3259,1.3275,1.3423,1.3442,1.3839,1.4426,1.4855,1.5274,1.5692,1.6099,1.6381,1.6617,1.6782,1.6875,1.6908,1.6908,1.6881,1.6862,1.6642,1.6505,1.6367,1.6156,1.5964,1.5918,1.578,1.5643,1.5359,1.5226,1.4807,1.4463,1.4214,1.3818,1.3029,2.8134,2.8121,2.796,2.7799,2.7584,2.7323,2.726,2.7368,2.753,2.7755,2.8077,2.8237,2.8291,2.8301,2.8301,2.8301,2.8301,2.8301,2.8237,2.8077,2.796,2.7771,2.7535,2.7381,2.6844,2.6128,2.6048,2.5659,2.5153,2.4876,2.4698,2.4477,2.4384,2.4417,2.458,2.4668,2.4698,2.4643,2.4434,2.4258,2.4043,2.3818,2.3539,2.3477,2.3364,2.3227,2.2842,2.2627,2.2265,2.1901,2.1811,2.1655,2.156,2.1448,2.1565,2.1826,2.1587,2.1476,2.1694,2.1356,2.1066,2.1006,2.0796,2.0638,2.0493,2.0521,2.0332,2.0186,2.014,2.0012,1.9888,1.9815,1.9096,1.7993,1.7236,1.6319,1.4804,1.4356,1.405,1.384,1.3773,1.3721,1.3393,1.336,1.3327,1.3306,1.3487,1.3942,1.4324,1.4794,1.5388,1.5971,1.6311,1.6568,1.691,1.7058,1.7009,1.6991,1.6908,1.6908,1.6835,1.6679,1.6624,1.6486,1.6303,1.6175,1.6111,1.6074,1.6077,1.5836,1.534,1.4911,1.462,1.4455,1.3662,2.8276,2.8018,2.8018,2.7964,2.7939,2.766,2.7698,2.793,2.7872,2.8014,2.8237,2.8291,2.8301,2.8301,2.8301,2.8301,2.8301,2.8301,2.8121,2.7906,2.7638,2.7438,2.758,2.74,2.6962,2.6442,2.6396,2.6058,2.5577,2.5157,2.4964,2.4868,2.4737,2.4789,2.5028,2.5196,2.5208,2.5148,2.5037,2.4766,2.4502,2.4336,2.4121,2.3896,2.3857,2.3553,2.3158,2.3022,2.2964,2.2794,2.2185,2.212,2.2284,2.1783,2.1879,2.2195,2.185,2.1599,2.1736,2.1376,2.0992,2.1029,2.085,2.064,2.0698,2.0744,2.068,2.0594,2.0576,2.0605,2.0546,2.055,1.9731,1.8381,1.7726,1.702,1.573,1.4706,1.4088,1.4088,1.4082,1.3948,1.3753,1.3626,1.3567,1.3567,1.3649,1.385,1.4125,1.4412,1.5269,1.63,1.6484,1.6555,1.6946,1.733,1.7193,1.7082,1.6954,1.6908,1.6908,1.6835,1.6872,1.6789,1.6597,1.6587,1.667,1.667,1.6606,1.644,1.5981,1.5423,1.4923,1.4866,1.4391,2.832,2.868,2.867,2.8571,2.8362,2.8317,2.8308,2.8324,2.8051,2.8096,2.8237,2.8301,2.8301,2.8301,2.8301,2.8301,2.8291,2.8237,2.813,2.7862,2.7314,2.7152,2.7206,2.7098,2.6898,2.6589,2.6562,2.6341,2.5929,2.5789,2.5694,2.5526,2.5307,2.5255,2.5636,2.5466,2.5421,2.5499,2.5273,2.5059,2.4912,2.4629,2.4443,2.4287,2.4258,2.4053,2.366,2.3419,2.3264,2.3066,2.2911,2.2704,2.2511,2.2557,2.2591,2.2488,2.2309,2.2142,2.212,2.1773,2.1579,2.1655,2.1452,2.1431,2.1431,2.1376,2.1229,2.1124,2.1142,2.1211,2.1123,2.1085,2.0442,1.9509,1.9151,1.8514,1.6743,1.5106,1.4347,1.4151,1.4137,1.4062,1.3988,1.4038,1.3956,1.3923,1.3909,1.3958,1.4048,1.4131,1.5146,1.6284,1.6401,1.6543,1.7474,1.7743,1.755,1.7348,1.7165,1.7027,1.7018,1.6908,1.6908,1.6908,1.6872,1.6908,1.6908,1.6899,1.6771,1.6693,1.6571,1.6023,1.5566,1.5437,1.5016,2.8754,2.9007,2.9173,2.9128,2.9017,2.9017,2.891,2.8697,2.8484,2.8359,2.8267,2.8301,2.8301,2.8301,2.8301,2.8301,2.8184,2.797,2.7809,2.753,2.7107,2.6845,2.6845,2.6845,2.6736,2.6636,2.6636,2.6534,2.6467,2.6317,2.62,2.6276,2.5946,2.5828,2.5996,2.5885,2.5781,2.5684,2.5527,2.5381,2.5322,2.5176,2.4883,2.4697,2.4541,2.4287,2.4066,2.3945,2.3783,2.3619,2.3631,2.3347,2.2675,2.2627,2.2574,2.2441,2.222,2.2087,2.1954,2.1865,2.1758,2.1919,2.1785,2.1741,2.1687,2.1687,2.1604,2.1509,2.1611,2.1745,2.1755,2.1779,2.1274,2.0436,2.0186,1.9385,1.7727,1.607,1.4859,1.4583,1.4592,1.4404,1.4334,1.4538,1.4314,1.4226,1.4058,1.4114,1.4037,1.4247,1.5097,1.5896,1.6086,1.662,1.7807,1.8155,1.7963,1.7724,1.7477,1.7348,1.7266,1.7092,1.6908,1.6908,1.6908,1.6908,1.6908,1.6908,1.6908,1.6828,1.6671,1.6429,1.6123,1.5748,1.5233,2.9212,2.9275,2.9488,2.9655,2.9668,2.9668,2.9434,2.9062,2.8935,2.8652,2.835,2.8301,2.8301,2.8301,2.8301,2.8301,2.813,2.7701,2.7485,2.7377,2.7008,2.6736,2.6691,2.6691,2.6736,2.6636,2.6691,2.6808,2.6868,2.6735,2.6755,2.6888,2.6745,2.6583,2.6377,2.6297,2.6211,2.5928,2.5703,2.5664,2.5625,2.5596,2.5459,2.5185,2.4922,2.4668,2.456,2.4465,2.437,2.4146,2.4322,2.3887,2.3207,2.2599,2.2213,2.2213,2.2008,2.1874,2.1776,2.1731,2.1687,2.1687,2.1687,2.1687,2.1687,2.1687,2.1668,2.1758,2.1889,2.2199,2.2422,2.2459,2.1939,2.122,2.0902,2.0175,1.8874,1.7564,1.6584,1.5383,1.5495,1.5562,1.5285,1.5269,1.4859,1.458,1.4412,1.4292,1.4292,1.4573,1.544,1.6365,1.675,1.7236,1.8363,1.8522,1.8311,1.8137,1.7862,1.7697,1.7587,1.7504,1.733,1.6963,1.6908,1.6917,1.6917,1.6908,1.6908,1.6908,1.6839,1.6621,1.6333,1.6009,1.5613,2.9221,3.0002,2.9717,2.9766,3.0068,3.0098,2.9853,2.9443,2.9101,2.8682,2.834,2.8301,2.8301,2.8301,2.8301,2.8301,2.813,2.7701,2.7431,2.7377,2.7053,2.6836,2.6691,2.6791,2.6944,2.6935,2.6944,2.7107,2.726,2.7302,2.7368,2.7534,2.7324,2.7149,2.7094,2.6816,2.6426,2.6182,2.5908,2.5752,2.5693,2.5674,2.5664,2.5547,2.541,2.5254,2.501,2.4932,2.4795,2.4426,2.4378,2.4217,2.3886,2.3424,2.2957,2.2532,2.2216,2.1993,2.1849,2.1705,2.1696,2.1687,2.1687,2.1687,2.1687,2.1687,2.1731,2.1865,2.2132,2.2485,2.2925,2.2882,2.2818,2.244,2.213,2.1697,2.0465,1.9606,1.8679,1.7309,1.7054,1.6732,1.6357,1.6061,1.5835,1.5511,1.5269,1.5193,1.5193,1.5436,1.5992,1.6887,1.7762,1.8297,1.8994,1.8802,1.8623,1.854,1.832,1.8054,1.8009,1.7999,1.7798,1.7394,1.7073,1.6972,1.6954,1.6917,1.6908,1.6908,1.6874,1.6839,1.6621,1.6403,1.6551,2.9795,3.0527,3.0332,3.0371,3.0537,3.0547,3.0303,2.9863,2.9443,2.9014,2.8643,2.8408,2.8301,2.8301,2.8301,2.8301,2.814,2.7701,2.7431,2.7323,2.7098,2.6935,2.6791,2.6944,2.7206,2.7368,2.7476,2.753,2.7638,2.7638,2.7809,2.7975,2.7844,2.7775,2.7646,2.7337,2.6787,2.6494,2.6182,2.5957,2.5723,2.5693,2.5684,2.5684,2.5684,2.5615,2.5488,2.541,2.5322,2.5109,2.507,2.4876,2.4625,2.4225,2.3788,2.3188,2.2661,2.2359,2.2159,2.1977,2.1687,2.1687,2.1705,2.1687,2.1687,2.1731,2.1839,2.2052,2.2097,2.2495,2.3013,2.3013,2.2882,2.2847,2.2759,2.2299,2.1623,2.129,2.0324,1.9127,1.8456,1.7845,1.7107,1.6889,1.6779,1.6535,1.6165,1.609,1.609,1.6288,1.6617,1.7464,1.8318,1.8727,1.9173,1.904,1.8916,1.8843,1.8733,1.8475,1.8338,1.8339,1.8081,1.7734,1.7441,1.7275,1.6963,1.6917,1.6908,1.6908,1.6908,1.6874,1.6908,1.6908,1.6908,3.0266,3.0889,3.0791,3.0801,3.0889,3.0889,3.0615,3.0185,2.9834,2.9394,2.8906,2.8584,2.8389,2.8257,2.8184,2.813,2.8247,2.7701,2.7485,2.7485,2.7368,2.7152,2.7098,2.7206,2.7422,2.7745,2.7906,2.796,2.797,2.796,2.813,2.8174,2.8281,2.8144,2.7832,2.7689,2.7239,2.6865,2.6514,2.6299,2.5967,2.5732,2.5684,2.5684,2.5684,2.5684,2.5635,2.5625,2.5625,2.5596,2.5586,2.5499,2.5226,2.5005,2.465,2.4069,2.3372,2.2962,2.2785,2.2545,2.2324,2.2343,2.2151,2.2133,2.2105,2.2196,2.2067,2.2333,2.2248,2.2362,2.2838,2.2847,2.275,2.2671,2.2618,2.2485,2.2043,2.1738,2.1504,2.054,1.9733,1.8995,1.8321,1.8094,1.8065,1.735,1.6976,1.6935,1.6935,1.6984,1.735,1.8118,1.8727,1.9045,1.9253,1.9253,1.9164,1.9118,1.9026,1.8861,1.8742,1.865,1.8365,1.8173,1.8008,1.7807,1.7367,1.6945,1.6908,1.6908,1.6908,1.6908,1.6908,1.6908,1.6908,3.0248,3.084,3.0459,3.0508,3.085,3.0879,3.0635,3.0234,3.0137,2.9648,2.8975,2.8848,2.8613,2.8252,2.7755,2.7862,2.797,2.7755,2.7584,2.7755,2.7691,2.7584,2.7422,2.7682,2.7745,2.796,2.8121,2.8237,2.8184,2.8184,2.8237,2.8291,2.8291,2.8242,2.8125,2.7943,2.7669,2.7441,2.7109,2.6719,2.6328,2.5927,2.5762,2.5723,2.5693,2.5684,2.5684,2.5684,2.5684,2.5684,2.5684,2.5654,2.5615,2.5606,2.5557,2.5121,2.4421,2.3615,2.3597,2.3306,2.3241,2.3176,2.3278,2.3409,2.3166,2.2813,2.2628,2.2609,2.2393,2.2393,2.2782,2.2637,2.2495,2.2451,2.2353,2.2132,2.1874,2.1865,2.1684,2.1548,2.0584,2.0174,1.9647,1.9492,1.9295,1.847,1.7876,1.7853,1.7827,1.7836,1.7917,1.8647,1.8935,1.9213,1.9292,1.9292,1.9292,1.9292,1.9228,1.9146,1.9045,1.8926,1.8907,1.8715,1.854,1.8256,1.7798,1.7394,1.7073,1.7,1.7128,1.7046,1.6908,1.6908,1.6917,2.9857,3.0137,3.0185,3.0312,3.0527,3.0771,3.0781,3.0566,3.0293,2.9853,2.9307,2.9004,2.8627,2.8091,2.7745,2.7853,2.796,2.7799,2.7745,2.7906,2.7906,2.7799,2.7745,2.7853,2.796,2.8121,2.8237,2.8291,2.8301,2.8301,2.8301,2.8301,2.8301,2.8291,2.8301,2.8115,2.7881,2.7598,2.7246,2.6943,2.668,2.6357,2.6113,2.6094,2.5879,2.5723,2.5703,2.5684,2.5684,2.5684,2.5684,2.5684,2.5684,2.5674,2.5674,2.5654,2.5218,2.4679,2.4287,2.3927,2.3804,2.3747,2.3747,2.3644,2.3634,2.3493,2.3269,2.3269,2.2902,2.283,2.2904,2.2653,2.247,2.2362,2.2269,2.2,2.1822,2.1741,2.165,2.1595,2.1504,2.1,2.057,2.0303,2.0016,1.9407,1.8885,1.8873,1.8789,1.8727,1.8856,1.9063,1.9222,1.9253,1.9292,1.9292,1.9292,1.9292,1.9292,1.9237,1.9256,1.9201,1.9127,1.9017,1.8797,1.8485,1.8155,1.788,1.7578,1.7477,1.7403,1.7321,1.722,1.6963,1.6963,2.9258,2.9307,2.9814,3.0098,3.0225,3.0586,3.0771,3.083,3.0527,3.0137,2.9658,2.918,2.8622,2.8197,2.8028,2.796,2.8014,2.796,2.796,2.796,2.8014,2.8023,2.8023,2.8014,2.813,2.8301,2.8291,2.8301,2.8301,2.8301,2.8301,2.8301,2.8301,2.8301,2.8301,2.8242,2.8105,2.7861,2.7441,2.7226,2.71,2.6768,2.6592,2.6416,2.6162,2.5908,2.584,2.5703,2.5684,2.5684,2.5684,2.5684,2.5684,2.5684,2.5684,2.5684,2.5509,2.5373,2.4957,2.4583,2.4268,2.4183,2.4183,2.4354,2.4193,2.4032,2.3833,2.3692,2.3316,2.3219,2.3207,2.2843,2.2744,2.2569,2.2376,2.2113,2.186,2.1823,2.1723,2.165,2.1595,2.1531,2.1165,2.0955,2.0616,2.0177,1.9948,1.982,1.9619,1.9399,1.9289,1.9338,1.9301,1.9301,1.9292,1.9292,1.9292,1.9292,1.9292,1.9292,1.9292,1.9292,1.9246,1.9118,1.899,1.8907,1.8696,1.8403,1.8072,1.7871,1.7734,1.7697,1.7559,1.7266,1.7101,2.8379,2.8447,2.9268,2.9824,3.0185,3.0234,3.0498,3.0879,3.084,3.0527,3.0019,2.9346,2.89,2.869,2.8255,2.8135,2.8267,2.8023,2.8077,2.8184,2.8291,2.8237,2.8184,2.8237,2.8237,2.8291,2.8301,2.8301,2.8301,2.8301,2.8301,2.8301,2.8301,2.8301,2.8301,2.8281,2.8271,2.8086,2.7793,2.7627,2.75,2.7236,2.6982,2.6885,2.6592,2.6338,2.6318,2.6055,2.5791,2.5791,2.5781,2.5703,2.5703,2.5684,2.5684,2.5684,2.5684,2.5625,2.5392,2.5363,2.5499,2.5518,2.5412,2.5208,2.5015,2.4785,2.4488,2.404,2.3787,2.3448,2.3317,2.3093,2.2954,2.2852,2.2667,2.2336,2.2116,2.1915,2.1815,2.1723,2.165,2.164,2.1621,2.1374,2.1034,2.0594,2.0301,2.0163,1.9916,1.9687,1.9476,1.9384,1.9329,1.9301,1.9292,1.9292,1.9292,1.9292,1.9292,1.9292,1.9292,1.9292,1.9292,1.9265,1.9155,1.921,1.9182,1.8797,1.8458,1.8182,1.8073,1.8036,1.7908,1.7651,1.7523,2.8301,2.833,2.8652,2.918,2.9834,3.0088,3.0459,3.085,3.0889,3.0635,3.0176,2.96,2.9205,2.8978,2.8732,2.8465,2.8435,2.8218,2.8242,2.8237,2.8301,2.8301,2.8301,2.831,2.8291,2.8301,2.8301,2.8301,2.8301,2.8301,2.8301,2.8301,2.8301,2.8301,2.8301,2.8301,2.8301,2.8271,2.8154,2.8057,2.7969,2.7656,2.7412,2.7373,2.6992,2.6797,2.6748,2.6621,2.6396,2.6201,2.6143,2.6006,2.5771,2.5732,2.5703,2.5684,2.5684,2.5684,2.5684,2.5684,2.5684,2.5684,2.5674,2.5645,2.5538,2.5354,2.515,2.4765,2.4374,2.4051,2.388,2.3485,2.3177,2.314,2.2954,2.263,2.2437,2.229,2.2114,2.2094,2.1894,2.1758,2.1758,2.1784,2.139,2.0979,2.0714,2.0457,2.0228,1.9989,1.9787,1.9641,1.9586,1.9485,1.9476,1.9402,1.932,1.9347,1.9375,1.9375,1.9402,1.9292,1.9292,1.9292,1.9292,1.9274,1.9191,1.9026,1.8843,1.8696,1.8475,1.8329,1.8164,1.8036,1.7944,2.8301,2.8301,2.8301,2.8779,2.9616,2.9883,3.0342,3.084,3.0898,3.0732,3.0371,2.9971,2.9653,2.9414,2.9205,2.9011,2.8898,2.8777,2.875,2.8672,2.8613,2.8506,2.8447,2.8369,2.8301,2.8301,2.8301,2.8301,2.8301,2.8301,2.8301,2.8301,2.8301,2.8301,2.8301,2.8301,2.8301,2.8301,2.8301,2.8301,2.8223,2.8027,2.7851,2.7783,2.7441,2.7236,2.7148,2.7012,2.6807,2.665,2.6523,2.6328,2.6103,2.5908,2.5859,2.5732,2.5684,2.5693,2.5684,2.5684,2.5684,2.5684,2.5684,2.5684,2.5684,2.5684,2.5421,2.5226,2.4986,2.4794,2.4477,2.4019,2.3773,2.3762,2.333,2.2995,2.2962,2.2862,2.2647,2.2522,2.2339,2.2238,2.2061,2.2061,2.1799,2.1369,2.1016,2.0805,2.0668,2.042,2.0163,2.0026,1.9943,1.9824,1.9696,1.9787,1.9861,1.9833,1.9806,1.9604,1.9558,1.9457,1.9329,1.9292,1.9292,1.9292,1.9237,1.9136,1.9173,1.9228,1.8999,1.8742,1.8678,1.8522,1.8366,2.8301,2.8301,2.8301,2.8789,2.9541,2.958,3.0088,3.084,3.0889,3.0869,3.0752,3.0361,3.0195,3.0031,2.9746,2.957,2.9475,2.9473,2.9404,2.9277,2.9033,2.8926,2.8769,2.8613,2.8428,2.832,2.8301,2.8301,2.8301,2.8301,2.8301,2.8301,2.8301,2.8301,2.8301,2.8301,2.8301,2.8301,2.8301,2.8301,2.8281,2.8223,2.8184,2.8086,2.7851,2.7656,2.7598,2.7402,2.7207,2.7041,2.7012,2.6787,2.6435,2.6377,2.6201,2.581,2.581,2.5732,2.5693,2.5684,2.5684,2.5684,2.5684,2.5684,2.5684,2.5684,2.5635,2.543,2.5256,2.511,2.4884,2.4611,2.4419,2.4219,2.3823,2.3572,2.353,2.3466,2.3261,2.3106,2.3047,2.2934,2.2605,2.2337,2.2124,2.1796,2.1344,2.1145,2.1096,2.0824,2.0539,2.0411,2.031,2.0191,2.0127,2.0319,2.0393,2.0347,2.0218,2.0008,1.9842,1.9751,1.9595,1.9402,1.9384,1.9467,1.9384,1.9274,1.9292,1.9292,1.9292,1.9136,1.9091,1.899,1.8797,2.8301,2.8301,2.8301,2.8789,2.9567,2.9636,3.0078,3.0801,3.0898,3.0898,3.0869,3.0693,3.0654,3.0518,3.0225,2.999,2.9951,2.9629,2.958,2.9626,2.9414,2.9375,2.9219,2.8955,2.8721,2.8623,2.8496,2.833,2.8301,2.8301,2.8301,2.8301,2.8301,2.8301,2.8301,2.8301,2.8301,2.8301,2.8301,2.8301,2.8301,2.8301,2.8291,2.8281,2.8125,2.8047,2.8037,2.7803,2.7666,2.748,2.7451,2.7236,2.6894,2.6807,2.6602,2.6279,2.6162,2.6016,2.5791,2.5684,2.5684,2.5703,2.5684,2.5684,2.5684,2.5684,2.5635,2.5538,2.5382,2.5284,2.5118,2.4913,2.4718,2.4728,2.4452,2.4264,2.4191,2.406,2.3909,2.3737,2.3639,2.3383,2.3081,2.2955,2.2737,2.2424,2.2019,2.1794,2.1711,2.1259,2.0897,2.0778,2.0668,2.0558,2.0539,2.0714,2.0741,2.0649,2.0539,2.0374,2.0228,2.009,1.9952,1.9806,1.9723,1.965,1.9448,1.9341,1.9292,1.9292,1.9292,1.9292,1.921,1.9182,1.9155,2.8301,2.8301,2.8301,2.8789,2.9502,2.958,3.0078,3.0791,3.0898,3.0898,3.0889,3.0889,3.0879,3.0781,3.0605,3.0439,3.04,3.0195,3.0049,3.0,2.9834,2.9805,2.9648,2.9375,2.918,2.9023,2.875,2.8525,2.8535,2.8369,2.831,2.8301,2.8301,2.8301,2.8301,2.8301,2.8301,2.8301,2.8301,2.8301,2.8301,2.8301,2.8301,2.8291,2.8271,2.8271,2.8291,2.8252,2.8184,2.7949,2.7812,2.7666,2.7373,2.7187,2.7021,2.6748,2.6582,2.6455,2.6299,2.6181,2.6171,2.5976,2.581,2.5693,2.5684,2.5684,2.5684,2.5635,2.5479,2.5479,2.5382,2.5137,2.5039,2.5039,2.4933,2.4695,2.4745,2.4602,2.4546,2.4382,2.4293,2.3959,2.3608,2.353,2.3479,2.3095,2.2713,2.2504,2.2276,2.1801,2.1394,2.1302,2.1213,2.1167,2.1087,2.1046,2.1037,2.0961,2.0851,2.0784,2.0622,2.0484,2.0347,2.0173,1.9989,1.976,1.9537,1.939,1.9436,1.9387,1.9341,1.9301,1.9292,1.9292,1.9292,2.8301,2.8301,2.8301,2.8769,2.9518,2.959,3.0107,3.0869,3.0898,3.0898,3.0898,3.0898,3.0898,3.0898,3.0859,3.083,3.081,3.0781,3.0752,3.0674,3.0361,3.0273,3.0088,2.9814,2.9629,2.9434,2.918,2.8887,2.8867,2.8476,2.8301,2.8301,2.8301,2.8301,2.8301,2.8301,2.8301,2.8301,2.8301,2.8301,2.8301,2.8301,2.8301,2.8301,2.8301,2.8301,2.8301,2.8281,2.8271,2.8232,2.8232,2.8008,2.7875,2.7685,2.7412,2.7168,2.7041,2.6914,2.6865,2.6807,2.6699,2.6406,2.6103,2.584,2.5713,2.5742,2.5791,2.5723,2.5635,2.5635,2.5635,2.5489,2.5342,2.5245,2.5137,2.5138,2.5236,2.5189,2.5189,2.5111,2.5042,2.4808,2.4421,2.4256,2.4067,2.3722,2.34,2.3127,2.2859,2.2372,2.2061,2.1919,2.1866,2.1906,2.1771,2.1579,2.1604,2.1581,2.1401,2.1299,2.1084,2.094,2.0863,2.0651,2.02,1.9943,1.9828,1.9743,1.9605,1.9577,1.9645,1.9436,1.9445,1.9311,1.9301,2.8301,2.8301,2.8301,2.8613,2.915,2.9756,3.0361,3.085,3.0898,3.0898,3.0898,3.0898,3.0898,3.0898,3.0889,3.0898,3.0898,3.0889,3.0879,3.0801,3.0703,3.0693,3.0527,3.0244,3.0068,2.9873,2.9609,2.9248,2.8906,2.8525,2.832,2.8301,2.8301,2.8301,2.8301,2.8301,2.8301,2.8301,2.8301,2.8301,2.8301,2.8301,2.8301,2.8301,2.8301,2.8301,2.8301,2.8301,2.8301,2.8301,2.8301,2.8174,2.8164,2.8096,2.792,2.751,2.7236,2.7002,2.7012,2.7021,2.6973,2.6894,2.6709,2.626,2.6005,2.5918,2.6035,2.5918,2.5713,2.5684,2.5684,2.5586,2.5538,2.544,2.5391,2.544,2.5489,2.5499,2.547,2.544,2.543,2.5293,2.4971,2.4883,2.4662,2.4378,2.4059,2.3774,2.3422,2.2939,2.2514,2.2372,2.2309,2.222,2.222,2.2098,2.2155,2.2155,2.1945,2.1861,2.1823,2.1677,2.1513,2.1167,2.0735,2.0467,2.0273,2.0172,2.0133,2.0111,2.0143,1.9817,1.954,1.9503,1.9439,2.8301,2.8301,2.8301,2.8535,2.9004,2.9658,3.0205,3.0596,3.081,3.0898,3.0898,3.0898,3.0898,3.0898,3.0898,3.0898,3.0898,3.0898,3.0898,3.0898,3.0898,3.0869,3.0742,3.0625,3.0518,3.0312,3.0059,2.9707,2.9287,2.8799,2.8525,2.8301,2.8301,2.8301,2.8301,2.8301,2.8301,2.8301,2.8301,2.8301,2.8301,2.8301,2.8301,2.8301,2.8301,2.8301,2.8301,2.8301,2.8301,2.8301,2.8301,2.8291,2.8291,2.8271,2.8242,2.7881,2.7754,2.7617,2.7617,2.7588,2.7451,2.7363,2.7393,2.7051,2.6582,2.6348,2.623,2.6084,2.583,2.5684,2.5684,2.5684,2.5684,2.5684,2.5684,2.5684,2.5684,2.5684,2.5674,2.5664,2.5606,2.5566,2.5449,2.5371,2.5205,2.4853,2.46,2.4368,2.3955,2.3506,2.299,2.2656,2.2549,2.2485,2.2485,2.2485,2.2441,2.2397,2.2271,2.2224,2.2397,2.2259,2.1954,2.1624,2.131,2.1057,2.0815,2.0745,2.0712,2.0692,2.069,2.0464,2.013,1.9743,1.9708,2.8301,2.8301,2.8301,2.8535,2.8935,2.9365,2.9756,3.0176,3.0605,3.0859,3.0879,3.0898,3.0898,3.0898,3.0898,3.0898,3.0898,3.0898,3.0898,3.0898,3.0898,3.0898,3.0898,3.0879,3.0762,3.0684,3.0498,3.0146,2.9912,2.9316,2.8643,2.835,2.8301,2.8301,2.8301,2.8301,2.8301,2.8301,2.8301,2.8301,2.8301,2.8301,2.8301,2.8301,2.8301,2.8301,2.8301,2.8301,2.8301,2.8301,2.8301,2.8301,2.8301,2.8291,2.8262,2.8242,2.8125,2.8105,2.8076,2.8066,2.7949,2.793,2.8027,2.7734,2.7295,2.6865,2.6709,2.6299,2.6064,2.5801,2.5742,2.5703,2.5684,2.5684,2.5684,2.5684,2.5684,2.5684,2.5684,2.5684,2.5664,2.5596,2.5586,2.5537,2.5488,2.5215,2.5078,2.4912,2.458,2.4114,2.359,2.3098,2.2996,2.2923,2.2652,2.2608,2.2574,2.253,2.253,2.253,2.2662,2.2517,2.2309,2.2023,2.1757,2.1603,2.14,2.1381,2.1325,2.1221,2.1188,2.1127,2.0812,2.0367,2.0092,2.8301,2.8301,2.8301,2.8535,2.8906,2.9023,2.9326,2.9746,3.0176,3.0537,3.084,3.0879,3.0898,3.0898,3.0898,3.0898,3.0898,3.0898,3.0898,3.0898,3.0898,3.0898,3.0898,3.0898,3.0898,3.0869,3.0723,3.0488,3.0078,2.9434,2.8906,2.874,2.8545,2.8359,2.835,2.834,2.8301,2.8504,2.8291,2.8398,2.8495,2.8344,2.8301,2.8301,2.8301,2.8301,2.8301,2.8301,2.8301,2.8301,2.8301,2.8301,2.8301,2.8301,2.8301,2.8301,2.8301,2.8301,2.8301,2.8301,2.8193,2.8184,2.8203,2.8144,2.793,2.7568,2.7139,2.665,2.6269,2.6055,2.5859,2.5801,2.5732,2.5732,2.5713,2.5713,2.5703,2.5684,2.5684,2.5684,2.5684,2.5684,2.5684,2.5664,2.5625,2.5625,2.5596,2.5439,2.5117,2.4736,2.429,2.3848,2.3621,2.346,2.3084,2.2896,2.289,2.2867,2.2838,2.2872,2.2925,2.2755,2.2585,2.2419,2.2218,2.2063,2.2006,2.207,2.1966,2.1779,2.1731,2.1712,2.1629,2.1288,2.0878,2.8301,2.8301,2.8301,2.8418,2.8613,2.8643,2.8887,2.9277,2.9541,2.9883,3.0351,3.0684,3.0889,3.0889,3.0898,3.0898,3.0898,3.0898,3.0898,3.0898,3.0898,3.0898,3.0898,3.0898,3.0898,3.0889,3.0859,3.0625,3.0195,2.9863,2.9473,2.918,2.8818,2.8564,2.8535,2.8481,2.8621,2.9016,2.8601,2.8591,2.8751,2.8601,2.8344,2.8301,2.8301,2.8301,2.8301,2.8301,2.8301,2.8301,2.8301,2.8301,2.8301,2.8301,2.8301,2.8301,2.8301,2.8301,2.8301,2.8301,2.8301,2.8301,2.8291,2.8213,2.8213,2.7871,2.7676,2.7207,2.6787,2.6543,2.6514,2.6475,2.6269,2.6182,2.6094,2.6035,2.583,2.5684,2.5684,2.5684,2.5684,2.5684,2.5684,2.5684,2.5654,2.5654,2.5674,2.5674,2.5459,2.5264,2.4883,2.457,2.4307,2.3926,2.3524,2.3324,2.3266,2.3257,2.3149,2.3057,2.3023,2.2969,2.2872,2.2731,2.2643,2.2614,2.258,2.2441,2.2457,2.2331,2.2289,2.226,2.2173,2.211,2.173,2.8301,2.8301,2.8301,2.8301,2.8301,2.8301,2.8506,2.8818,2.8926,2.9199,2.9707,3.0459,3.0762,3.0801,3.0889,3.0898,3.0898,3.0898,3.0898,3.0898,3.0898,3.0898,3.0898,3.0898,3.0898,3.0898,3.0879,3.0674,3.0371,3.0098,2.9844,2.96,2.9297,2.8965,2.8818,2.8863,2.9126,2.9353,2.926,2.9154,2.9112,2.891,2.8451,2.8301,2.8301,2.8301,2.8301,2.8301,2.8301,2.8301,2.8301,2.8301,2.8301,2.8301,2.8301,2.8301,2.8301,2.8301,2.8301,2.8301,2.8301,2.8301,2.8301,2.8291,2.8281,2.8193,2.7988,2.7744,2.7324,2.7051,2.7031,2.6943,2.6719,2.6435,2.6328,2.6191,2.5908,2.5703,2.5684,2.5684,2.5693,2.5693,2.5684,2.5684,2.5684,2.5684,2.5684,2.5684,2.5635,2.5566,2.5322,2.5117,2.4875,2.4492,2.3984,2.3828,2.3715,2.3496,2.3398,2.3262,2.311,2.3057,2.3003,2.3003,2.296,2.2838,2.2662,2.2485,2.2545,2.2658,2.2513,2.2417,2.2684,2.2609,2.2499,2.8301,2.8301,2.8301,2.8301,2.8301,2.8301,2.834,2.8467,2.8789,2.916,2.958,3.0019,3.0332,3.0361,3.0752,3.0879,3.0898,3.0898,3.0898,3.0898,3.0898,3.0898,3.0898,3.0898,3.0898,3.0898,3.0898,3.083,3.0605,3.0351,3.0176,3.0059,2.9658,2.9342,2.9144,2.9369,2.9956,3.0024,2.9828,2.9618,2.9365,2.9069,2.8451,2.8301,2.8301,2.8301,2.8301,2.8301,2.8301,2.8301,2.8301,2.8301,2.8301,2.8301,2.8301,2.8301,2.8301,2.8301,2.8301,2.8301,2.8301,2.8301,2.8301,2.8291,2.8291,2.8291,2.8154,2.8115,2.7744,2.7383,2.7285,2.7187,2.6982,2.6553,2.6299,2.6123,2.5869,2.5762,2.5703,2.5713,2.5723,2.5703,2.5684,2.5684,2.5684,2.5684,2.5684,2.5684,2.5684,2.5664,2.5654,2.5508,2.5352,2.4943,2.4453,2.4316,2.4189,2.3877,2.3603,2.3467,2.333,2.312,2.3091,2.3091,2.296,2.2794,2.2662,2.253,2.2574,2.2643,2.252,2.2492,2.2843,2.3023,2.2833]}]]